<?xml version='1.0' encoding='UTF-8'?>
<gpx version="1.1" creator="https://www.komoot.de" xmlns="http://www.topografix.com/GPX/1/1" xmlns:xsi="http://www.w3.org/2001/XMLSchema-instance" xsi:schemaLocation="http://www.topografix.com/GPX/1/1 http://www.topografix.com/GPX/1/1/gpx.xsd">
  <metadata>
    <name>Randonnée Corto 2026 (4/5/26)</name>
    <author>
      <link href="https://www.komoot.de">
        <text>komoot</text>
        <type>text/html</type>
      </link>
    </author>
  </metadata>
  <wpt lat="43.609974" lon="10.643829">
    <name>Rotonda delle Banane</name>
    <sym>Flag, Blue</sym>
  </wpt>
  <trk>
    <name>Randonnée Corto 2026 (4/5/26)</name>
    <trkseg>
      <trkpt lat="43.655877" lon="10.630097">
        <ele>15.362924</ele>
        <time>2026-05-04T22:31:01.804Z</time>
      </trkpt>
      <trkpt lat="43.655783" lon="10.630798">
        <ele>15.362924</ele>
        <time>2026-05-04T22:31:10.965Z</time>
      </trkpt>
      <trkpt lat="43.655747" lon="10.631021">
        <ele>15.362924</ele>
        <time>2026-05-04T22:31:13.853Z</time>
      </trkpt>
      <trkpt lat="43.655659" lon="10.631488">
        <ele>15.251205</ele>
        <time>2026-05-04T22:31:19.850Z</time>
      </trkpt>
      <trkpt lat="43.655605" lon="10.631749">
        <ele>15.083636</ele>
        <time>2026-05-04T22:31:23.168Z</time>
      </trkpt>
      <trkpt lat="43.655659" lon="10.631488">
        <ele>14.916067</ele>
        <time>2026-05-04T22:31:26.476Z</time>
      </trkpt>
      <trkpt lat="43.655590" lon="10.631469">
        <ele>14.856040</ele>
        <time>2026-05-04T22:31:27.679Z</time>
      </trkpt>
      <trkpt lat="43.655438" lon="10.631528">
        <ele>14.721338</ele>
        <time>2026-05-04T22:31:30.395Z</time>
      </trkpt>
      <trkpt lat="43.655125" lon="10.631413">
        <ele>14.445016</ele>
        <time>2026-05-04T22:31:35.971Z</time>
      </trkpt>
      <trkpt lat="43.654984" lon="10.631432">
        <ele>14.324147</ele>
        <time>2026-05-04T22:31:38.399Z</time>
      </trkpt>
      <trkpt lat="43.654679" lon="10.631313">
        <ele>14.053755</ele>
        <time>2026-05-04T22:31:43.790Z</time>
      </trkpt>
      <trkpt lat="43.654628" lon="10.631289">
        <ele>14.007789</ele>
        <time>2026-05-04T22:31:44.699Z</time>
      </trkpt>
      <trkpt lat="43.654604" lon="10.631337">
        <ele>13.971772</ele>
        <time>2026-05-04T22:31:45.414Z</time>
      </trkpt>
      <trkpt lat="43.654457" lon="10.631186">
        <ele>13.820971</ele>
        <time>2026-05-04T22:31:48.512Z</time>
      </trkpt>
      <trkpt lat="43.654409" lon="10.631137">
        <ele>13.791723</ele>
        <time>2026-05-04T22:31:49.510Z</time>
      </trkpt>
      <trkpt lat="43.654390" lon="10.631087">
        <ele>13.771695</ele>
        <time>2026-05-04T22:31:50.205Z</time>
      </trkpt>
      <trkpt lat="43.654348" lon="10.630904">
        <ele>13.703613</ele>
        <time>2026-05-04T22:31:52.568Z</time>
      </trkpt>
      <trkpt lat="43.654261" lon="10.630020">
        <ele>13.387241</ele>
        <time>2026-05-04T22:32:03.918Z</time>
      </trkpt>
      <trkpt lat="43.654250" lon="10.629909">
        <ele>13.347511</ele>
        <time>2026-05-04T22:32:05.398Z</time>
      </trkpt>
      <trkpt lat="43.654165" lon="10.629503">
        <ele>13.197628</ele>
        <time>2026-05-04T22:32:10.995Z</time>
      </trkpt>
      <trkpt lat="43.653977" lon="10.628956">
        <ele>12.982876</ele>
        <time>2026-05-04T22:32:19.174Z</time>
      </trkpt>
      <trkpt lat="43.653551" lon="10.628080">
        <ele>12.875555</ele>
        <time>2026-05-04T22:32:33.820Z</time>
      </trkpt>
      <trkpt lat="43.653522" lon="10.627967">
        <ele>12.866602</ele>
        <time>2026-05-04T22:32:35.488Z</time>
      </trkpt>
      <trkpt lat="43.653513" lon="10.627930">
        <ele>12.863687</ele>
        <time>2026-05-04T22:32:36.027Z</time>
      </trkpt>
      <trkpt lat="43.653511" lon="10.627778">
        <ele>12.852335</ele>
        <time>2026-05-04T22:32:38.163Z</time>
      </trkpt>
      <trkpt lat="43.653522" lon="10.627635">
        <ele>12.841597</ele>
        <time>2026-05-04T22:32:40.140Z</time>
      </trkpt>
      <trkpt lat="43.653462" lon="10.627401">
        <ele>12.823058</ele>
        <time>2026-05-04T22:32:43.534Z</time>
      </trkpt>
      <trkpt lat="43.653390" lon="10.627308">
        <ele>12.812888</ele>
        <time>2026-05-04T22:32:45.347Z</time>
      </trkpt>
      <trkpt lat="43.653309" lon="10.627252">
        <ele>12.803540</ele>
        <time>2026-05-04T22:32:47.019Z</time>
      </trkpt>
      <trkpt lat="43.653194" lon="10.627236">
        <ele>12.791612</ele>
        <time>2026-05-04T22:32:49.160Z</time>
      </trkpt>
      <trkpt lat="43.653039" lon="10.627318">
        <ele>12.774483</ele>
        <time>2026-05-04T22:32:52.205Z</time>
      </trkpt>
      <trkpt lat="43.652945" lon="10.627477">
        <ele>12.764688</ele>
        <time>2026-05-04T22:32:54.950Z</time>
      </trkpt>
      <trkpt lat="43.652919" lon="10.627674">
        <ele>12.791445</ele>
        <time>2026-05-04T22:32:57.618Z</time>
      </trkpt>
      <trkpt lat="43.652858" lon="10.627921">
        <ele>12.826319</ele>
        <time>2026-05-04T22:33:01.106Z</time>
      </trkpt>
      <trkpt lat="43.652692" lon="10.628222">
        <ele>12.876890</ele>
        <time>2026-05-04T22:33:06.248Z</time>
      </trkpt>
      <trkpt lat="43.651701" lon="10.629282">
        <ele>13.157306</ele>
        <time>2026-05-04T22:33:32.270Z</time>
      </trkpt>
      <trkpt lat="43.651363" lon="10.629639">
        <ele>13.492331</ele>
        <time>2026-05-04T22:33:42.452Z</time>
      </trkpt>
      <trkpt lat="43.651325" lon="10.629680">
        <ele>13.530298</ele>
        <time>2026-05-04T22:33:43.579Z</time>
      </trkpt>
      <trkpt lat="43.651169" lon="10.629782">
        <ele>13.666211</ele>
        <time>2026-05-04T22:33:47.641Z</time>
      </trkpt>
      <trkpt lat="43.650994" lon="10.629836">
        <ele>13.807426</ele>
        <time>2026-05-04T22:33:51.908Z</time>
      </trkpt>
      <trkpt lat="43.650865" lon="10.629799">
        <ele>13.911184</ele>
        <time>2026-05-04T22:33:55.051Z</time>
      </trkpt>
      <trkpt lat="43.650773" lon="10.629697">
        <ele>14.004072</ele>
        <time>2026-05-04T22:33:57.852Z</time>
      </trkpt>
      <trkpt lat="43.650663" lon="10.629624">
        <ele>14.100172</ele>
        <time>2026-05-04T22:34:00.780Z</time>
      </trkpt>
      <trkpt lat="43.650582" lon="10.629626">
        <ele>14.163974</ele>
        <time>2026-05-04T22:34:02.730Z</time>
      </trkpt>
      <trkpt lat="43.650506" lon="10.629668">
        <ele>14.228435</ele>
        <time>2026-05-04T22:34:04.656Z</time>
      </trkpt>
      <trkpt lat="43.650424" lon="10.629794">
        <ele>14.325005</ele>
        <time>2026-05-04T22:34:07.512Z</time>
      </trkpt>
      <trkpt lat="43.650414" lon="10.629829">
        <ele>14.346448</ele>
        <time>2026-05-04T22:34:08.127Z</time>
      </trkpt>
      <trkpt lat="43.650311" lon="10.629978">
        <ele>14.463876</ele>
        <time>2026-05-04T22:34:11.565Z</time>
      </trkpt>
      <trkpt lat="43.650064" lon="10.630088">
        <ele>14.635202</ele>
        <time>2026-05-04T22:34:17.368Z</time>
      </trkpt>
      <trkpt lat="43.648362" lon="10.629594">
        <ele>15.710616</ele>
        <time>2026-05-04T22:34:55.712Z</time>
      </trkpt>
      <trkpt lat="43.647311" lon="10.629292">
        <ele>16.315090</ele>
        <time>2026-05-04T22:35:19.708Z</time>
      </trkpt>
      <trkpt lat="43.647164" lon="10.629249">
        <ele>16.399700</ele>
        <time>2026-05-04T22:35:23.049Z</time>
      </trkpt>
      <trkpt lat="43.646987" lon="10.629197">
        <ele>16.501596</ele>
        <time>2026-05-04T22:35:27.000Z</time>
      </trkpt>
      <trkpt lat="43.646035" lon="10.628916">
        <ele>16.919035</ele>
        <time>2026-05-04T22:35:47.526Z</time>
      </trkpt>
      <trkpt lat="43.643094" lon="10.628072">
        <ele>18.037684</ele>
        <time>2026-05-04T22:36:50.782Z</time>
      </trkpt>
      <trkpt lat="43.642842" lon="10.628025">
        <ele>18.053755</ele>
        <time>2026-05-04T22:36:56.191Z</time>
      </trkpt>
      <trkpt lat="43.642718" lon="10.628002">
        <ele>18.061663</ele>
        <time>2026-05-04T22:36:58.824Z</time>
      </trkpt>
      <trkpt lat="43.642326" lon="10.627982">
        <ele>18.086455</ele>
        <time>2026-05-04T22:37:06.802Z</time>
      </trkpt>
      <trkpt lat="43.641749" lon="10.628010">
        <ele>18.122946</ele>
        <time>2026-05-04T22:37:17.782Z</time>
      </trkpt>
      <trkpt lat="43.641685" lon="10.628016">
        <ele>18.127000</ele>
        <time>2026-05-04T22:37:18.977Z</time>
      </trkpt>
      <trkpt lat="43.640730" lon="10.628111">
        <ele>17.897368</ele>
        <time>2026-05-04T22:37:36.325Z</time>
      </trkpt>
      <trkpt lat="43.640232" lon="10.628496">
        <ele>17.696780</ele>
        <time>2026-05-04T22:37:47.111Z</time>
      </trkpt>
      <trkpt lat="43.640014" lon="10.628718">
        <ele>17.601589</ele>
        <time>2026-05-04T22:37:52.356Z</time>
      </trkpt>
      <trkpt lat="43.639782" lon="10.629060">
        <ele>17.508445</ele>
        <time>2026-05-04T22:37:59.075Z</time>
      </trkpt>
      <trkpt lat="43.639640" lon="10.629420">
        <ele>17.498978</ele>
        <time>2026-05-04T22:38:04.991Z</time>
      </trkpt>
      <trkpt lat="43.639546" lon="10.629871">
        <ele>17.488141</ele>
        <time>2026-05-04T22:38:11.786Z</time>
      </trkpt>
      <trkpt lat="43.639463" lon="10.630073">
        <ele>17.482778</ele>
        <time>2026-05-04T22:38:15.165Z</time>
      </trkpt>
      <trkpt lat="43.639465" lon="10.630218">
        <ele>17.479429</ele>
        <time>2026-05-04T22:38:17.281Z</time>
      </trkpt>
      <trkpt lat="43.639070" lon="10.630980">
        <ele>17.457786</ele>
        <time>2026-05-04T22:38:31.177Z</time>
      </trkpt>
      <trkpt lat="43.638996" lon="10.631122">
        <ele>17.453746</ele>
        <time>2026-05-04T22:38:33.815Z</time>
      </trkpt>
      <trkpt lat="43.638868" lon="10.631772">
        <ele>17.563486</ele>
        <time>2026-05-04T22:38:43.839Z</time>
      </trkpt>
      <trkpt lat="43.638836" lon="10.631878">
        <ele>17.582311</ele>
        <time>2026-05-04T22:38:45.536Z</time>
      </trkpt>
      <trkpt lat="43.638741" lon="10.632043">
        <ele>17.616868</ele>
        <time>2026-05-04T22:38:48.673Z</time>
      </trkpt>
      <trkpt lat="43.638587" lon="10.632190">
        <ele>17.659257</ele>
        <time>2026-05-04T22:38:52.508Z</time>
      </trkpt>
      <trkpt lat="43.637491" lon="10.632823">
        <ele>17.944391</ele>
        <time>2026-05-04T22:39:18.786Z</time>
      </trkpt>
      <trkpt lat="43.636833" lon="10.633185">
        <ele>18.143201</ele>
        <time>2026-05-04T22:39:33.996Z</time>
      </trkpt>
      <trkpt lat="43.636609" lon="10.633248">
        <ele>18.207369</ele>
        <time>2026-05-04T22:39:38.885Z</time>
      </trkpt>
      <trkpt lat="43.636094" lon="10.633303">
        <ele>18.352365</ele>
        <time>2026-05-04T22:39:50.112Z</time>
      </trkpt>
      <trkpt lat="43.635384" lon="10.633149">
        <ele>18.465212</ele>
        <time>2026-05-04T22:40:05.107Z</time>
      </trkpt>
      <trkpt lat="43.635121" lon="10.633194">
        <ele>18.504466</ele>
        <time>2026-05-04T22:40:10.565Z</time>
      </trkpt>
      <trkpt lat="43.634806" lon="10.633306">
        <ele>18.552645</ele>
        <time>2026-05-04T22:40:17.443Z</time>
      </trkpt>
      <trkpt lat="43.634594" lon="10.633447">
        <ele>18.587495</ele>
        <time>2026-05-04T22:40:22.446Z</time>
      </trkpt>
      <trkpt lat="43.634104" lon="10.633901">
        <ele>18.709372</ele>
        <time>2026-05-04T22:40:34.944Z</time>
      </trkpt>
      <trkpt lat="43.633926" lon="10.633901">
        <ele>18.757100</ele>
        <time>2026-05-04T22:40:38.599Z</time>
      </trkpt>
      <trkpt lat="43.633857" lon="10.633902">
        <ele>18.775603</ele>
        <time>2026-05-04T22:40:40.023Z</time>
      </trkpt>
      <trkpt lat="43.633001" lon="10.633702">
        <ele>19.008388</ele>
        <time>2026-05-04T22:40:58.715Z</time>
      </trkpt>
      <trkpt lat="43.632865" lon="10.633739">
        <ele>19.045555</ele>
        <time>2026-05-04T22:41:01.816Z</time>
      </trkpt>
      <trkpt lat="43.632545" lon="10.634508">
        <ele>19.220958</ele>
        <time>2026-05-04T22:41:16.166Z</time>
      </trkpt>
      <trkpt lat="43.632377" lon="10.634772">
        <ele>19.291333</ele>
        <time>2026-05-04T22:41:21.851Z</time>
      </trkpt>
      <trkpt lat="43.632315" lon="10.634911">
        <ele>19.324020</ele>
        <time>2026-05-04T22:41:24.511Z</time>
      </trkpt>
      <trkpt lat="43.632171" lon="10.635325">
        <ele>19.415976</ele>
        <time>2026-05-04T22:41:31.782Z</time>
      </trkpt>
      <trkpt lat="43.632063" lon="10.635430">
        <ele>19.452503</ele>
        <time>2026-05-04T22:41:34.575Z</time>
      </trkpt>
      <trkpt lat="43.631951" lon="10.635458">
        <ele>19.483986</ele>
        <time>2026-05-04T22:41:36.958Z</time>
      </trkpt>
      <trkpt lat="43.631766" lon="10.635443">
        <ele>19.535244</ele>
        <time>2026-05-04T22:41:40.784Z</time>
      </trkpt>
      <trkpt lat="43.631534" lon="10.635378">
        <ele>19.600721</ele>
        <time>2026-05-04T22:41:45.629Z</time>
      </trkpt>
      <trkpt lat="43.631334" lon="10.635272">
        <ele>19.587501</ele>
        <time>2026-05-04T22:41:50.010Z</time>
      </trkpt>
      <trkpt lat="43.631000" lon="10.634979">
        <ele>19.531248</ele>
        <time>2026-05-04T22:41:58.278Z</time>
      </trkpt>
      <trkpt lat="43.630814" lon="10.634862">
        <ele>19.502190</ele>
        <time>2026-05-04T22:42:02.608Z</time>
      </trkpt>
      <trkpt lat="43.630297" lon="10.634692">
        <ele>19.426629</ele>
        <time>2026-05-04T22:42:13.186Z</time>
      </trkpt>
      <trkpt lat="43.630055" lon="10.634689">
        <ele>19.392219</ele>
        <time>2026-05-04T22:42:17.802Z</time>
      </trkpt>
      <trkpt lat="43.629951" lon="10.634688">
        <ele>19.377432</ele>
        <time>2026-05-04T22:42:19.765Z</time>
      </trkpt>
      <trkpt lat="43.629733" lon="10.634720">
        <ele>19.332563</ele>
        <time>2026-05-04T22:42:23.894Z</time>
      </trkpt>
      <trkpt lat="43.629383" lon="10.634877">
        <ele>19.209340</ele>
        <time>2026-05-04T22:42:30.622Z</time>
      </trkpt>
      <trkpt lat="43.629213" lon="10.634858">
        <ele>19.152228</ele>
        <time>2026-05-04T22:42:33.694Z</time>
      </trkpt>
      <trkpt lat="43.629145" lon="10.634820">
        <ele>19.127666</ele>
        <time>2026-05-04T22:42:35.039Z</time>
      </trkpt>
      <trkpt lat="43.628915" lon="10.634690">
        <ele>19.044452</ele>
        <time>2026-05-04T22:42:39.668Z</time>
      </trkpt>
      <trkpt lat="43.628254" lon="10.634421">
        <ele>18.813709</ele>
        <time>2026-05-04T22:42:53.065Z</time>
      </trkpt>
      <trkpt lat="43.627935" lon="10.634319">
        <ele>18.851803</ele>
        <time>2026-05-04T22:43:00.550Z</time>
      </trkpt>
      <trkpt lat="43.627755" lon="10.634303">
        <ele>18.969808</ele>
        <time>2026-05-04T22:43:04.847Z</time>
      </trkpt>
      <trkpt lat="43.627389" lon="10.634345">
        <ele>19.210080</ele>
        <time>2026-05-04T22:43:13.813Z</time>
      </trkpt>
      <trkpt lat="43.626780" lon="10.634414">
        <ele>19.609844</ele>
        <time>2026-05-04T22:43:28.686Z</time>
      </trkpt>
      <trkpt lat="43.626374" lon="10.634429">
        <ele>19.875556</ele>
        <time>2026-05-04T22:43:38.088Z</time>
      </trkpt>
      <trkpt lat="43.625936" lon="10.634394">
        <ele>20.086649</ele>
        <time>2026-05-04T22:43:48.385Z</time>
      </trkpt>
      <trkpt lat="43.625365" lon="10.634362">
        <ele>20.338030</ele>
        <time>2026-05-04T22:44:01.593Z</time>
      </trkpt>
      <trkpt lat="43.624538" lon="10.634297">
        <ele>20.702402</ele>
        <time>2026-05-04T22:44:19.582Z</time>
      </trkpt>
      <trkpt lat="43.624304" lon="10.634261">
        <ele>20.831910</ele>
        <time>2026-05-04T22:44:24.654Z</time>
      </trkpt>
      <trkpt lat="43.624178" lon="10.634241">
        <ele>20.904935</ele>
        <time>2026-05-04T22:44:27.381Z</time>
      </trkpt>
      <trkpt lat="43.623431" lon="10.634209">
        <ele>21.335241</ele>
        <time>2026-05-04T22:44:43.035Z</time>
      </trkpt>
      <trkpt lat="43.623032" lon="10.634191">
        <ele>21.565095</ele>
        <time>2026-05-04T22:44:52.082Z</time>
      </trkpt>
      <trkpt lat="43.622102" lon="10.634111">
        <ele>22.465874</ele>
        <time>2026-05-04T22:45:18.111Z</time>
      </trkpt>
      <trkpt lat="43.621912" lon="10.634068">
        <ele>22.694120</ele>
        <time>2026-05-04T22:45:23.551Z</time>
      </trkpt>
      <trkpt lat="43.621790" lon="10.634040">
        <ele>22.840732</ele>
        <time>2026-05-04T22:45:26.912Z</time>
      </trkpt>
      <trkpt lat="43.621893" lon="10.633813">
        <ele>23.070645</ele>
        <time>2026-05-04T22:45:31.955Z</time>
      </trkpt>
      <trkpt lat="43.622179" lon="10.633183">
        <ele>23.708817</ele>
        <time>2026-05-04T22:45:45.134Z</time>
      </trkpt>
      <trkpt lat="43.622445" lon="10.632599">
        <ele>23.954228</ele>
        <time>2026-05-04T22:45:56.503Z</time>
      </trkpt>
      <trkpt lat="43.622471" lon="10.632540">
        <ele>23.963507</ele>
        <time>2026-05-04T22:45:57.502Z</time>
      </trkpt>
      <trkpt lat="43.622915" lon="10.631563">
        <ele>24.118479</ele>
        <time>2026-05-04T22:46:13.045Z</time>
      </trkpt>
      <trkpt lat="43.622935" lon="10.631517">
        <ele>24.125688</ele>
        <time>2026-05-04T22:46:13.784Z</time>
      </trkpt>
      <trkpt lat="43.622870" lon="10.631450">
        <ele>24.140739</ele>
        <time>2026-05-04T22:46:15.434Z</time>
      </trkpt>
      <trkpt lat="43.622611" lon="10.631229">
        <ele>24.197234</ele>
        <time>2026-05-04T22:46:21.724Z</time>
      </trkpt>
      <trkpt lat="43.622416" lon="10.631149">
        <ele>24.230398</ele>
        <time>2026-05-04T22:46:26.202Z</time>
      </trkpt>
      <trkpt lat="43.621904" lon="10.631308">
        <ele>24.288308</ele>
        <time>2026-05-04T22:46:37.830Z</time>
      </trkpt>
      <trkpt lat="43.621581" lon="10.631408">
        <ele>24.324836</ele>
        <time>2026-05-04T22:46:44.697Z</time>
      </trkpt>
      <trkpt lat="43.621422" lon="10.631357">
        <ele>24.342848</ele>
        <time>2026-05-04T22:46:48.006Z</time>
      </trkpt>
      <trkpt lat="43.621350" lon="10.631334">
        <ele>24.351003</ele>
        <time>2026-05-04T22:46:49.511Z</time>
      </trkpt>
      <trkpt lat="43.621344" lon="10.631301">
        <ele>24.353721</ele>
        <time>2026-05-04T22:46:49.971Z</time>
      </trkpt>
      <trkpt lat="43.621267" lon="10.631149">
        <ele>24.368542</ele>
        <time>2026-05-04T22:46:52.486Z</time>
      </trkpt>
      <trkpt lat="43.620877" lon="10.630836">
        <ele>24.418315</ele>
        <time>2026-05-04T22:47:00.947Z</time>
      </trkpt>
      <trkpt lat="43.620610" lon="10.630661">
        <ele>24.445514</ele>
        <time>2026-05-04T22:47:06.872Z</time>
      </trkpt>
      <trkpt lat="43.620595" lon="10.630652">
        <ele>24.446979</ele>
        <time>2026-05-04T22:47:07.226Z</time>
      </trkpt>
      <trkpt lat="43.620476" lon="10.630575">
        <ele>24.458751</ele>
        <time>2026-05-04T22:47:09.913Z</time>
      </trkpt>
      <trkpt lat="43.620309" lon="10.630466">
        <ele>24.475299</ele>
        <time>2026-05-04T22:47:13.579Z</time>
      </trkpt>
      <trkpt lat="43.620108" lon="10.630331">
        <ele>24.495322</ele>
        <time>2026-05-04T22:47:17.965Z</time>
      </trkpt>
      <trkpt lat="43.620048" lon="10.630338">
        <ele>24.500716</ele>
        <time>2026-05-04T22:47:19.196Z</time>
      </trkpt>
      <trkpt lat="43.620015" lon="10.630342">
        <ele>24.503684</ele>
        <time>2026-05-04T22:47:19.864Z</time>
      </trkpt>
      <trkpt lat="43.619953" lon="10.630390">
        <ele>24.510052</ele>
        <time>2026-05-04T22:47:21.317Z</time>
      </trkpt>
      <trkpt lat="43.619878" lon="10.630624">
        <ele>24.526649</ele>
        <time>2026-05-04T22:47:25.042Z</time>
      </trkpt>
      <trkpt lat="43.619827" lon="10.630796">
        <ele>24.538704</ele>
        <time>2026-05-04T22:47:27.697Z</time>
      </trkpt>
      <trkpt lat="43.619776" lon="10.630962">
        <ele>24.550399</ele>
        <time>2026-05-04T22:47:30.215Z</time>
      </trkpt>
      <trkpt lat="43.619738" lon="10.631101">
        <ele>24.560036</ele>
        <time>2026-05-04T22:47:32.327Z</time>
      </trkpt>
      <trkpt lat="43.619643" lon="10.631432">
        <ele>24.583129</ele>
        <time>2026-05-04T22:47:37.437Z</time>
      </trkpt>
      <trkpt lat="43.619583" lon="10.631640">
        <ele>24.500205</ele>
        <time>2026-05-04T22:47:40.661Z</time>
      </trkpt>
      <trkpt lat="43.619511" lon="10.631902">
        <ele>24.395033</ele>
        <time>2026-05-04T22:47:44.495Z</time>
      </trkpt>
      <trkpt lat="43.619456" lon="10.632100">
        <ele>24.315443</ele>
        <time>2026-05-04T22:47:47.356Z</time>
      </trkpt>
      <trkpt lat="43.619373" lon="10.632440">
        <ele>24.180784</ele>
        <time>2026-05-04T22:47:52.049Z</time>
      </trkpt>
      <trkpt lat="43.619284" lon="10.632793">
        <ele>24.040501</ele>
        <time>2026-05-04T22:47:56.819Z</time>
      </trkpt>
      <trkpt lat="43.619277" lon="10.632819">
        <ele>24.030090</ele>
        <time>2026-05-04T22:47:57.166Z</time>
      </trkpt>
      <trkpt lat="43.619214" lon="10.633104">
        <ele>23.918256</ele>
        <time>2026-05-04T22:48:00.673Z</time>
      </trkpt>
      <trkpt lat="43.619216" lon="10.633183">
        <ele>23.888590</ele>
        <time>2026-05-04T22:48:01.613Z</time>
      </trkpt>
      <trkpt lat="43.619253" lon="10.633270">
        <ele>23.850722</ele>
        <time>2026-05-04T22:48:02.792Z</time>
      </trkpt>
      <trkpt lat="43.619372" lon="10.633276">
        <ele>23.788991</ele>
        <time>2026-05-04T22:48:04.793Z</time>
      </trkpt>
      <trkpt lat="43.619843" lon="10.633409">
        <ele>23.676901</ele>
        <time>2026-05-04T22:48:13.191Z</time>
      </trkpt>
      <trkpt lat="43.619900" lon="10.633425">
        <ele>23.683968</ele>
        <time>2026-05-04T22:48:14.253Z</time>
      </trkpt>
      <trkpt lat="43.619799" lon="10.633786">
        <ele>23.718006</ele>
        <time>2026-05-04T22:48:19.352Z</time>
      </trkpt>
      <trkpt lat="43.619692" lon="10.634171">
        <ele>23.754276</ele>
        <time>2026-05-04T22:48:25.517Z</time>
      </trkpt>
      <trkpt lat="43.619507" lon="10.634429">
        <ele>23.786214</ele>
        <time>2026-05-04T22:48:31.209Z</time>
      </trkpt>
      <trkpt lat="43.619248" lon="10.634747">
        <ele>23.828313</ele>
        <time>2026-05-04T22:48:38.304Z</time>
      </trkpt>
      <trkpt lat="43.619193" lon="10.634815">
        <ele>23.837281</ele>
        <time>2026-05-04T22:48:39.889Z</time>
      </trkpt>
      <trkpt lat="43.618878" lon="10.635346">
        <ele>24.010265</ele>
        <time>2026-05-04T22:48:51.546Z</time>
      </trkpt>
      <trkpt lat="43.618390" lon="10.636155">
        <ele>24.471684</ele>
        <time>2026-05-04T22:49:09.172Z</time>
      </trkpt>
      <trkpt lat="43.618017" lon="10.636829">
        <ele>24.843429</ele>
        <time>2026-05-04T22:49:22.304Z</time>
      </trkpt>
      <trkpt lat="43.617922" lon="10.637063">
        <ele>24.959163</ele>
        <time>2026-05-04T22:49:26.354Z</time>
      </trkpt>
      <trkpt lat="43.617803" lon="10.637389">
        <ele>25.019953</ele>
        <time>2026-05-04T22:49:31.889Z</time>
      </trkpt>
      <trkpt lat="43.617669" lon="10.637674">
        <ele>25.076536</ele>
        <time>2026-05-04T22:49:37.089Z</time>
      </trkpt>
      <trkpt lat="43.617524" lon="10.637920">
        <ele>25.129356</ele>
        <time>2026-05-04T22:49:41.895Z</time>
      </trkpt>
      <trkpt lat="43.616900" lon="10.638740">
        <ele>25.327443</ele>
        <time>2026-05-04T22:49:59.222Z</time>
      </trkpt>
      <trkpt lat="43.616852" lon="10.638806">
        <ele>25.343020</ele>
        <time>2026-05-04T22:50:00.515Z</time>
      </trkpt>
      <trkpt lat="43.616666" lon="10.639057">
        <ele>25.384624</ele>
        <time>2026-05-04T22:50:05.460Z</time>
      </trkpt>
      <trkpt lat="43.616334" lon="10.639544">
        <ele>25.430833</ele>
        <time>2026-05-04T22:50:14.713Z</time>
      </trkpt>
      <trkpt lat="43.616009" lon="10.640154">
        <ele>25.483151</ele>
        <time>2026-05-04T22:50:25.614Z</time>
      </trkpt>
      <trkpt lat="43.615851" lon="10.640389">
        <ele>25.505305</ele>
        <time>2026-05-04T22:50:30.205Z</time>
      </trkpt>
      <trkpt lat="43.615655" lon="10.640578">
        <ele>25.528113</ele>
        <time>2026-05-04T22:50:34.954Z</time>
      </trkpt>
      <trkpt lat="43.615229" lon="10.640890">
        <ele>25.608563</ele>
        <time>2026-05-04T22:50:44.606Z</time>
      </trkpt>
      <trkpt lat="43.614859" lon="10.641148">
        <ele>25.692360</ele>
        <time>2026-05-04T22:50:52.783Z</time>
      </trkpt>
      <trkpt lat="43.614428" lon="10.641438">
        <ele>25.789287</ele>
        <time>2026-05-04T22:51:02.402Z</time>
      </trkpt>
      <trkpt lat="43.614282" lon="10.641516">
        <ele>25.820935</ele>
        <time>2026-05-04T22:51:05.550Z</time>
      </trkpt>
      <trkpt lat="43.614038" lon="10.641644">
        <ele>25.873704</ele>
        <time>2026-05-04T22:51:10.823Z</time>
      </trkpt>
      <trkpt lat="43.613532" lon="10.641831">
        <ele>26.171683</ele>
        <time>2026-05-04T22:51:21.875Z</time>
      </trkpt>
      <trkpt lat="43.613306" lon="10.641951">
        <ele>26.350102</ele>
        <time>2026-05-04T22:51:27.216Z</time>
      </trkpt>
      <trkpt lat="43.612841" lon="10.642364">
        <ele>26.757486</ele>
        <time>2026-05-04T22:51:40.247Z</time>
      </trkpt>
      <trkpt lat="43.612629" lon="10.642502">
        <ele>26.930187</ele>
        <time>2026-05-04T22:51:45.873Z</time>
      </trkpt>
      <trkpt lat="43.612025" lon="10.642697">
        <ele>27.364696</ele>
        <time>2026-05-04T22:52:00.888Z</time>
      </trkpt>
      <trkpt lat="43.611916" lon="10.642735">
        <ele>27.435466</ele>
        <time>2026-05-04T22:52:03.537Z</time>
      </trkpt>
      <trkpt lat="43.611547" lon="10.642925">
        <ele>27.683377</ele>
        <time>2026-05-04T22:52:12.190Z</time>
      </trkpt>
      <trkpt lat="43.611200" lon="10.643013">
        <ele>27.905473</ele>
        <time>2026-05-04T22:52:19.091Z</time>
      </trkpt>
      <trkpt lat="43.611148" lon="10.643021">
        <ele>27.938410</ele>
        <time>2026-05-04T22:52:20.101Z</time>
      </trkpt>
      <trkpt lat="43.610943" lon="10.643018">
        <ele>28.067469</ele>
        <time>2026-05-04T22:52:24.110Z</time>
      </trkpt>
      <trkpt lat="43.610695" lon="10.642936">
        <ele>28.228002</ele>
        <time>2026-05-04T22:52:29.745Z</time>
      </trkpt>
      <trkpt lat="43.610590" lon="10.642803">
        <ele>28.317691</ele>
        <time>2026-05-04T22:52:33.096Z</time>
      </trkpt>
      <trkpt lat="43.610426" lon="10.642722">
        <ele>28.373730</ele>
        <time>2026-05-04T22:52:37.403Z</time>
      </trkpt>
      <trkpt lat="43.610253" lon="10.642744">
        <ele>28.389559</ele>
        <time>2026-05-04T22:52:42.009Z</time>
      </trkpt>
      <trkpt lat="43.610103" lon="10.642864">
        <ele>28.405354</ele>
        <time>2026-05-04T22:52:46.792Z</time>
      </trkpt>
      <trkpt lat="43.610001" lon="10.643068">
        <ele>28.421709</ele>
        <time>2026-05-04T22:52:51.497Z</time>
      </trkpt>
      <trkpt lat="43.609974" lon="10.643313">
        <ele>28.438058</ele>
        <time>2026-05-04T22:52:55.744Z</time>
      </trkpt>
      <trkpt lat="43.610008" lon="10.643502">
        <ele>28.450906</ele>
        <time>2026-05-04T22:52:58.765Z</time>
      </trkpt>
      <trkpt lat="43.610087" lon="10.643663">
        <ele>28.463736</ele>
        <time>2026-05-04T22:53:01.614Z</time>
      </trkpt>
      <trkpt lat="43.609974" lon="10.643829">
        <ele>28.478768</ele>
        <time>2026-05-04T22:53:04.757Z</time>
      </trkpt>
      <trkpt lat="43.609933" lon="10.643890">
        <ele>28.484258</ele>
        <time>2026-05-04T22:53:05.854Z</time>
      </trkpt>
      <trkpt lat="43.609898" lon="10.643952">
        <ele>28.489445</ele>
        <time>2026-05-04T22:53:07.603Z</time>
      </trkpt>
      <trkpt lat="43.609732" lon="10.644032">
        <ele>28.505464</ele>
        <time>2026-05-04T22:53:12.929Z</time>
      </trkpt>
      <trkpt lat="43.609603" lon="10.643922">
        <ele>28.519278</ele>
        <time>2026-05-04T22:53:17.384Z</time>
      </trkpt>
      <trkpt lat="43.609362" lon="10.643212">
        <ele>27.770545</ele>
        <time>2026-05-04T22:53:32.804Z</time>
      </trkpt>
      <trkpt lat="43.609219" lon="10.643010">
        <ele>27.437901</ele>
        <time>2026-05-04T22:53:38.171Z</time>
      </trkpt>
      <trkpt lat="43.609107" lon="10.642966">
        <ele>27.248539</ele>
        <time>2026-05-04T22:53:41.159Z</time>
      </trkpt>
      <trkpt lat="43.608539" lon="10.642882">
        <ele>26.319566</ele>
        <time>2026-05-04T22:53:56.267Z</time>
      </trkpt>
      <trkpt lat="43.607360" lon="10.642708">
        <ele>26.104198</ele>
        <time>2026-05-04T22:54:34.857Z</time>
      </trkpt>
      <trkpt lat="43.605530" lon="10.642439">
        <ele>27.201194</ele>
        <time>2026-05-04T22:55:44.711Z</time>
      </trkpt>
      <trkpt lat="43.602437" lon="10.642376">
        <ele>27.540346</ele>
        <time>2026-05-04T22:57:22.173Z</time>
      </trkpt>
      <trkpt lat="43.598622" lon="10.642299">
        <ele>28.397714</ele>
        <time>2026-05-04T22:59:23.644Z</time>
      </trkpt>
      <trkpt lat="43.598235" lon="10.643181">
        <ele>29.484464</ele>
        <time>2026-05-04T22:59:45.591Z</time>
      </trkpt>
      <trkpt lat="43.597994" lon="10.643871">
        <ele>30.295571</ele>
        <time>2026-05-04T23:00:03.708Z</time>
      </trkpt>
      <trkpt lat="43.597771" lon="10.644423">
        <ele>31.374156</ele>
        <time>2026-05-04T23:00:18.115Z</time>
      </trkpt>
      <trkpt lat="43.597759" lon="10.644486">
        <ele>31.485317</ele>
        <time>2026-05-04T23:00:20.084Z</time>
      </trkpt>
      <trkpt lat="43.597784" lon="10.644580">
        <ele>31.656194</ele>
        <time>2026-05-04T23:00:23.154Z</time>
      </trkpt>
      <trkpt lat="43.598242" lon="10.645327">
        <ele>33.326357</ele>
        <time>2026-05-04T23:00:52.316Z</time>
      </trkpt>
      <trkpt lat="43.598702" lon="10.645994">
        <ele>35.457700</ele>
        <time>2026-05-04T23:01:22.145Z</time>
      </trkpt>
      <trkpt lat="43.598814" lon="10.646219">
        <ele>36.620027</ele>
        <time>2026-05-04T23:01:31.856Z</time>
      </trkpt>
      <trkpt lat="43.598830" lon="10.646308">
        <ele>37.010417</ele>
        <time>2026-05-04T23:01:35.245Z</time>
      </trkpt>
      <trkpt lat="43.598821" lon="10.646418">
        <ele>37.481687</ele>
        <time>2026-05-04T23:01:39.435Z</time>
      </trkpt>
      <trkpt lat="43.598546" lon="10.647313">
        <ele>41.620648</ele>
        <time>2026-05-04T23:02:21.659Z</time>
      </trkpt>
      <trkpt lat="43.598482" lon="10.647674">
        <ele>43.202883</ele>
        <time>2026-05-04T23:02:40.427Z</time>
      </trkpt>
      <trkpt lat="43.598478" lon="10.647864">
        <ele>44.012095</ele>
        <time>2026-05-04T23:02:50.539Z</time>
      </trkpt>
      <trkpt lat="43.598652" lon="10.648356">
        <ele>46.803302</ele>
        <time>2026-05-04T23:03:21.293Z</time>
      </trkpt>
      <trkpt lat="43.598892" lon="10.648886">
        <ele>50.447426</ele>
        <time>2026-05-04T23:03:58.245Z</time>
      </trkpt>
      <trkpt lat="43.598940" lon="10.649064">
        <ele>51.554739</ele>
        <time>2026-05-04T23:04:09.301Z</time>
      </trkpt>
      <trkpt lat="43.598958" lon="10.649336">
        <ele>53.147051</ele>
        <time>2026-05-04T23:04:24.770Z</time>
      </trkpt>
      <trkpt lat="43.598918" lon="10.649584">
        <ele>54.628265</ele>
        <time>2026-05-04T23:04:38.630Z</time>
      </trkpt>
      <trkpt lat="43.598843" lon="10.649792">
        <ele>55.982859</ele>
        <time>2026-05-04T23:04:50.617Z</time>
      </trkpt>
      <trkpt lat="43.598785" lon="10.649895">
        <ele>56.743497</ele>
        <time>2026-05-04T23:04:57.051Z</time>
      </trkpt>
      <trkpt lat="43.598759" lon="10.649923">
        <ele>57.008928</ele>
        <time>2026-05-04T23:04:59.257Z</time>
      </trkpt>
      <trkpt lat="43.598622" lon="10.650076">
        <ele>58.427350</ele>
        <time>2026-05-04T23:05:10.668Z</time>
      </trkpt>
      <trkpt lat="43.598033" lon="10.650300">
        <ele>61.036788</ele>
        <time>2026-05-04T23:05:45.501Z</time>
      </trkpt>
      <trkpt lat="43.597833" lon="10.650443">
        <ele>61.739266</ele>
        <time>2026-05-04T23:05:56.476Z</time>
      </trkpt>
      <trkpt lat="43.597754" lon="10.650585">
        <ele>62.143737</ele>
        <time>2026-05-04T23:06:02.303Z</time>
      </trkpt>
      <trkpt lat="43.596956" lon="10.652611">
        <ele>65.803986</ele>
        <time>2026-05-04T23:07:09.817Z</time>
      </trkpt>
      <trkpt lat="43.596695" lon="10.652710">
        <ele>66.044563</ele>
        <time>2026-05-04T23:07:19.842Z</time>
      </trkpt>
      <trkpt lat="43.596508" lon="10.652842">
        <ele>66.231233</ele>
        <time>2026-05-04T23:07:27.326Z</time>
      </trkpt>
      <trkpt lat="43.596397" lon="10.652986">
        <ele>66.366605</ele>
        <time>2026-05-04T23:07:32.598Z</time>
      </trkpt>
      <trkpt lat="43.596189" lon="10.653534">
        <ele>66.764865</ele>
        <time>2026-05-04T23:07:47.288Z</time>
      </trkpt>
      <trkpt lat="43.595457" lon="10.654025">
        <ele>65.823126</ele>
        <time>2026-05-04T23:08:11.717Z</time>
      </trkpt>
      <trkpt lat="43.595150" lon="10.654231">
        <ele>65.407880</ele>
        <time>2026-05-04T23:08:21.473Z</time>
      </trkpt>
      <trkpt lat="43.594396" lon="10.654475">
        <ele>64.354603</ele>
        <time>2026-05-04T23:08:42.905Z</time>
      </trkpt>
      <trkpt lat="43.593652" lon="10.654650">
        <ele>62.659641</ele>
        <time>2026-05-04T23:09:02.632Z</time>
      </trkpt>
      <trkpt lat="43.593573" lon="10.654704">
        <ele>62.461670</ele>
        <time>2026-05-04T23:09:04.926Z</time>
      </trkpt>
      <trkpt lat="43.593432" lon="10.654801">
        <ele>62.107881</ele>
        <time>2026-05-04T23:09:09.053Z</time>
      </trkpt>
      <trkpt lat="43.593063" lon="10.655197">
        <ele>61.058293</ele>
        <time>2026-05-04T23:09:21.534Z</time>
      </trkpt>
      <trkpt lat="43.592664" lon="10.656137">
        <ele>61.410647</ele>
        <time>2026-05-04T23:09:44.523Z</time>
      </trkpt>
      <trkpt lat="43.592465" lon="10.656699">
        <ele>62.093190</ele>
        <time>2026-05-04T23:10:02.947Z</time>
      </trkpt>
      <trkpt lat="43.592238" lon="10.657070">
        <ele>62.623091</ele>
        <time>2026-05-04T23:10:20.145Z</time>
      </trkpt>
      <trkpt lat="43.592121" lon="10.657334">
        <ele>62.960783</ele>
        <time>2026-05-04T23:10:31.879Z</time>
      </trkpt>
      <trkpt lat="43.592037" lon="10.657643">
        <ele>63.277308</ele>
        <time>2026-05-04T23:10:44.440Z</time>
      </trkpt>
      <trkpt lat="43.591911" lon="10.658347">
        <ele>63.425397</ele>
        <time>2026-05-04T23:11:09.463Z</time>
      </trkpt>
      <trkpt lat="43.591867" lon="10.658524">
        <ele>63.463612</ele>
        <time>2026-05-04T23:11:15.062Z</time>
      </trkpt>
      <trkpt lat="43.591777" lon="10.658738">
        <ele>63.514147</ele>
        <time>2026-05-04T23:11:21.859Z</time>
      </trkpt>
      <trkpt lat="43.591628" lon="10.658916">
        <ele>63.569701</ele>
        <time>2026-05-04T23:11:28.401Z</time>
      </trkpt>
      <trkpt lat="43.591424" lon="10.659082">
        <ele>63.636466</ele>
        <time>2026-05-04T23:11:35.371Z</time>
      </trkpt>
      <trkpt lat="43.590727" lon="10.659545">
        <ele>62.888775</ele>
        <time>2026-05-04T23:11:55.332Z</time>
      </trkpt>
      <trkpt lat="43.590408" lon="10.659813">
        <ele>61.725282</ele>
        <time>2026-05-04T23:12:04.468Z</time>
      </trkpt>
      <trkpt lat="43.589769" lon="10.660353">
        <ele>59.390931</ele>
        <time>2026-05-04T23:12:23.330Z</time>
      </trkpt>
      <trkpt lat="43.589035" lon="10.661217">
        <ele>56.721330</ele>
        <time>2026-05-04T23:12:50.591Z</time>
      </trkpt>
      <trkpt lat="43.588443" lon="10.662262">
        <ele>54.290631</ele>
        <time>2026-05-04T23:13:16.644Z</time>
      </trkpt>
      <trkpt lat="43.588295" lon="10.662518">
        <ele>53.690501</ele>
        <time>2026-05-04T23:13:20.164Z</time>
      </trkpt>
      <trkpt lat="43.588235" lon="10.662453">
        <ele>53.428271</ele>
        <time>2026-05-04T23:13:22.047Z</time>
      </trkpt>
      <trkpt lat="43.587954" lon="10.662150">
        <ele>52.017391</ele>
        <time>2026-05-04T23:13:30.759Z</time>
      </trkpt>
      <trkpt lat="43.587883" lon="10.662105">
        <ele>51.708250</ele>
        <time>2026-05-04T23:13:32.635Z</time>
      </trkpt>
      <trkpt lat="43.587810" lon="10.662107">
        <ele>51.419329</ele>
        <time>2026-05-04T23:13:34.382Z</time>
      </trkpt>
      <trkpt lat="43.587465" lon="10.662384">
        <ele>49.840074</ele>
        <time>2026-05-04T23:13:43.861Z</time>
      </trkpt>
      <trkpt lat="43.587224" lon="10.662454">
        <ele>48.865549</ele>
        <time>2026-05-04T23:13:49.753Z</time>
      </trkpt>
      <trkpt lat="43.587160" lon="10.662422">
        <ele>48.596201</ele>
        <time>2026-05-04T23:13:51.406Z</time>
      </trkpt>
      <trkpt lat="43.587041" lon="10.662294">
        <ele>47.999266</ele>
        <time>2026-05-04T23:13:55.151Z</time>
      </trkpt>
      <trkpt lat="43.586824" lon="10.661995">
        <ele>46.786100</ele>
        <time>2026-05-04T23:14:03.276Z</time>
      </trkpt>
      <trkpt lat="43.586702" lon="10.661881">
        <ele>46.407714</ele>
        <time>2026-05-04T23:14:07.395Z</time>
      </trkpt>
      <trkpt lat="43.586625" lon="10.661760">
        <ele>46.260922</ele>
        <time>2026-05-04T23:14:10.737Z</time>
      </trkpt>
      <trkpt lat="43.586540" lon="10.661551">
        <ele>46.042470</ele>
        <time>2026-05-04T23:14:15.755Z</time>
      </trkpt>
      <trkpt lat="43.586389" lon="10.661447">
        <ele>45.830144</ele>
        <time>2026-05-04T23:14:20.693Z</time>
      </trkpt>
      <trkpt lat="43.586239" lon="10.661415">
        <ele>45.639168</ele>
        <time>2026-05-04T23:14:25.115Z</time>
      </trkpt>
      <trkpt lat="43.585776" lon="10.661452">
        <ele>45.055625</ele>
        <time>2026-05-04T23:14:38.536Z</time>
      </trkpt>
      <trkpt lat="43.585426" lon="10.660097">
        <ele>44.344532</ele>
        <time>2026-05-04T23:15:09.419Z</time>
      </trkpt>
      <trkpt lat="43.585298" lon="10.659367">
        <ele>44.489031</ele>
        <time>2026-05-04T23:15:26.090Z</time>
      </trkpt>
      <trkpt lat="43.585285" lon="10.659288">
        <ele>44.504616</ele>
        <time>2026-05-04T23:15:27.979Z</time>
      </trkpt>
      <trkpt lat="43.584310" lon="10.659576">
        <ele>45.382897</ele>
        <time>2026-05-04T23:16:05.075Z</time>
      </trkpt>
      <trkpt lat="43.584050" lon="10.659839">
        <ele>46.482972</ele>
        <time>2026-05-04T23:16:18.437Z</time>
      </trkpt>
      <trkpt lat="43.583823" lon="10.660015">
        <ele>47.371533</ele>
        <time>2026-05-04T23:16:29.970Z</time>
      </trkpt>
      <trkpt lat="43.583134" lon="10.659882">
        <ele>49.745929</ele>
        <time>2026-05-04T23:17:06.154Z</time>
      </trkpt>
      <trkpt lat="43.582859" lon="10.659862">
        <ele>50.685790</ele>
        <time>2026-05-04T23:17:22.263Z</time>
      </trkpt>
      <trkpt lat="43.582675" lon="10.659962">
        <ele>51.754603</ele>
        <time>2026-05-04T23:17:34.276Z</time>
      </trkpt>
      <trkpt lat="43.582188" lon="10.660002">
        <ele>54.720125</ele>
        <time>2026-05-04T23:18:05.306Z</time>
      </trkpt>
      <trkpt lat="43.581022" lon="10.660691">
        <ele>62.493412</ele>
        <time>2026-05-04T23:19:25.826Z</time>
      </trkpt>
      <trkpt lat="43.580937" lon="10.660741">
        <ele>63.110829</ele>
        <time>2026-05-04T23:19:31.338Z</time>
      </trkpt>
      <trkpt lat="43.580759" lon="10.660871">
        <ele>64.456494</ele>
        <time>2026-05-04T23:19:43.347Z</time>
      </trkpt>
      <trkpt lat="43.580219" lon="10.661001">
        <ele>68.119419</ele>
        <time>2026-05-04T23:20:16.981Z</time>
      </trkpt>
      <trkpt lat="43.579911" lon="10.661147">
        <ele>70.295545</ele>
        <time>2026-05-04T23:20:37.403Z</time>
      </trkpt>
      <trkpt lat="43.579604" lon="10.661247">
        <ele>72.403362</ele>
        <time>2026-05-04T23:20:58.704Z</time>
      </trkpt>
      <trkpt lat="43.579380" lon="10.661137">
        <ele>74.017585</ele>
        <time>2026-05-04T23:21:16.234Z</time>
      </trkpt>
      <trkpt lat="43.579173" lon="10.661104">
        <ele>75.603567</ele>
        <time>2026-05-04T23:21:32.183Z</time>
      </trkpt>
      <trkpt lat="43.579006" lon="10.661180">
        <ele>76.941923</ele>
        <time>2026-05-04T23:21:46.061Z</time>
      </trkpt>
      <trkpt lat="43.578896" lon="10.661267">
        <ele>77.906835</ele>
        <time>2026-05-04T23:21:56.064Z</time>
      </trkpt>
      <trkpt lat="43.578478" lon="10.661400">
        <ele>81.171721</ele>
        <time>2026-05-04T23:22:29.572Z</time>
      </trkpt>
      <trkpt lat="43.578039" lon="10.661607">
        <ele>84.702579</ele>
        <time>2026-05-04T23:23:02.800Z</time>
      </trkpt>
      <trkpt lat="43.577771" lon="10.661790">
        <ele>86.978295</ele>
        <time>2026-05-04T23:23:22.408Z</time>
      </trkpt>
      <trkpt lat="43.577398" lon="10.661986">
        <ele>87.850172</ele>
        <time>2026-05-04T23:23:43.995Z</time>
      </trkpt>
      <trkpt lat="43.576967" lon="10.662100">
        <ele>88.316749</ele>
        <time>2026-05-04T23:24:01.031Z</time>
      </trkpt>
      <trkpt lat="43.576691" lon="10.662003">
        <ele>88.619554</ele>
        <time>2026-05-04T23:24:10.013Z</time>
      </trkpt>
      <trkpt lat="43.576655" lon="10.662003">
        <ele>88.657829</ele>
        <time>2026-05-04T23:24:11.091Z</time>
      </trkpt>
      <trkpt lat="43.576422" lon="10.662004">
        <ele>88.905556</ele>
        <time>2026-05-04T23:24:18.054Z</time>
      </trkpt>
      <trkpt lat="43.576584" lon="10.661773">
        <ele>89.153192</ele>
        <time>2026-05-04T23:24:22.189Z</time>
      </trkpt>
      <trkpt lat="43.576666" lon="10.661608">
        <ele>89.307310</ele>
        <time>2026-05-04T23:24:24.766Z</time>
      </trkpt>
      <trkpt lat="43.577080" lon="10.660588">
        <ele>87.572449</ele>
        <time>2026-05-04T23:24:38.718Z</time>
      </trkpt>
      <trkpt lat="43.577154" lon="10.660406">
        <ele>87.201671</ele>
        <time>2026-05-04T23:24:41.191Z</time>
      </trkpt>
      <trkpt lat="43.577215" lon="10.660249">
        <ele>86.885168</ele>
        <time>2026-05-04T23:24:43.324Z</time>
      </trkpt>
      <trkpt lat="43.577355" lon="10.660006">
        <ele>86.333590</ele>
        <time>2026-05-04T23:24:46.968Z</time>
      </trkpt>
      <trkpt lat="43.577563" lon="10.659762">
        <ele>85.664198</ele>
        <time>2026-05-04T23:24:51.335Z</time>
      </trkpt>
      <trkpt lat="43.577607" lon="10.659748">
        <ele>85.553467</ele>
        <time>2026-05-04T23:24:52.037Z</time>
      </trkpt>
      <trkpt lat="43.577786" lon="10.659692">
        <ele>85.103372</ele>
        <time>2026-05-04T23:24:54.899Z</time>
      </trkpt>
      <trkpt lat="43.578499" lon="10.659748">
        <ele>80.709338</ele>
        <time>2026-05-04T23:25:05.071Z</time>
      </trkpt>
      <trkpt lat="43.578784" lon="10.659557">
        <ele>78.686520</ele>
        <time>2026-05-04T23:25:12.400Z</time>
      </trkpt>
      <trkpt lat="43.578836" lon="10.659501">
        <ele>78.265419</ele>
        <time>2026-05-04T23:25:13.897Z</time>
      </trkpt>
      <trkpt lat="43.578932" lon="10.659399">
        <ele>77.491923</ele>
        <time>2026-05-04T23:25:16.641Z</time>
      </trkpt>
      <trkpt lat="43.579162" lon="10.657688">
        <ele>69.678961</ele>
        <time>2026-05-04T23:25:44.382Z</time>
      </trkpt>
      <trkpt lat="43.579403" lon="10.656890">
        <ele>65.911880</ele>
        <time>2026-05-04T23:25:58.803Z</time>
      </trkpt>
      <trkpt lat="43.579440" lon="10.656567">
        <ele>64.487029</ele>
        <time>2026-05-04T23:26:04.665Z</time>
      </trkpt>
      <trkpt lat="43.579268" lon="10.656094">
        <ele>62.596731</ele>
        <time>2026-05-04T23:26:14.825Z</time>
      </trkpt>
      <trkpt lat="43.579210" lon="10.655779">
        <ele>62.320366</ele>
        <time>2026-05-04T23:26:21.535Z</time>
      </trkpt>
      <trkpt lat="43.579195" lon="10.655143">
        <ele>61.779281</ele>
        <time>2026-05-04T23:26:35.677Z</time>
      </trkpt>
      <trkpt lat="43.579346" lon="10.654662">
        <ele>61.333529</ele>
        <time>2026-05-04T23:26:47.966Z</time>
      </trkpt>
      <trkpt lat="43.579384" lon="10.654540">
        <ele>61.220609</ele>
        <time>2026-05-04T23:26:51.003Z</time>
      </trkpt>
      <trkpt lat="43.579549" lon="10.654171">
        <ele>60.851885</ele>
        <time>2026-05-04T23:27:00.617Z</time>
      </trkpt>
      <trkpt lat="43.579749" lon="10.654030">
        <ele>60.588286</ele>
        <time>2026-05-04T23:27:07.104Z</time>
      </trkpt>
      <trkpt lat="43.580121" lon="10.653702">
        <ele>58.948752</ele>
        <time>2026-05-04T23:27:19.169Z</time>
      </trkpt>
      <trkpt lat="43.581038" lon="10.652841">
        <ele>54.818796</ele>
        <time>2026-05-04T23:27:46.868Z</time>
      </trkpt>
      <trkpt lat="43.581326" lon="10.652516">
        <ele>53.227060</ele>
        <time>2026-05-04T23:27:55.587Z</time>
      </trkpt>
      <trkpt lat="43.581531" lon="10.652191">
        <ele>51.536578</ele>
        <time>2026-05-04T23:28:02.781Z</time>
      </trkpt>
      <trkpt lat="43.581595" lon="10.651903">
        <ele>50.354862</ele>
        <time>2026-05-04T23:28:07.769Z</time>
      </trkpt>
      <trkpt lat="43.581623" lon="10.651777">
        <ele>49.837861</ele>
        <time>2026-05-04T23:28:09.947Z</time>
      </trkpt>
      <trkpt lat="43.581462" lon="10.651454">
        <ele>48.299831</ele>
        <time>2026-05-04T23:28:13.781Z</time>
      </trkpt>
      <trkpt lat="43.581144" lon="10.650697">
        <ele>44.867112</ele>
        <time>2026-05-04T23:28:22.562Z</time>
      </trkpt>
      <trkpt lat="43.580894" lon="10.649850">
        <ele>44.798621</ele>
        <time>2026-05-04T23:28:33.148Z</time>
      </trkpt>
      <trkpt lat="43.580595" lon="10.648756">
        <ele>45.838653</ele>
        <time>2026-05-04T23:28:58.372Z</time>
      </trkpt>
      <trkpt lat="43.579913" lon="10.646257">
        <ele>54.641544</ele>
        <time>2026-05-04T23:30:31.385Z</time>
      </trkpt>
      <trkpt lat="43.579590" lon="10.645801">
        <ele>56.327123</ele>
        <time>2026-05-04T23:30:55.750Z</time>
      </trkpt>
      <trkpt lat="43.579453" lon="10.645491">
        <ele>56.505323</ele>
        <time>2026-05-04T23:31:08.425Z</time>
      </trkpt>
      <trkpt lat="43.579314" lon="10.645071">
        <ele>56.731920</ele>
        <time>2026-05-04T23:31:21.149Z</time>
      </trkpt>
      <trkpt lat="43.579111" lon="10.644742">
        <ele>56.943997</ele>
        <time>2026-05-04T23:31:29.429Z</time>
      </trkpt>
      <trkpt lat="43.578955" lon="10.644569">
        <ele>57.079552</ele>
        <time>2026-05-04T23:31:33.169Z</time>
      </trkpt>
      <trkpt lat="43.578950" lon="10.644322">
        <ele>57.200810</ele>
        <time>2026-05-04T23:31:35.828Z</time>
      </trkpt>
      <trkpt lat="43.578878" lon="10.643788">
        <ele>56.984117</ele>
        <time>2026-05-04T23:31:41.059Z</time>
      </trkpt>
      <trkpt lat="43.578831" lon="10.643561">
        <ele>55.736337</ele>
        <time>2026-05-04T23:31:43.225Z</time>
      </trkpt>
      <trkpt lat="43.578717" lon="10.643200">
        <ele>53.654978</ele>
        <time>2026-05-04T23:31:46.755Z</time>
      </trkpt>
      <trkpt lat="43.578518" lon="10.642844">
        <ele>51.278418</ele>
        <time>2026-05-04T23:31:50.697Z</time>
      </trkpt>
      <trkpt lat="43.578310" lon="10.642599">
        <ele>49.283537</ele>
        <time>2026-05-04T23:31:54.015Z</time>
      </trkpt>
      <trkpt lat="43.578086" lon="10.642454">
        <ele>47.478532</ele>
        <time>2026-05-04T23:31:57.045Z</time>
      </trkpt>
      <trkpt lat="43.577014" lon="10.641947">
        <ele>41.321180</ele>
        <time>2026-05-04T23:32:11.498Z</time>
      </trkpt>
      <trkpt lat="43.576774" lon="10.641761">
        <ele>40.145075</ele>
        <time>2026-05-04T23:32:15.275Z</time>
      </trkpt>
      <trkpt lat="43.576582" lon="10.641538">
        <ele>39.072867</ele>
        <time>2026-05-04T23:32:18.831Z</time>
      </trkpt>
      <trkpt lat="43.576388" lon="10.641193">
        <ele>37.720913</ele>
        <time>2026-05-04T23:32:23.470Z</time>
      </trkpt>
      <trkpt lat="43.576266" lon="10.640823">
        <ele>36.616728</ele>
        <time>2026-05-04T23:32:28.081Z</time>
      </trkpt>
      <trkpt lat="43.576227" lon="10.640587">
        <ele>36.609195</ele>
        <time>2026-05-04T23:32:31.067Z</time>
      </trkpt>
      <trkpt lat="43.576189" lon="10.639920">
        <ele>36.588372</ele>
        <time>2026-05-04T23:32:40.708Z</time>
      </trkpt>
      <trkpt lat="43.576181" lon="10.639788">
        <ele>36.584250</ele>
        <time>2026-05-04T23:32:43.042Z</time>
      </trkpt>
      <trkpt lat="43.576176" lon="10.639677">
        <ele>36.580789</ele>
        <time>2026-05-04T23:32:44.865Z</time>
      </trkpt>
      <trkpt lat="43.576127" lon="10.638816">
        <ele>36.553910</ele>
        <time>2026-05-04T23:32:58.486Z</time>
      </trkpt>
      <trkpt lat="43.576026" lon="10.638353">
        <ele>36.534033</ele>
        <time>2026-05-04T23:33:05.852Z</time>
      </trkpt>
      <trkpt lat="43.575930" lon="10.638154">
        <ele>36.510003</ele>
        <time>2026-05-04T23:33:09.423Z</time>
      </trkpt>
      <trkpt lat="43.575789" lon="10.637968">
        <ele>36.482943</ele>
        <time>2026-05-04T23:33:13.306Z</time>
      </trkpt>
      <trkpt lat="43.575636" lon="10.637813">
        <ele>36.456612</ele>
        <time>2026-05-04T23:33:16.928Z</time>
      </trkpt>
      <trkpt lat="43.575430" lon="10.637683">
        <ele>36.425186</ele>
        <time>2026-05-04T23:33:21.144Z</time>
      </trkpt>
      <trkpt lat="43.575216" lon="10.637611">
        <ele>36.394626</ele>
        <time>2026-05-04T23:33:25.035Z</time>
      </trkpt>
      <trkpt lat="43.574891" lon="10.637553">
        <ele>36.349160</ele>
        <time>2026-05-04T23:33:30.616Z</time>
      </trkpt>
      <trkpt lat="43.573529" lon="10.637346">
        <ele>36.500637</ele>
        <time>2026-05-04T23:33:57.560Z</time>
      </trkpt>
      <trkpt lat="43.573278" lon="10.637227">
        <ele>36.558792</ele>
        <time>2026-05-04T23:34:03.779Z</time>
      </trkpt>
      <trkpt lat="43.573146" lon="10.637119">
        <ele>36.592417</ele>
        <time>2026-05-04T23:34:07.380Z</time>
      </trkpt>
      <trkpt lat="43.572972" lon="10.636913">
        <ele>36.642649</ele>
        <time>2026-05-04T23:34:12.365Z</time>
      </trkpt>
      <trkpt lat="43.572827" lon="10.636639">
        <ele>36.662666</ele>
        <time>2026-05-04T23:34:17.346Z</time>
      </trkpt>
      <trkpt lat="43.572822" lon="10.636619">
        <ele>36.655599</ele>
        <time>2026-05-04T23:34:17.638Z</time>
      </trkpt>
      <trkpt lat="43.572701" lon="10.636189">
        <ele>36.501509</ele>
        <time>2026-05-04T23:34:23.836Z</time>
      </trkpt>
      <trkpt lat="43.572675" lon="10.635913">
        <ele>36.408538</ele>
        <time>2026-05-04T23:34:27.406Z</time>
      </trkpt>
      <trkpt lat="43.572685" lon="10.635766">
        <ele>36.359218</ele>
        <time>2026-05-04T23:34:29.221Z</time>
      </trkpt>
      <trkpt lat="43.572891" lon="10.634442">
        <ele>35.906867</ele>
        <time>2026-05-04T23:34:46.012Z</time>
      </trkpt>
      <trkpt lat="43.572910" lon="10.634324">
        <ele>35.866488</ele>
        <time>2026-05-04T23:34:47.462Z</time>
      </trkpt>
      <trkpt lat="43.571093" lon="10.633826">
        <ele>36.073752</ele>
        <time>2026-05-04T23:35:25.113Z</time>
      </trkpt>
      <trkpt lat="43.570726" lon="10.633726">
        <ele>36.265996</ele>
        <time>2026-05-04T23:35:33.314Z</time>
      </trkpt>
      <trkpt lat="43.570324" lon="10.633684">
        <ele>36.473179</ele>
        <time>2026-05-04T23:35:41.982Z</time>
      </trkpt>
      <trkpt lat="43.568283" lon="10.633634">
        <ele>37.821363</ele>
        <time>2026-05-04T23:36:26.722Z</time>
      </trkpt>
      <trkpt lat="43.567573" lon="10.633813">
        <ele>38.397561</ele>
        <time>2026-05-04T23:36:44.488Z</time>
      </trkpt>
      <trkpt lat="43.566932" lon="10.633971">
        <ele>38.964667</ele>
        <time>2026-05-04T23:37:01.155Z</time>
      </trkpt>
      <trkpt lat="43.566647" lon="10.634042">
        <ele>39.217743</ele>
        <time>2026-05-04T23:37:08.352Z</time>
      </trkpt>
      <trkpt lat="43.566608" lon="10.633974">
        <ele>39.272654</ele>
        <time>2026-05-04T23:37:09.918Z</time>
      </trkpt>
      <trkpt lat="43.566514" lon="10.633918">
        <ele>39.362124</ele>
        <time>2026-05-04T23:37:12.490Z</time>
      </trkpt>
      <trkpt lat="43.565988" lon="10.633972">
        <ele>39.823045</ele>
        <time>2026-05-04T23:37:24.964Z</time>
      </trkpt>
      <trkpt lat="43.565859" lon="10.633953">
        <ele>39.936413</ele>
        <time>2026-05-04T23:37:27.862Z</time>
      </trkpt>
      <trkpt lat="43.565792" lon="10.633942">
        <ele>39.989678</ele>
        <time>2026-05-04T23:37:29.362Z</time>
      </trkpt>
      <trkpt lat="43.565425" lon="10.633740">
        <ele>40.003660</ele>
        <time>2026-05-04T23:37:37.664Z</time>
      </trkpt>
      <trkpt lat="43.565191" lon="10.633475">
        <ele>40.014372</ele>
        <time>2026-05-04T23:37:43.670Z</time>
      </trkpt>
      <trkpt lat="43.564833" lon="10.633270">
        <ele>40.028088</ele>
        <time>2026-05-04T23:37:51.234Z</time>
      </trkpt>
      <trkpt lat="43.564731" lon="10.633260">
        <ele>40.031707</ele>
        <time>2026-05-04T23:37:53.246Z</time>
      </trkpt>
      <trkpt lat="43.564405" lon="10.633225">
        <ele>40.043278</ele>
        <time>2026-05-04T23:37:59.721Z</time>
      </trkpt>
      <trkpt lat="43.564392" lon="10.633252">
        <ele>40.044109</ele>
        <time>2026-05-04T23:38:00.197Z</time>
      </trkpt>
      <trkpt lat="43.564068" lon="10.633213">
        <ele>40.084262</ele>
        <time>2026-05-04T23:38:10.558Z</time>
      </trkpt>
      <trkpt lat="43.563659" lon="10.633054">
        <ele>40.269490</ele>
        <time>2026-05-04T23:38:24.648Z</time>
      </trkpt>
      <trkpt lat="43.563367" lon="10.632959">
        <ele>40.400266</ele>
        <time>2026-05-04T23:38:34.922Z</time>
      </trkpt>
      <trkpt lat="43.562567" lon="10.632699">
        <ele>40.758538</ele>
        <time>2026-05-04T23:39:03.765Z</time>
      </trkpt>
      <trkpt lat="43.562342" lon="10.632579">
        <ele>40.848814</ele>
        <time>2026-05-04T23:39:12.096Z</time>
      </trkpt>
      <trkpt lat="43.562051" lon="10.632422">
        <ele>40.908699</ele>
        <time>2026-05-04T23:39:22.730Z</time>
      </trkpt>
      <trkpt lat="43.561469" lon="10.632237">
        <ele>41.023169</ele>
        <time>2026-05-04T23:39:42.482Z</time>
      </trkpt>
      <trkpt lat="43.561381" lon="10.632200">
        <ele>41.040801</ele>
        <time>2026-05-04T23:39:45.442Z</time>
      </trkpt>
      <trkpt lat="43.560880" lon="10.631992">
        <ele>41.141076</ele>
        <time>2026-05-04T23:40:02.171Z</time>
      </trkpt>
      <trkpt lat="43.560685" lon="10.631960">
        <ele>41.178714</ele>
        <time>2026-05-04T23:40:08.364Z</time>
      </trkpt>
      <trkpt lat="43.560207" lon="10.632081">
        <ele>41.042894</ele>
        <time>2026-05-04T23:40:23.689Z</time>
      </trkpt>
      <trkpt lat="43.559974" lon="10.632107">
        <ele>40.973690</ele>
        <time>2026-05-04T23:40:30.962Z</time>
      </trkpt>
      <trkpt lat="43.559835" lon="10.632122">
        <ele>40.932413</ele>
        <time>2026-05-04T23:40:35.241Z</time>
      </trkpt>
      <trkpt lat="43.559562" lon="10.632464">
        <ele>40.823256</ele>
        <time>2026-05-04T23:40:46.380Z</time>
      </trkpt>
      <trkpt lat="43.559322" lon="10.632626">
        <ele>40.744160</ele>
        <time>2026-05-04T23:40:54.408Z</time>
      </trkpt>
      <trkpt lat="43.559135" lon="10.632664">
        <ele>40.688202</ele>
        <time>2026-05-04T23:41:00.133Z</time>
      </trkpt>
      <trkpt lat="43.558957" lon="10.632696">
        <ele>40.673452</ele>
        <time>2026-05-04T23:41:05.635Z</time>
      </trkpt>
      <trkpt lat="43.558460" lon="10.632626">
        <ele>40.921706</ele>
        <time>2026-05-04T23:41:21.336Z</time>
      </trkpt>
      <trkpt lat="43.558303" lon="10.632521">
        <ele>41.008403</ele>
        <time>2026-05-04T23:41:26.993Z</time>
      </trkpt>
      <trkpt lat="43.558127" lon="10.632527">
        <ele>41.095889</ele>
        <time>2026-05-04T23:41:32.793Z</time>
      </trkpt>
      <trkpt lat="43.557667" lon="10.632664">
        <ele>41.329737</ele>
        <time>2026-05-04T23:41:49.269Z</time>
      </trkpt>
      <trkpt lat="43.556785" lon="10.633216">
        <ele>42.756956</ele>
        <time>2026-05-04T23:42:27.352Z</time>
      </trkpt>
      <trkpt lat="43.556465" lon="10.633585">
        <ele>43.696151</ele>
        <time>2026-05-04T23:42:44.942Z</time>
      </trkpt>
      <trkpt lat="43.556331" lon="10.633707">
        <ele>44.057708</ele>
        <time>2026-05-04T23:42:51.983Z</time>
      </trkpt>
      <trkpt lat="43.555718" lon="10.634066">
        <ele>45.557462</ele>
        <time>2026-05-04T23:43:21.551Z</time>
      </trkpt>
      <trkpt lat="43.555378" lon="10.634314">
        <ele>47.676853</ele>
        <time>2026-05-04T23:43:40.818Z</time>
      </trkpt>
      <trkpt lat="43.555485" lon="10.634571">
        <ele>48.891392</ele>
        <time>2026-05-04T23:43:49.671Z</time>
      </trkpt>
      <trkpt lat="43.555213" lon="10.634644">
        <ele>50.458193</ele>
        <time>2026-05-04T23:44:05.273Z</time>
      </trkpt>
      <trkpt lat="43.554726" lon="10.634609">
        <ele>53.215589</ele>
        <time>2026-05-04T23:44:35.676Z</time>
      </trkpt>
      <trkpt lat="43.554450" lon="10.634608">
        <ele>54.776192</ele>
        <time>2026-05-04T23:44:54.398Z</time>
      </trkpt>
      <trkpt lat="43.554220" lon="10.634655">
        <ele>56.341043</ele>
        <time>2026-05-04T23:45:11.386Z</time>
      </trkpt>
      <trkpt lat="43.554173" lon="10.634702">
        <ele>56.920523</ele>
        <time>2026-05-04T23:45:15.813Z</time>
      </trkpt>
      <trkpt lat="43.553622" lon="10.634638">
        <ele>62.440776</ele>
        <time>2026-05-04T23:45:59.692Z</time>
      </trkpt>
      <trkpt lat="43.553035" lon="10.634954">
        <ele>68.731182</ele>
        <time>2026-05-04T23:46:53.173Z</time>
      </trkpt>
      <trkpt lat="43.552584" lon="10.635133">
        <ele>73.416216</ele>
        <time>2026-05-04T23:47:34.878Z</time>
      </trkpt>
      <trkpt lat="43.552451" lon="10.635205">
        <ele>74.641990</ele>
        <time>2026-05-04T23:47:47.795Z</time>
      </trkpt>
      <trkpt lat="43.552143" lon="10.635370">
        <ele>77.350930</ele>
        <time>2026-05-04T23:48:16.642Z</time>
      </trkpt>
      <trkpt lat="43.551601" lon="10.635965">
        <ele>83.029689</ele>
        <time>2026-05-04T23:49:10.101Z</time>
      </trkpt>
      <trkpt lat="43.551570" lon="10.636099">
        <ele>83.865531</ele>
        <time>2026-05-04T23:49:17.047Z</time>
      </trkpt>
      <trkpt lat="43.551382" lon="10.636537">
        <ele>86.890430</ele>
        <time>2026-05-04T23:49:40.513Z</time>
      </trkpt>
      <trkpt lat="43.551353" lon="10.636585">
        <ele>87.261765</ele>
        <time>2026-05-04T23:49:43.157Z</time>
      </trkpt>
      <trkpt lat="43.551014" lon="10.637144">
        <ele>89.605141</ele>
        <time>2026-05-04T23:50:10.659Z</time>
      </trkpt>
      <trkpt lat="43.550128" lon="10.637190">
        <ele>92.251112</ele>
        <time>2026-05-04T23:50:51.490Z</time>
      </trkpt>
      <trkpt lat="43.549520" lon="10.637384">
        <ele>94.123255</ele>
        <time>2026-05-04T23:51:17.540Z</time>
      </trkpt>
      <trkpt lat="43.549210" lon="10.637445">
        <ele>95.090648</ele>
        <time>2026-05-04T23:51:28.407Z</time>
      </trkpt>
      <trkpt lat="43.549011" lon="10.637448">
        <ele>95.705468</ele>
        <time>2026-05-04T23:51:35.664Z</time>
      </trkpt>
      <trkpt lat="43.548831" lon="10.637563">
        <ele>96.318279</ele>
        <time>2026-05-04T23:51:43.317Z</time>
      </trkpt>
      <trkpt lat="43.548466" lon="10.637794">
        <ele>97.558867</ele>
        <time>2026-05-04T23:52:01.475Z</time>
      </trkpt>
      <trkpt lat="43.548317" lon="10.638004">
        <ele>98.216893</ele>
        <time>2026-05-04T23:52:12.013Z</time>
      </trkpt>
      <trkpt lat="43.548282" lon="10.638249">
        <ele>98.776039</ele>
        <time>2026-05-04T23:52:21.698Z</time>
      </trkpt>
      <trkpt lat="43.548255" lon="10.638556">
        <ele>99.599191</ele>
        <time>2026-05-04T23:52:34.823Z</time>
      </trkpt>
      <trkpt lat="43.548257" lon="10.638912">
        <ele>101.756370</ele>
        <time>2026-05-04T23:52:52.091Z</time>
      </trkpt>
      <trkpt lat="43.548383" lon="10.639285">
        <ele>104.249904</ele>
        <time>2026-05-04T23:53:14.773Z</time>
      </trkpt>
      <trkpt lat="43.548392" lon="10.639572">
        <ele>105.990549</ele>
        <time>2026-05-04T23:53:32.389Z</time>
      </trkpt>
      <trkpt lat="43.548357" lon="10.639781">
        <ele>107.290305</ele>
        <time>2026-05-04T23:53:45.996Z</time>
      </trkpt>
      <trkpt lat="43.548201" lon="10.639950">
        <ele>108.948458</ele>
        <time>2026-05-04T23:54:03.224Z</time>
      </trkpt>
      <trkpt lat="43.547938" lon="10.639876">
        <ele>111.192403</ele>
        <time>2026-05-04T23:54:25.742Z</time>
      </trkpt>
      <trkpt lat="43.547797" lon="10.639905">
        <ele>112.384194</ele>
        <time>2026-05-04T23:54:37.059Z</time>
      </trkpt>
      <trkpt lat="43.547554" lon="10.640095">
        <ele>114.477069</ele>
        <time>2026-05-04T23:54:57.362Z</time>
      </trkpt>
      <trkpt lat="43.547422" lon="10.640165">
        <ele>114.674163</ele>
        <time>2026-05-04T23:55:06.701Z</time>
      </trkpt>
      <trkpt lat="43.546817" lon="10.640487">
        <ele>115.577935</ele>
        <time>2026-05-04T23:55:40.376Z</time>
      </trkpt>
      <trkpt lat="43.546523" lon="10.640723">
        <ele>116.052000</ele>
        <time>2026-05-04T23:55:51.589Z</time>
      </trkpt>
      <trkpt lat="43.546347" lon="10.640864">
        <ele>116.335653</ele>
        <time>2026-05-04T23:55:57.291Z</time>
      </trkpt>
      <trkpt lat="43.545738" lon="10.641402">
        <ele>116.521748</ele>
        <time>2026-05-04T23:56:15.170Z</time>
      </trkpt>
      <trkpt lat="43.545483" lon="10.641464">
        <ele>116.155909</ele>
        <time>2026-05-04T23:56:21.451Z</time>
      </trkpt>
      <trkpt lat="43.545464" lon="10.641465">
        <ele>116.129045</ele>
        <time>2026-05-04T23:56:21.924Z</time>
      </trkpt>
      <trkpt lat="43.545179" lon="10.641481">
        <ele>115.726038</ele>
        <time>2026-05-04T23:56:29.126Z</time>
      </trkpt>
      <trkpt lat="43.544748" lon="10.641608">
        <ele>115.103349</ele>
        <time>2026-05-04T23:56:41.642Z</time>
      </trkpt>
      <trkpt lat="43.545179" lon="10.641481">
        <ele>114.480659</ele>
        <time>2026-05-04T23:56:58.792Z</time>
      </trkpt>
      <trkpt lat="43.545464" lon="10.641465">
        <ele>114.731246</ele>
        <time>2026-05-04T23:57:13.139Z</time>
      </trkpt>
      <trkpt lat="43.545483" lon="10.641464">
        <ele>114.759857</ele>
        <time>2026-05-04T23:57:14.119Z</time>
      </trkpt>
      <trkpt lat="43.545738" lon="10.641402">
        <ele>115.149482</ele>
        <time>2026-05-04T23:57:28.504Z</time>
      </trkpt>
      <trkpt lat="43.546347" lon="10.640864">
        <ele>116.237644</ele>
        <time>2026-05-04T23:58:04.197Z</time>
      </trkpt>
      <trkpt lat="43.546523" lon="10.640723">
        <ele>116.543893</ele>
        <time>2026-05-04T23:58:11.368Z</time>
      </trkpt>
      <trkpt lat="43.546347" lon="10.640864">
        <ele>116.850142</ele>
        <time>2026-05-04T23:58:17.456Z</time>
      </trkpt>
      <trkpt lat="43.545738" lon="10.641402">
        <ele>114.379284</ele>
        <time>2026-05-04T23:58:35.794Z</time>
      </trkpt>
      <trkpt lat="43.545483" lon="10.641464">
        <ele>113.113419</ele>
        <time>2026-05-04T23:58:41.823Z</time>
      </trkpt>
      <trkpt lat="43.545464" lon="10.641465">
        <ele>113.020464</ele>
        <time>2026-05-04T23:58:42.259Z</time>
      </trkpt>
      <trkpt lat="43.545179" lon="10.641481">
        <ele>111.625992</ele>
        <time>2026-05-04T23:58:48.774Z</time>
      </trkpt>
      <trkpt lat="43.544748" lon="10.641608">
        <ele>109.471379</ele>
        <time>2026-05-04T23:58:58.992Z</time>
      </trkpt>
      <trkpt lat="43.544461" lon="10.641692">
        <ele>107.868135</ele>
        <time>2026-05-04T23:59:05.962Z</time>
      </trkpt>
      <trkpt lat="43.544171" lon="10.641667">
        <ele>105.560015</ele>
        <time>2026-05-04T23:59:13.061Z</time>
      </trkpt>
      <trkpt lat="43.544003" lon="10.641901">
        <ele>103.663640</ele>
        <time>2026-05-04T23:59:18.888Z</time>
      </trkpt>
      <trkpt lat="43.543768" lon="10.642376">
        <ele>100.352326</ele>
        <time>2026-05-04T23:59:28.634Z</time>
      </trkpt>
      <trkpt lat="43.543622" lon="10.642734">
        <ele>97.987148</ele>
        <time>2026-05-04T23:59:35.213Z</time>
      </trkpt>
      <trkpt lat="43.543620" lon="10.642740">
        <ele>97.949123</ele>
        <time>2026-05-04T23:59:35.314Z</time>
      </trkpt>
      <trkpt lat="43.543620" lon="10.642740">
        <ele>97.949123</ele>
        <time>2026-05-04T23:59:35.353Z</time>
      </trkpt>
      <trkpt lat="43.543620" lon="10.642740">
        <ele>97.949123</ele>
        <time>2026-05-04T23:59:35.353Z</time>
      </trkpt>
      <trkpt lat="43.543270" lon="10.642158">
        <ele>93.262271</ele>
        <time>2026-05-04T23:59:58.909Z</time>
      </trkpt>
      <trkpt lat="43.542652" lon="10.641842">
        <ele>83.929111</ele>
        <time>2026-05-05T00:00:27.353Z</time>
      </trkpt>
      <trkpt lat="43.542127" lon="10.641246">
        <ele>74.301145</ele>
        <time>2026-05-05T00:00:56.747Z</time>
      </trkpt>
      <trkpt lat="43.542294" lon="10.640528">
        <ele>67.513897</ele>
        <time>2026-05-05T00:01:20.305Z</time>
      </trkpt>
      <trkpt lat="43.541844" lon="10.639894">
        <ele>62.770428</ele>
        <time>2026-05-05T00:01:47.914Z</time>
      </trkpt>
      <trkpt lat="43.541394" lon="10.639261">
        <ele>58.030758</ele>
        <time>2026-05-05T00:02:15.436Z</time>
      </trkpt>
      <trkpt lat="43.541066" lon="10.639719">
        <ele>55.075751</ele>
        <time>2026-05-05T00:02:22.537Z</time>
      </trkpt>
      <trkpt lat="43.540825" lon="10.640165">
        <ele>54.182272</ele>
        <time>2026-05-05T00:02:28.998Z</time>
      </trkpt>
      <trkpt lat="43.539827" lon="10.638865">
        <ele>51.381789</ele>
        <time>2026-05-05T00:02:52.783Z</time>
      </trkpt>
      <trkpt lat="43.539692" lon="10.638600">
        <ele>51.651869</ele>
        <time>2026-05-05T00:02:57.331Z</time>
      </trkpt>
      <trkpt lat="43.539572" lon="10.638525">
        <ele>51.803411</ele>
        <time>2026-05-05T00:03:00.148Z</time>
      </trkpt>
      <trkpt lat="43.539013" lon="10.637884">
        <ele>52.639572</ele>
        <time>2026-05-05T00:03:22.350Z</time>
      </trkpt>
      <trkpt lat="43.538330" lon="10.637007">
        <ele>53.526667</ele>
        <time>2026-05-05T00:03:54.917Z</time>
      </trkpt>
      <trkpt lat="43.537964" lon="10.637620">
        <ele>53.830827</ele>
        <time>2026-05-05T00:04:16.503Z</time>
      </trkpt>
      <trkpt lat="43.537468" lon="10.638785">
        <ele>54.400595</ele>
        <time>2026-05-05T00:04:45.335Z</time>
      </trkpt>
      <trkpt lat="43.537023" lon="10.639219">
        <ele>55.198418</ele>
        <time>2026-05-05T00:05:02.300Z</time>
      </trkpt>
      <trkpt lat="43.536813" lon="10.639487">
        <ele>55.617229</ele>
        <time>2026-05-05T00:05:12.424Z</time>
      </trkpt>
      <trkpt lat="43.535485" lon="10.640495">
        <ele>59.640106</ele>
        <time>2026-05-05T00:06:23.023Z</time>
      </trkpt>
      <trkpt lat="43.535231" lon="10.640616">
        <ele>60.835901</ele>
        <time>2026-05-05T00:06:38.260Z</time>
      </trkpt>
      <trkpt lat="43.535032" lon="10.640640">
        <ele>61.724822</ele>
        <time>2026-05-05T00:06:49.752Z</time>
      </trkpt>
      <trkpt lat="43.534742" lon="10.640930">
        <ele>63.318752</ele>
        <time>2026-05-05T00:07:10.735Z</time>
      </trkpt>
      <trkpt lat="43.534540" lon="10.641063">
        <ele>64.314796</ele>
        <time>2026-05-05T00:07:24.120Z</time>
      </trkpt>
      <trkpt lat="43.534386" lon="10.641043">
        <ele>65.013251</ele>
        <time>2026-05-05T00:07:33.482Z</time>
      </trkpt>
      <trkpt lat="43.532916" lon="10.639927">
        <ele>74.076435</ele>
        <time>2026-05-05T00:09:11.141Z</time>
      </trkpt>
      <trkpt lat="43.531197" lon="10.638543">
        <ele>85.616854</ele>
        <time>2026-05-05T00:11:13.243Z</time>
      </trkpt>
      <trkpt lat="43.531037" lon="10.638502">
        <ele>86.393336</ele>
        <time>2026-05-05T00:11:23.516Z</time>
      </trkpt>
      <trkpt lat="43.530804" lon="10.638510">
        <ele>87.505411</ele>
        <time>2026-05-05T00:11:38.031Z</time>
      </trkpt>
      <trkpt lat="43.530528" lon="10.638274">
        <ele>89.054834</ele>
        <time>2026-05-05T00:11:57.649Z</time>
      </trkpt>
      <trkpt lat="43.529618" lon="10.637191">
        <ele>94.360955</ele>
        <time>2026-05-05T00:13:00.663Z</time>
      </trkpt>
      <trkpt lat="43.528739" lon="10.635195">
        <ele>99.042066</ele>
        <time>2026-05-05T00:14:13.075Z</time>
      </trkpt>
      <trkpt lat="43.528634" lon="10.635096">
        <ele>99.553790</ele>
        <time>2026-05-05T00:14:18.719Z</time>
      </trkpt>
      <trkpt lat="43.527312" lon="10.634251">
        <ele>105.416036</ele>
        <time>2026-05-05T00:15:33.221Z</time>
      </trkpt>
      <trkpt lat="43.527182" lon="10.634093">
        <ele>106.282629</ele>
        <time>2026-05-05T00:15:43.838Z</time>
      </trkpt>
      <trkpt lat="43.526285" lon="10.632517">
        <ele>116.302352</ele>
        <time>2026-05-05T00:17:22.530Z</time>
      </trkpt>
      <trkpt lat="43.526212" lon="10.632337">
        <ele>117.333771</ele>
        <time>2026-05-05T00:17:33.057Z</time>
      </trkpt>
      <trkpt lat="43.526156" lon="10.631661">
        <ele>120.752498</ele>
        <time>2026-05-05T00:18:07.609Z</time>
      </trkpt>
      <trkpt lat="43.525326" lon="10.631145">
        <ele>127.073133</ele>
        <time>2026-05-05T00:19:09.293Z</time>
      </trkpt>
      <trkpt lat="43.525244" lon="10.631134">
        <ele>127.645105</ele>
        <time>2026-05-05T00:19:14.766Z</time>
      </trkpt>
      <trkpt lat="43.524863" lon="10.631300">
        <ele>130.419049</ele>
        <time>2026-05-05T00:19:40.624Z</time>
      </trkpt>
      <trkpt lat="43.524710" lon="10.631262">
        <ele>131.318125</ele>
        <time>2026-05-05T00:19:50.301Z</time>
      </trkpt>
      <trkpt lat="43.524499" lon="10.630774">
        <ele>133.471710</ele>
        <time>2026-05-05T00:20:14.689Z</time>
      </trkpt>
      <trkpt lat="43.524376" lon="10.630404">
        <ele>135.014507</ele>
        <time>2026-05-05T00:20:31.519Z</time>
      </trkpt>
      <trkpt lat="43.524281" lon="10.629760">
        <ele>137.505496</ele>
        <time>2026-05-05T00:20:58.591Z</time>
      </trkpt>
      <trkpt lat="43.524269" lon="10.629320">
        <ele>139.174431</ele>
        <time>2026-05-05T00:21:16.094Z</time>
      </trkpt>
      <trkpt lat="43.524297" lon="10.628682">
        <ele>141.666491</ele>
        <time>2026-05-05T00:21:41.528Z</time>
      </trkpt>
      <trkpt lat="43.524281" lon="10.627929">
        <ele>144.660804</ele>
        <time>2026-05-05T00:22:13.161Z</time>
      </trkpt>
      <trkpt lat="43.524240" lon="10.627779">
        <ele>145.297981</ele>
        <time>2026-05-05T00:22:20.154Z</time>
      </trkpt>
      <trkpt lat="43.523616" lon="10.627786">
        <ele>148.718779</ele>
        <time>2026-05-05T00:22:50.877Z</time>
      </trkpt>
      <trkpt lat="43.523502" lon="10.627754">
        <ele>149.356524</ele>
        <time>2026-05-05T00:22:56.734Z</time>
      </trkpt>
      <trkpt lat="43.523212" lon="10.627352">
        <ele>151.547182</ele>
        <time>2026-05-05T00:23:18.029Z</time>
      </trkpt>
      <trkpt lat="43.523130" lon="10.627298">
        <ele>152.025332</ele>
        <time>2026-05-05T00:23:22.809Z</time>
      </trkpt>
      <trkpt lat="43.522177" lon="10.627009">
        <ele>157.159811</ele>
        <time>2026-05-05T00:24:10.983Z</time>
      </trkpt>
      <trkpt lat="43.521856" lon="10.626885">
        <ele>158.913921</ele>
        <time>2026-05-05T00:24:25.100Z</time>
      </trkpt>
      <trkpt lat="43.521649" lon="10.626785">
        <ele>159.786851</ele>
        <time>2026-05-05T00:24:33.584Z</time>
      </trkpt>
      <trkpt lat="43.520851" lon="10.626285">
        <ele>162.133586</ele>
        <time>2026-05-05T00:25:01.604Z</time>
      </trkpt>
      <trkpt lat="43.520747" lon="10.626170">
        <ele>162.490491</ele>
        <time>2026-05-05T00:25:05.491Z</time>
      </trkpt>
      <trkpt lat="43.520587" lon="10.625712">
        <ele>163.477485</ele>
        <time>2026-05-05T00:25:16.667Z</time>
      </trkpt>
      <trkpt lat="43.520492" lon="10.625554">
        <ele>163.875970</ele>
        <time>2026-05-05T00:25:21.833Z</time>
      </trkpt>
      <trkpt lat="43.519877" lon="10.625045">
        <ele>165.268756</ele>
        <time>2026-05-05T00:25:46.192Z</time>
      </trkpt>
      <trkpt lat="43.519532" lon="10.624706">
        <ele>166.000028</ele>
        <time>2026-05-05T00:25:59.900Z</time>
      </trkpt>
      <trkpt lat="43.519480" lon="10.624764">
        <ele>166.115479</ele>
        <time>2026-05-05T00:26:01.942Z</time>
      </trkpt>
      <trkpt lat="43.519227" lon="10.625047">
        <ele>166.677829</ele>
        <time>2026-05-05T00:26:11.506Z</time>
      </trkpt>
      <trkpt lat="43.518749" lon="10.625593">
        <ele>166.959540</ele>
        <time>2026-05-05T00:26:25.145Z</time>
      </trkpt>
      <trkpt lat="43.518588" lon="10.625844">
        <ele>166.384613</ele>
        <time>2026-05-05T00:26:29.053Z</time>
      </trkpt>
      <trkpt lat="43.518113" lon="10.626764">
        <ele>164.446989</ele>
        <time>2026-05-05T00:26:41.191Z</time>
      </trkpt>
      <trkpt lat="43.518006" lon="10.626932">
        <ele>164.063365</ele>
        <time>2026-05-05T00:26:43.480Z</time>
      </trkpt>
      <trkpt lat="43.517625" lon="10.627159">
        <ele>163.006757</ele>
        <time>2026-05-05T00:26:49.194Z</time>
      </trkpt>
      <trkpt lat="43.517610" lon="10.627168">
        <ele>162.931595</ele>
        <time>2026-05-05T00:26:49.418Z</time>
      </trkpt>
      <trkpt lat="43.517250" lon="10.627802">
        <ele>160.248600</ele>
        <time>2026-05-05T00:26:57.469Z</time>
      </trkpt>
      <trkpt lat="43.516586" lon="10.628316">
        <ele>156.749879</ele>
        <time>2026-05-05T00:27:07.759Z</time>
      </trkpt>
      <trkpt lat="43.516309" lon="10.628605">
        <ele>155.153908</ele>
        <time>2026-05-05T00:27:12.350Z</time>
      </trkpt>
      <trkpt lat="43.516233" lon="10.628751">
        <ele>154.478340</ele>
        <time>2026-05-05T00:27:14.065Z</time>
      </trkpt>
      <trkpt lat="43.516209" lon="10.628863">
        <ele>154.001710</ele>
        <time>2026-05-05T00:27:15.167Z</time>
      </trkpt>
      <trkpt lat="43.516194" lon="10.629310">
        <ele>152.175467</ele>
        <time>2026-05-05T00:27:19.425Z</time>
      </trkpt>
      <trkpt lat="43.516157" lon="10.629491">
        <ele>151.407984</ele>
        <time>2026-05-05T00:27:21.238Z</time>
      </trkpt>
      <trkpt lat="43.516093" lon="10.629638">
        <ele>150.708233</ele>
        <time>2026-05-05T00:27:22.889Z</time>
      </trkpt>
      <trkpt lat="43.515812" lon="10.630048">
        <ele>148.405886</ele>
        <time>2026-05-05T00:27:28.260Z</time>
      </trkpt>
      <trkpt lat="43.515669" lon="10.630121">
        <ele>147.547731</ele>
        <time>2026-05-05T00:27:30.208Z</time>
      </trkpt>
      <trkpt lat="43.515299" lon="10.630115">
        <ele>145.465290</ele>
        <time>2026-05-05T00:27:34.961Z</time>
      </trkpt>
      <trkpt lat="43.515218" lon="10.630169">
        <ele>144.958957</ele>
        <time>2026-05-05T00:27:36.122Z</time>
      </trkpt>
      <trkpt lat="43.515166" lon="10.630242">
        <ele>144.555852</ele>
        <time>2026-05-05T00:27:37.073Z</time>
      </trkpt>
      <trkpt lat="43.515136" lon="10.630361">
        <ele>144.073756</ele>
        <time>2026-05-05T00:27:38.247Z</time>
      </trkpt>
      <trkpt lat="43.515134" lon="10.630547">
        <ele>143.361931</ele>
        <time>2026-05-05T00:27:39.991Z</time>
      </trkpt>
      <trkpt lat="43.515246" lon="10.631057">
        <ele>141.322849</ele>
        <time>2026-05-05T00:27:45.045Z</time>
      </trkpt>
      <trkpt lat="43.515232" lon="10.631216">
        <ele>140.709953</ele>
        <time>2026-05-05T00:27:46.622Z</time>
      </trkpt>
      <trkpt lat="43.515191" lon="10.631323">
        <ele>140.246866</ele>
        <time>2026-05-05T00:27:47.849Z</time>
      </trkpt>
      <trkpt lat="43.515099" lon="10.631403">
        <ele>139.672951</ele>
        <time>2026-05-05T00:27:49.316Z</time>
      </trkpt>
      <trkpt lat="43.514970" lon="10.631408">
        <ele>138.991992</ele>
        <time>2026-05-05T00:27:51.052Z</time>
      </trkpt>
      <trkpt lat="43.514642" lon="10.631241">
        <ele>137.147038</ele>
        <time>2026-05-05T00:27:55.661Z</time>
      </trkpt>
      <trkpt lat="43.514551" lon="10.631192">
        <ele>136.631551</ele>
        <time>2026-05-05T00:27:56.943Z</time>
      </trkpt>
      <trkpt lat="43.514343" lon="10.631124">
        <ele>135.503581</ele>
        <time>2026-05-05T00:27:59.736Z</time>
      </trkpt>
      <trkpt lat="43.514165" lon="10.631161">
        <ele>134.955114</ele>
        <time>2026-05-05T00:28:02.107Z</time>
      </trkpt>
      <trkpt lat="43.513781" lon="10.631404">
        <ele>133.952591</ele>
        <time>2026-05-05T00:28:07.827Z</time>
      </trkpt>
      <trkpt lat="43.513382" lon="10.631804">
        <ele>132.782074</ele>
        <time>2026-05-05T00:28:15.422Z</time>
      </trkpt>
      <trkpt lat="43.513146" lon="10.631936">
        <ele>132.177778</ele>
        <time>2026-05-05T00:28:19.308Z</time>
      </trkpt>
      <trkpt lat="43.512976" lon="10.631890">
        <ele>131.766708</ele>
        <time>2026-05-05T00:28:21.927Z</time>
      </trkpt>
      <trkpt lat="43.512761" lon="10.631646">
        <ele>131.105988</ele>
        <time>2026-05-05T00:28:26.549Z</time>
      </trkpt>
      <trkpt lat="43.512671" lon="10.631599">
        <ele>131.194009</ele>
        <time>2026-05-05T00:28:28.817Z</time>
      </trkpt>
      <trkpt lat="43.512520" lon="10.631618">
        <ele>131.661215</ele>
        <time>2026-05-05T00:28:32.816Z</time>
      </trkpt>
      <trkpt lat="43.512348" lon="10.631725">
        <ele>132.242636</ele>
        <time>2026-05-05T00:28:39.038Z</time>
      </trkpt>
      <trkpt lat="43.512017" lon="10.631964">
        <ele>133.393914</ele>
        <time>2026-05-05T00:28:54.776Z</time>
      </trkpt>
      <trkpt lat="43.511962" lon="10.632018">
        <ele>133.601957</ele>
        <time>2026-05-05T00:28:57.867Z</time>
      </trkpt>
      <trkpt lat="43.511744" lon="10.632285">
        <ele>134.500398</ele>
        <time>2026-05-05T00:29:11.224Z</time>
      </trkpt>
      <trkpt lat="43.511329" lon="10.632636">
        <ele>136.000525</ele>
        <time>2026-05-05T00:29:29.198Z</time>
      </trkpt>
      <trkpt lat="43.511257" lon="10.632755">
        <ele>136.346841</ele>
        <time>2026-05-05T00:29:33.145Z</time>
      </trkpt>
      <trkpt lat="43.511223" lon="10.632904">
        <ele>136.609021</ele>
        <time>2026-05-05T00:29:37.083Z</time>
      </trkpt>
      <trkpt lat="43.511240" lon="10.633166">
        <ele>136.828120</ele>
        <time>2026-05-05T00:29:43.830Z</time>
      </trkpt>
      <trkpt lat="43.511320" lon="10.633429">
        <ele>137.065669</ele>
        <time>2026-05-05T00:29:50.475Z</time>
      </trkpt>
      <trkpt lat="43.511630" lon="10.633981">
        <ele>137.647178</ele>
        <time>2026-05-05T00:30:03.581Z</time>
      </trkpt>
      <trkpt lat="43.511728" lon="10.634246">
        <ele>137.894943</ele>
        <time>2026-05-05T00:30:08.035Z</time>
      </trkpt>
      <trkpt lat="43.511748" lon="10.634490">
        <ele>138.099470</ele>
        <time>2026-05-05T00:30:11.558Z</time>
      </trkpt>
      <trkpt lat="43.511716" lon="10.634627">
        <ele>138.219353</ele>
        <time>2026-05-05T00:30:13.574Z</time>
      </trkpt>
      <trkpt lat="43.511650" lon="10.634761">
        <ele>138.354271</ele>
        <time>2026-05-05T00:30:15.852Z</time>
      </trkpt>
      <trkpt lat="43.511440" lon="10.634956">
        <ele>138.611440</ele>
        <time>2026-05-05T00:30:20.525Z</time>
      </trkpt>
      <trkpt lat="43.510861" lon="10.635266">
        <ele>138.231383</ele>
        <time>2026-05-05T00:30:31.367Z</time>
      </trkpt>
      <trkpt lat="43.510646" lon="10.635280">
        <ele>138.099680</ele>
        <time>2026-05-05T00:30:35.076Z</time>
      </trkpt>
      <trkpt lat="43.510254" lon="10.635158">
        <ele>137.853784</ele>
        <time>2026-05-05T00:30:41.927Z</time>
      </trkpt>
      <trkpt lat="43.509928" lon="10.634980">
        <ele>137.639236</ele>
        <time>2026-05-05T00:30:47.814Z</time>
      </trkpt>
      <trkpt lat="43.509587" lon="10.634727">
        <ele>137.634644</ele>
        <time>2026-05-05T00:30:54.295Z</time>
      </trkpt>
      <trkpt lat="43.508793" lon="10.633931">
        <ele>138.194599</ele>
        <time>2026-05-05T00:31:19.185Z</time>
      </trkpt>
      <trkpt lat="43.508384" lon="10.633207">
        <ele>138.565729</ele>
        <time>2026-05-05T00:31:33.832Z</time>
      </trkpt>
      <trkpt lat="43.508278" lon="10.633142">
        <ele>138.610018</ele>
        <time>2026-05-05T00:31:36.447Z</time>
      </trkpt>
      <trkpt lat="43.508181" lon="10.633143">
        <ele>138.647051</ele>
        <time>2026-05-05T00:31:38.585Z</time>
      </trkpt>
      <trkpt lat="43.508069" lon="10.633215">
        <ele>138.694228</ele>
        <time>2026-05-05T00:31:41.231Z</time>
      </trkpt>
      <trkpt lat="43.507854" lon="10.633386">
        <ele>138.788987</ele>
        <time>2026-05-05T00:31:46.727Z</time>
      </trkpt>
      <trkpt lat="43.507769" lon="10.633384">
        <ele>138.821442</ele>
        <time>2026-05-05T00:31:48.587Z</time>
      </trkpt>
      <trkpt lat="43.507691" lon="10.633345">
        <ele>138.853118</ele>
        <time>2026-05-05T00:31:50.149Z</time>
      </trkpt>
      <trkpt lat="43.507636" lon="10.633245">
        <ele>138.887868</ele>
        <time>2026-05-05T00:31:51.986Z</time>
      </trkpt>
      <trkpt lat="43.507529" lon="10.632889">
        <ele>138.994571</ele>
        <time>2026-05-05T00:31:57.048Z</time>
      </trkpt>
      <trkpt lat="43.507413" lon="10.632663">
        <ele>139.071233</ele>
        <time>2026-05-05T00:32:00.421Z</time>
      </trkpt>
      <trkpt lat="43.507280" lon="10.632505">
        <ele>139.138257</ele>
        <time>2026-05-05T00:32:03.424Z</time>
      </trkpt>
      <trkpt lat="43.507044" lon="10.632342">
        <ele>139.268224</ele>
        <time>2026-05-05T00:32:09.659Z</time>
      </trkpt>
      <trkpt lat="43.506789" lon="10.632249">
        <ele>140.128231</ele>
        <time>2026-05-05T00:32:16.904Z</time>
      </trkpt>
      <trkpt lat="43.506291" lon="10.632139">
        <ele>141.772635</ele>
        <time>2026-05-05T00:32:32.977Z</time>
      </trkpt>
      <trkpt lat="43.506017" lon="10.632126">
        <ele>142.666525</ele>
        <time>2026-05-05T00:32:44.022Z</time>
      </trkpt>
      <trkpt lat="43.505792" lon="10.632169">
        <ele>143.407138</ele>
        <time>2026-05-05T00:32:53.642Z</time>
      </trkpt>
      <trkpt lat="43.505599" lon="10.632278">
        <ele>144.087150</ele>
        <time>2026-05-05T00:33:02.523Z</time>
      </trkpt>
      <trkpt lat="43.505212" lon="10.632500">
        <ele>145.568050</ele>
        <time>2026-05-05T00:33:20.192Z</time>
      </trkpt>
      <trkpt lat="43.505155" lon="10.632535">
        <ele>145.837102</ele>
        <time>2026-05-05T00:33:22.851Z</time>
      </trkpt>
      <trkpt lat="43.505110" lon="10.632614">
        <ele>146.151257</ele>
        <time>2026-05-05T00:33:25.877Z</time>
      </trkpt>
      <trkpt lat="43.505075" lon="10.632804">
        <ele>146.764343</ele>
        <time>2026-05-05T00:33:31.807Z</time>
      </trkpt>
      <trkpt lat="43.505175" lon="10.633567">
        <ele>149.189251</ele>
        <time>2026-05-05T00:33:56.557Z</time>
      </trkpt>
      <trkpt lat="43.505177" lon="10.633871">
        <ele>150.140042</ele>
        <time>2026-05-05T00:34:06.112Z</time>
      </trkpt>
      <trkpt lat="43.505131" lon="10.634148">
        <ele>151.028769</ele>
        <time>2026-05-05T00:34:14.371Z</time>
      </trkpt>
      <trkpt lat="43.505117" lon="10.634452">
        <ele>151.981436</ele>
        <time>2026-05-05T00:34:22.420Z</time>
      </trkpt>
      <trkpt lat="43.505246" lon="10.634958">
        <ele>153.498268</ele>
        <time>2026-05-05T00:34:36.143Z</time>
      </trkpt>
      <trkpt lat="43.505273" lon="10.635187">
        <ele>154.078896</ele>
        <time>2026-05-05T00:34:42.040Z</time>
      </trkpt>
      <trkpt lat="43.505260" lon="10.635335">
        <ele>154.451993</ele>
        <time>2026-05-05T00:34:45.825Z</time>
      </trkpt>
      <trkpt lat="43.505177" lon="10.635659">
        <ele>155.311938</ele>
        <time>2026-05-05T00:34:54.629Z</time>
      </trkpt>
      <trkpt lat="43.505175" lon="10.635873">
        <ele>155.847549</ele>
        <time>2026-05-05T00:34:59.958Z</time>
      </trkpt>
      <trkpt lat="43.505204" lon="10.635969">
        <ele>156.107808</ele>
        <time>2026-05-05T00:35:02.560Z</time>
      </trkpt>
      <trkpt lat="43.505429" lon="10.636388">
        <ele>157.412528</ele>
        <time>2026-05-05T00:35:15.644Z</time>
      </trkpt>
      <trkpt lat="43.505454" lon="10.636486">
        <ele>157.672514</ele>
        <time>2026-05-05T00:35:18.284Z</time>
      </trkpt>
      <trkpt lat="43.505448" lon="10.636667">
        <ele>158.125963</ele>
        <time>2026-05-05T00:35:22.908Z</time>
      </trkpt>
      <trkpt lat="43.505417" lon="10.636759">
        <ele>158.379839</ele>
        <time>2026-05-05T00:35:25.535Z</time>
      </trkpt>
      <trkpt lat="43.505311" lon="10.636862">
        <ele>158.827295</ele>
        <time>2026-05-05T00:35:30.253Z</time>
      </trkpt>
      <trkpt lat="43.505182" lon="10.636860">
        <ele>159.424411</ele>
        <time>2026-05-05T00:35:35.216Z</time>
      </trkpt>
      <trkpt lat="43.505131" lon="10.636811">
        <ele>159.793224</ele>
        <time>2026-05-05T00:35:37.690Z</time>
      </trkpt>
      <trkpt lat="43.505094" lon="10.636739">
        <ele>160.172951</ele>
        <time>2026-05-05T00:35:40.314Z</time>
      </trkpt>
      <trkpt lat="43.505014" lon="10.636378">
        <ele>161.797353</ele>
        <time>2026-05-05T00:35:52.387Z</time>
      </trkpt>
      <trkpt lat="43.504943" lon="10.636201">
        <ele>162.667772</ele>
        <time>2026-05-05T00:35:59.230Z</time>
      </trkpt>
      <trkpt lat="43.504693" lon="10.635811">
        <ele>164.907601</ele>
        <time>2026-05-05T00:36:17.854Z</time>
      </trkpt>
      <trkpt lat="43.504604" lon="10.635707">
        <ele>165.599796</ele>
        <time>2026-05-05T00:36:23.970Z</time>
      </trkpt>
      <trkpt lat="43.504263" lon="10.635309">
        <ele>168.250605</ele>
        <time>2026-05-05T00:36:47.943Z</time>
      </trkpt>
      <trkpt lat="43.504161" lon="10.635253">
        <ele>168.901998</ele>
        <time>2026-05-05T00:36:54.249Z</time>
      </trkpt>
      <trkpt lat="43.504090" lon="10.635263">
        <ele>169.325440</ele>
        <time>2026-05-05T00:36:58.427Z</time>
      </trkpt>
      <trkpt lat="43.503997" lon="10.635332">
        <ele>169.980264</ele>
        <time>2026-05-05T00:37:04.539Z</time>
      </trkpt>
      <trkpt lat="43.503957" lon="10.635409">
        <ele>170.440296</ele>
        <time>2026-05-05T00:37:08.489Z</time>
      </trkpt>
      <trkpt lat="43.503832" lon="10.635914">
        <ele>173.032076</ele>
        <time>2026-05-05T00:37:30.072Z</time>
      </trkpt>
      <trkpt lat="43.503736" lon="10.636126">
        <ele>174.246003</ele>
        <time>2026-05-05T00:37:40.326Z</time>
      </trkpt>
      <trkpt lat="43.503435" lon="10.636376">
        <ele>176.599178</ele>
        <time>2026-05-05T00:38:00.007Z</time>
      </trkpt>
      <trkpt lat="43.503154" lon="10.636572">
        <ele>178.708030</ele>
        <time>2026-05-05T00:38:16.556Z</time>
      </trkpt>
      <trkpt lat="43.502959" lon="10.636646">
        <ele>180.062423</ele>
        <time>2026-05-05T00:38:26.918Z</time>
      </trkpt>
      <trkpt lat="43.502902" lon="10.636646">
        <ele>180.444127</ele>
        <time>2026-05-05T00:38:29.642Z</time>
      </trkpt>
      <trkpt lat="43.502808" lon="10.636646">
        <ele>181.073603</ele>
        <time>2026-05-05T00:38:34.459Z</time>
      </trkpt>
      <trkpt lat="43.502680" lon="10.636666">
        <ele>181.763411</ele>
        <time>2026-05-05T00:38:41.016Z</time>
      </trkpt>
      <trkpt lat="43.502594" lon="10.636733">
        <ele>181.705036</ele>
        <time>2026-05-05T00:38:45.745Z</time>
      </trkpt>
      <trkpt lat="43.502356" lon="10.637181">
        <ele>181.467005</ele>
        <time>2026-05-05T00:39:02.384Z</time>
      </trkpt>
      <trkpt lat="43.502285" lon="10.637277">
        <ele>181.408236</ele>
        <time>2026-05-05T00:39:05.143Z</time>
      </trkpt>
      <trkpt lat="43.502266" lon="10.637298">
        <ele>181.393845</ele>
        <time>2026-05-05T00:39:05.809Z</time>
      </trkpt>
      <trkpt lat="43.502050" lon="10.637566">
        <ele>181.222117</ele>
        <time>2026-05-05T00:39:12.001Z</time>
      </trkpt>
      <trkpt lat="43.501780" lon="10.637862">
        <ele>181.018261</ele>
        <time>2026-05-05T00:39:17.214Z</time>
      </trkpt>
      <trkpt lat="43.501671" lon="10.638032">
        <ele>180.921001</ele>
        <time>2026-05-05T00:39:19.490Z</time>
      </trkpt>
      <trkpt lat="43.501807" lon="10.638104">
        <ele>180.834909</ele>
        <time>2026-05-05T00:39:23.018Z</time>
      </trkpt>
      <trkpt lat="43.501868" lon="10.638178">
        <ele>180.786892</ele>
        <time>2026-05-05T00:39:24.920Z</time>
      </trkpt>
      <trkpt lat="43.502091" lon="10.638602">
        <ele>177.770690</ele>
        <time>2026-05-05T00:39:33.567Z</time>
      </trkpt>
      <trkpt lat="43.502154" lon="10.638791">
        <ele>176.045201</ele>
        <time>2026-05-05T00:39:36.864Z</time>
      </trkpt>
      <trkpt lat="43.502143" lon="10.639042">
        <ele>173.959223</ele>
        <time>2026-05-05T00:39:40.746Z</time>
      </trkpt>
      <trkpt lat="43.501951" lon="10.639862">
        <ele>166.811235</ele>
        <time>2026-05-05T00:39:53.651Z</time>
      </trkpt>
      <trkpt lat="43.501959" lon="10.640173">
        <ele>164.229691</ele>
        <time>2026-05-05T00:39:58.278Z</time>
      </trkpt>
      <trkpt lat="43.502340" lon="10.640860">
        <ele>156.755593</ele>
        <time>2026-05-05T00:40:11.043Z</time>
      </trkpt>
      <trkpt lat="43.502558" lon="10.641118">
        <ele>153.150437</ele>
        <time>2026-05-05T00:40:16.875Z</time>
      </trkpt>
      <trkpt lat="43.502581" lon="10.641429">
        <ele>150.305135</ele>
        <time>2026-05-05T00:40:21.494Z</time>
      </trkpt>
      <trkpt lat="43.502511" lon="10.641826">
        <ele>146.586531</ele>
        <time>2026-05-05T00:40:27.578Z</time>
      </trkpt>
      <trkpt lat="43.502542" lon="10.642255">
        <ele>142.662572</ele>
        <time>2026-05-05T00:40:34.088Z</time>
      </trkpt>
      <trkpt lat="43.502714" lon="10.643016">
        <ele>136.470566</ele>
        <time>2026-05-05T00:40:46.432Z</time>
      </trkpt>
      <trkpt lat="43.503072" lon="10.643928">
        <ele>131.661922</ele>
        <time>2026-05-05T00:41:03.427Z</time>
      </trkpt>
      <trkpt lat="43.503094" lon="10.644124">
        <ele>130.742232</ele>
        <time>2026-05-05T00:41:06.826Z</time>
      </trkpt>
      <trkpt lat="43.503227" lon="10.645366">
        <ele>125.322530</ele>
        <time>2026-05-05T00:41:29.538Z</time>
      </trkpt>
      <trkpt lat="43.503290" lon="10.645624">
        <ele>124.499473</ele>
        <time>2026-05-05T00:41:34.673Z</time>
      </trkpt>
      <trkpt lat="43.503912" lon="10.646203">
        <ele>121.371152</ele>
        <time>2026-05-05T00:41:53.653Z</time>
      </trkpt>
      <trkpt lat="43.504177" lon="10.647051">
        <ele>118.579503</ele>
        <time>2026-05-05T00:42:09.899Z</time>
      </trkpt>
      <trkpt lat="43.504901" lon="10.648659">
        <ele>112.198690</ele>
        <time>2026-05-05T00:42:42.747Z</time>
      </trkpt>
      <trkpt lat="43.505049" lon="10.650172">
        <ele>108.625113</ele>
        <time>2026-05-05T00:43:11.085Z</time>
      </trkpt>
      <trkpt lat="43.505757" lon="10.651824">
        <ele>105.491103</ele>
        <time>2026-05-05T00:43:50.156Z</time>
      </trkpt>
      <trkpt lat="43.506185" lon="10.652736">
        <ele>103.994113</ele>
        <time>2026-05-05T00:44:12.180Z</time>
      </trkpt>
      <trkpt lat="43.506870" lon="10.653830">
        <ele>101.409216</ele>
        <time>2026-05-05T00:44:40.692Z</time>
      </trkpt>
      <trkpt lat="43.507516" lon="10.654431">
        <ele>98.445831</ele>
        <time>2026-05-05T00:45:01.206Z</time>
      </trkpt>
      <trkpt lat="43.508302" lon="10.654721">
        <ele>94.894211</ele>
        <time>2026-05-05T00:45:20.845Z</time>
      </trkpt>
      <trkpt lat="43.508800" lon="10.655437">
        <ele>89.054989</ele>
        <time>2026-05-05T00:45:36.794Z</time>
      </trkpt>
      <trkpt lat="43.508960" lon="10.655710">
        <ele>86.989008</ele>
        <time>2026-05-05T00:45:42.265Z</time>
      </trkpt>
      <trkpt lat="43.509013" lon="10.655847">
        <ele>86.075069</ele>
        <time>2026-05-05T00:45:44.689Z</time>
      </trkpt>
      <trkpt lat="43.509157" lon="10.656463">
        <ele>82.265565</ele>
        <time>2026-05-05T00:45:54.821Z</time>
      </trkpt>
      <trkpt lat="43.509227" lon="10.656552">
        <ele>81.492799</ele>
        <time>2026-05-05T00:45:56.919Z</time>
      </trkpt>
      <trkpt lat="43.509679" lon="10.656776">
        <ele>79.463558</ele>
        <time>2026-05-05T00:46:07.750Z</time>
      </trkpt>
      <trkpt lat="43.509751" lon="10.656852">
        <ele>79.113615</ele>
        <time>2026-05-05T00:46:09.875Z</time>
      </trkpt>
      <trkpt lat="43.510165" lon="10.656723">
        <ele>77.475591</ele>
        <time>2026-05-05T00:46:15.638Z</time>
      </trkpt>
      <trkpt lat="43.510395" lon="10.656598">
        <ele>76.521498</ele>
        <time>2026-05-05T00:46:19.295Z</time>
      </trkpt>
      <trkpt lat="43.510643" lon="10.656384">
        <ele>75.392429</ele>
        <time>2026-05-05T00:46:24.099Z</time>
      </trkpt>
      <trkpt lat="43.511146" lon="10.655873">
        <ele>74.390221</ele>
        <time>2026-05-05T00:46:37.237Z</time>
      </trkpt>
      <trkpt lat="43.511192" lon="10.655823">
        <ele>74.422003</ele>
        <time>2026-05-05T00:46:38.572Z</time>
      </trkpt>
      <trkpt lat="43.512474" lon="10.654439">
        <ele>74.972835</ele>
        <time>2026-05-05T00:47:16.928Z</time>
      </trkpt>
      <trkpt lat="43.512824" lon="10.654714">
        <ele>74.547919</ele>
        <time>2026-05-05T00:47:24.312Z</time>
      </trkpt>
      <trkpt lat="43.514054" lon="10.655527">
        <ele>72.958574</ele>
        <time>2026-05-05T00:47:45.933Z</time>
      </trkpt>
      <trkpt lat="43.514351" lon="10.655771">
        <ele>72.298834</ele>
        <time>2026-05-05T00:47:51.169Z</time>
      </trkpt>
      <trkpt lat="43.514557" lon="10.656007">
        <ele>71.787748</ele>
        <time>2026-05-05T00:47:55.165Z</time>
      </trkpt>
      <trkpt lat="43.514758" lon="10.656306">
        <ele>71.223523</ele>
        <time>2026-05-05T00:47:59.571Z</time>
      </trkpt>
      <trkpt lat="43.514902" lon="10.656585">
        <ele>70.749608</ele>
        <time>2026-05-05T00:48:03.353Z</time>
      </trkpt>
      <trkpt lat="43.515226" lon="10.657432">
        <ele>69.884758</ele>
        <time>2026-05-05T00:48:14.549Z</time>
      </trkpt>
      <trkpt lat="43.515276" lon="10.657569">
        <ele>69.895376</ele>
        <time>2026-05-05T00:48:16.522Z</time>
      </trkpt>
      <trkpt lat="43.515593" lon="10.658468">
        <ele>69.964580</ele>
        <time>2026-05-05T00:48:31.549Z</time>
      </trkpt>
      <trkpt lat="43.515742" lon="10.658786">
        <ele>69.990790</ele>
        <time>2026-05-05T00:48:38.198Z</time>
      </trkpt>
      <trkpt lat="43.515828" lon="10.658910">
        <ele>70.002669</ele>
        <time>2026-05-05T00:48:41.245Z</time>
      </trkpt>
      <trkpt lat="43.515960" lon="10.659027">
        <ele>70.017649</ele>
        <time>2026-05-05T00:48:44.985Z</time>
      </trkpt>
      <trkpt lat="43.516305" lon="10.659190">
        <ele>70.007115</ele>
        <time>2026-05-05T00:48:53.183Z</time>
      </trkpt>
      <trkpt lat="43.516485" lon="10.659190">
        <ele>69.980846</ele>
        <time>2026-05-05T00:48:56.969Z</time>
      </trkpt>
      <trkpt lat="43.516738" lon="10.659119">
        <ele>69.943168</ele>
        <time>2026-05-05T00:49:02.116Z</time>
      </trkpt>
      <trkpt lat="43.516974" lon="10.658988">
        <ele>69.906042</ele>
        <time>2026-05-05T00:49:06.904Z</time>
      </trkpt>
      <trkpt lat="43.517400" lon="10.658672">
        <ele>69.835450</ele>
        <time>2026-05-05T00:49:15.513Z</time>
      </trkpt>
      <trkpt lat="43.517546" lon="10.658523">
        <ele>69.808944</ele>
        <time>2026-05-05T00:49:18.754Z</time>
      </trkpt>
      <trkpt lat="43.517809" lon="10.658167">
        <ele>69.661494</ele>
        <time>2026-05-05T00:49:25.344Z</time>
      </trkpt>
      <trkpt lat="43.518165" lon="10.657532">
        <ele>69.105295</ele>
        <time>2026-05-05T00:49:35.192Z</time>
      </trkpt>
      <trkpt lat="43.518329" lon="10.657204">
        <ele>68.829213</ele>
        <time>2026-05-05T00:49:40.006Z</time>
      </trkpt>
      <trkpt lat="43.518265" lon="10.657113">
        <ele>68.741368</ele>
        <time>2026-05-05T00:49:41.603Z</time>
      </trkpt>
      <trkpt lat="43.518280" lon="10.656929">
        <ele>68.613061</ele>
        <time>2026-05-05T00:49:43.985Z</time>
      </trkpt>
      <trkpt lat="43.518485" lon="10.656341">
        <ele>68.160957</ele>
        <time>2026-05-05T00:49:52.367Z</time>
      </trkpt>
      <trkpt lat="43.518606" lon="10.656119">
        <ele>68.037701</ele>
        <time>2026-05-05T00:49:55.987Z</time>
      </trkpt>
      <trkpt lat="43.519464" lon="10.655573">
        <ele>67.871874</ele>
        <time>2026-05-05T00:50:13.379Z</time>
      </trkpt>
      <trkpt lat="43.519914" lon="10.655139">
        <ele>67.775508</ele>
        <time>2026-05-05T00:50:25.928Z</time>
      </trkpt>
      <trkpt lat="43.520917" lon="10.654090">
        <ele>68.250125</ele>
        <time>2026-05-05T00:50:56.740Z</time>
      </trkpt>
      <trkpt lat="43.521113" lon="10.653827">
        <ele>68.384508</ele>
        <time>2026-05-05T00:51:03.042Z</time>
      </trkpt>
      <trkpt lat="43.521327" lon="10.653457">
        <ele>68.553150</ele>
        <time>2026-05-05T00:51:10.359Z</time>
      </trkpt>
      <trkpt lat="43.521598" lon="10.652839">
        <ele>68.288537</ele>
        <time>2026-05-05T00:51:20.562Z</time>
      </trkpt>
      <trkpt lat="43.522272" lon="10.650678">
        <ele>66.534610</ele>
        <time>2026-05-05T00:51:50.779Z</time>
      </trkpt>
      <trkpt lat="43.522397" lon="10.650395">
        <ele>66.098156</ele>
        <time>2026-05-05T00:51:54.823Z</time>
      </trkpt>
      <trkpt lat="43.522589" lon="10.650102">
        <ele>65.578000</ele>
        <time>2026-05-05T00:51:59.614Z</time>
      </trkpt>
      <trkpt lat="43.522958" lon="10.649735">
        <ele>64.751613</ele>
        <time>2026-05-05T00:52:07.099Z</time>
      </trkpt>
      <trkpt lat="43.523131" lon="10.649649">
        <ele>64.417576</ele>
        <time>2026-05-05T00:52:10.074Z</time>
      </trkpt>
      <trkpt lat="43.523312" lon="10.649631">
        <ele>64.087946</ele>
        <time>2026-05-05T00:52:13.024Z</time>
      </trkpt>
      <trkpt lat="43.523646" lon="10.649585">
        <ele>63.615258</ele>
        <time>2026-05-05T00:52:18.467Z</time>
      </trkpt>
      <trkpt lat="43.523916" lon="10.649447">
        <ele>63.316732</ele>
        <time>2026-05-05T00:52:23.147Z</time>
      </trkpt>
      <trkpt lat="43.524231" lon="10.649147">
        <ele>62.919856</ele>
        <time>2026-05-05T00:52:29.625Z</time>
      </trkpt>
      <trkpt lat="43.524417" lon="10.648893">
        <ele>62.648484</ele>
        <time>2026-05-05T00:52:34.298Z</time>
      </trkpt>
      <trkpt lat="43.524474" lon="10.648774">
        <ele>62.541272</ele>
        <time>2026-05-05T00:52:36.205Z</time>
      </trkpt>
      <trkpt lat="43.524572" lon="10.648429">
        <ele>62.262735</ele>
        <time>2026-05-05T00:52:41.412Z</time>
      </trkpt>
      <trkpt lat="43.524640" lon="10.648273">
        <ele>62.125907</ele>
        <time>2026-05-05T00:52:44.197Z</time>
      </trkpt>
      <trkpt lat="43.524829" lon="10.648070">
        <ele>62.031672</ele>
        <time>2026-05-05T00:52:49.379Z</time>
      </trkpt>
      <trkpt lat="43.524981" lon="10.648005">
        <ele>62.327614</ele>
        <time>2026-05-05T00:52:52.454Z</time>
      </trkpt>
      <trkpt lat="43.525116" lon="10.648006">
        <ele>62.578670</ele>
        <time>2026-05-05T00:52:55.424Z</time>
      </trkpt>
      <trkpt lat="43.525244" lon="10.648056">
        <ele>62.826067</ele>
        <time>2026-05-05T00:52:58.791Z</time>
      </trkpt>
      <trkpt lat="43.525509" lon="10.648237">
        <ele>63.375994</ele>
        <time>2026-05-05T00:53:07.637Z</time>
      </trkpt>
      <trkpt lat="43.525563" lon="10.648274">
        <ele>63.488125</ele>
        <time>2026-05-05T00:53:09.596Z</time>
      </trkpt>
      <trkpt lat="43.525685" lon="10.648307">
        <ele>63.719324</ele>
        <time>2026-05-05T00:53:13.951Z</time>
      </trkpt>
      <trkpt lat="43.525796" lon="10.648288">
        <ele>63.927328</ele>
        <time>2026-05-05T00:53:18.094Z</time>
      </trkpt>
      <trkpt lat="43.525977" lon="10.648180">
        <ele>64.294073</ele>
        <time>2026-05-05T00:53:25.159Z</time>
      </trkpt>
      <trkpt lat="43.526128" lon="10.649105">
        <ele>65.594004</ele>
        <time>2026-05-05T00:53:56.266Z</time>
      </trkpt>
      <trkpt lat="43.526103" lon="10.649213">
        <ele>65.758001</ele>
        <time>2026-05-05T00:53:59.482Z</time>
      </trkpt>
      <trkpt lat="43.526060" lon="10.649266">
        <ele>65.873055</ele>
        <time>2026-05-05T00:54:01.832Z</time>
      </trkpt>
      <trkpt lat="43.525952" lon="10.649257">
        <ele>66.088916</ele>
        <time>2026-05-05T00:54:05.945Z</time>
      </trkpt>
      <trkpt lat="43.525609" lon="10.648952">
        <ele>66.903128</ele>
        <time>2026-05-05T00:54:23.105Z</time>
      </trkpt>
      <trkpt lat="43.525198" lon="10.648485">
        <ele>67.965543</ele>
        <time>2026-05-05T00:54:43.892Z</time>
      </trkpt>
      <trkpt lat="43.525092" lon="10.648476">
        <ele>68.177422</ele>
        <time>2026-05-05T00:54:47.815Z</time>
      </trkpt>
      <trkpt lat="43.525011" lon="10.648513">
        <ele>68.347656</ele>
        <time>2026-05-05T00:54:50.975Z</time>
      </trkpt>
      <trkpt lat="43.524925" lon="10.648639">
        <ele>68.597977</ele>
        <time>2026-05-05T00:54:55.758Z</time>
      </trkpt>
      <trkpt lat="43.524913" lon="10.648810">
        <ele>68.846498</ele>
        <time>2026-05-05T00:55:00.732Z</time>
      </trkpt>
      <trkpt lat="43.524942" lon="10.648946">
        <ele>69.282313</ele>
        <time>2026-05-05T00:55:05.013Z</time>
      </trkpt>
      <trkpt lat="43.525300" lon="10.649897">
        <ele>72.759686</ele>
        <time>2026-05-05T00:55:44.425Z</time>
      </trkpt>
      <trkpt lat="43.525372" lon="10.650060">
        <ele>73.379086</ele>
        <time>2026-05-05T00:55:52.798Z</time>
      </trkpt>
      <trkpt lat="43.525460" lon="10.650176">
        <ele>73.923917</ele>
        <time>2026-05-05T00:56:00.328Z</time>
      </trkpt>
      <trkpt lat="43.525837" lon="10.650332">
        <ele>75.685576</ele>
        <time>2026-05-05T00:56:24.960Z</time>
      </trkpt>
      <trkpt lat="43.525968" lon="10.650455">
        <ele>76.394871</ele>
        <time>2026-05-05T00:56:34.729Z</time>
      </trkpt>
      <trkpt lat="43.526067" lon="10.650598">
        <ele>77.055072</ele>
        <time>2026-05-05T00:56:43.448Z</time>
      </trkpt>
      <trkpt lat="43.526177" lon="10.650940">
        <ele>78.456701</ele>
        <time>2026-05-05T00:56:59.517Z</time>
      </trkpt>
      <trkpt lat="43.526466" lon="10.651330">
        <ele>80.545803</ele>
        <time>2026-05-05T00:57:22.071Z</time>
      </trkpt>
      <trkpt lat="43.526552" lon="10.651497">
        <ele>81.313169</ele>
        <time>2026-05-05T00:57:30.031Z</time>
      </trkpt>
      <trkpt lat="43.526644" lon="10.651804">
        <ele>82.557630</ele>
        <time>2026-05-05T00:57:43.013Z</time>
      </trkpt>
      <trkpt lat="43.526706" lon="10.652293">
        <ele>84.417340</ele>
        <time>2026-05-05T00:58:02.732Z</time>
      </trkpt>
      <trkpt lat="43.526849" lon="10.652694">
        <ele>86.091448</ele>
        <time>2026-05-05T00:58:21.610Z</time>
      </trkpt>
      <trkpt lat="43.526969" lon="10.652865">
        <ele>87.268988</ele>
        <time>2026-05-05T00:58:32.238Z</time>
      </trkpt>
      <trkpt lat="43.527286" lon="10.653129">
        <ele>89.889890</ele>
        <time>2026-05-05T00:58:56.146Z</time>
      </trkpt>
      <trkpt lat="43.527484" lon="10.653180">
        <ele>91.315489</ele>
        <time>2026-05-05T00:59:09.727Z</time>
      </trkpt>
      <trkpt lat="43.528038" lon="10.653130">
        <ele>95.244881</ele>
        <time>2026-05-05T00:59:48.658Z</time>
      </trkpt>
      <trkpt lat="43.528263" lon="10.653197">
        <ele>96.874039</ele>
        <time>2026-05-05T01:00:05.169Z</time>
      </trkpt>
      <trkpt lat="43.528694" lon="10.653595">
        <ele>100.624801</ele>
        <time>2026-05-05T01:00:42.073Z</time>
      </trkpt>
      <trkpt lat="43.529058" lon="10.654003">
        <ele>104.109380</ele>
        <time>2026-05-05T01:01:14.315Z</time>
      </trkpt>
      <trkpt lat="43.529514" lon="10.654833">
        <ele>109.718563</ele>
        <time>2026-05-05T01:02:06.957Z</time>
      </trkpt>
      <trkpt lat="43.529579" lon="10.655011">
        <ele>110.792062</ele>
        <time>2026-05-05T01:02:17.256Z</time>
      </trkpt>
      <trkpt lat="43.529595" lon="10.655408">
        <ele>112.489739</ele>
        <time>2026-05-05T01:02:37.488Z</time>
      </trkpt>
      <trkpt lat="43.529641" lon="10.655785">
        <ele>113.101597</ele>
        <time>2026-05-05T01:02:55.908Z</time>
      </trkpt>
      <trkpt lat="43.529874" lon="10.656389">
        <ele>114.196588</ele>
        <time>2026-05-05T01:03:23.226Z</time>
      </trkpt>
      <trkpt lat="43.529916" lon="10.656937">
        <ele>115.078522</ele>
        <time>2026-05-05T01:03:40.052Z</time>
      </trkpt>
      <trkpt lat="43.529958" lon="10.657184">
        <ele>115.484560</ele>
        <time>2026-05-05T01:03:45.891Z</time>
      </trkpt>
      <trkpt lat="43.529602" lon="10.657035">
        <ele>116.130891</ele>
        <time>2026-05-05T01:03:55.855Z</time>
      </trkpt>
      <trkpt lat="43.529228" lon="10.656680">
        <ele>111.869016</ele>
        <time>2026-05-05T01:04:06.538Z</time>
      </trkpt>
      <trkpt lat="43.529028" lon="10.656619">
        <ele>109.946208</ele>
        <time>2026-05-05T01:04:11.087Z</time>
      </trkpt>
      <trkpt lat="43.528173" lon="10.657409">
        <ele>100.285556</ele>
        <time>2026-05-05T01:04:32.729Z</time>
      </trkpt>
      <trkpt lat="43.527990" lon="10.657611">
        <ele>97.717935</ele>
        <time>2026-05-05T01:04:37.485Z</time>
      </trkpt>
      <trkpt lat="43.527868" lon="10.657947">
        <ele>94.439247</ele>
        <time>2026-05-05T01:04:42.990Z</time>
      </trkpt>
      <trkpt lat="43.527679" lon="10.658253">
        <ele>90.931949</ele>
        <time>2026-05-05T01:04:48.898Z</time>
      </trkpt>
      <trkpt lat="43.527471" lon="10.658485">
        <ele>87.712827</ele>
        <time>2026-05-05T01:04:54.330Z</time>
      </trkpt>
      <trkpt lat="43.527178" lon="10.658653">
        <ele>83.894340</ele>
        <time>2026-05-05T01:05:00.875Z</time>
      </trkpt>
      <trkpt lat="43.527092" lon="10.658796">
        <ele>82.273290</ele>
        <time>2026-05-05T01:05:03.692Z</time>
      </trkpt>
      <trkpt lat="43.527110" lon="10.658984">
        <ele>80.618719</ele>
        <time>2026-05-05T01:05:06.601Z</time>
      </trkpt>
      <trkpt lat="43.527288" lon="10.659369">
        <ele>77.934894</ele>
        <time>2026-05-05T01:05:13.881Z</time>
      </trkpt>
      <trkpt lat="43.527263" lon="10.659467">
        <ele>78.091388</ele>
        <time>2026-05-05T01:05:15.624Z</time>
      </trkpt>
      <trkpt lat="43.526805" lon="10.659813">
        <ele>79.176318</ele>
        <time>2026-05-05T01:05:29.063Z</time>
      </trkpt>
      <trkpt lat="43.526691" lon="10.659838">
        <ele>79.416139</ele>
        <time>2026-05-05T01:05:33.303Z</time>
      </trkpt>
      <trkpt lat="43.526490" lon="10.659704">
        <ele>79.879962</ele>
        <time>2026-05-05T01:05:43.775Z</time>
      </trkpt>
      <trkpt lat="43.526258" lon="10.659645">
        <ele>80.370089</ele>
        <time>2026-05-05T01:05:57.876Z</time>
      </trkpt>
      <trkpt lat="43.525939" lon="10.659739">
        <ele>81.047799</ele>
        <time>2026-05-05T01:06:21.738Z</time>
      </trkpt>
      <trkpt lat="43.524805" lon="10.660163">
        <ele>91.956278</ele>
        <time>2026-05-05T01:08:12.927Z</time>
      </trkpt>
      <trkpt lat="43.523355" lon="10.660795">
        <ele>104.595990</ele>
        <time>2026-05-05T01:10:16.324Z</time>
      </trkpt>
      <trkpt lat="43.523287" lon="10.660909">
        <ele>105.159317</ele>
        <time>2026-05-05T01:10:21.951Z</time>
      </trkpt>
      <trkpt lat="43.523343" lon="10.661901">
        <ele>108.956376</ele>
        <time>2026-05-05T01:10:55.770Z</time>
      </trkpt>
      <trkpt lat="43.523425" lon="10.662294">
        <ele>110.454962</ele>
        <time>2026-05-05T01:11:07.082Z</time>
      </trkpt>
      <trkpt lat="43.523655" lon="10.663145">
        <ele>111.231521</ele>
        <time>2026-05-05T01:11:30.029Z</time>
      </trkpt>
      <trkpt lat="43.523695" lon="10.663403">
        <ele>111.457113</ele>
        <time>2026-05-05T01:11:36.856Z</time>
      </trkpt>
      <trkpt lat="43.523627" lon="10.663624">
        <ele>111.662390</ele>
        <time>2026-05-05T01:11:43.473Z</time>
      </trkpt>
      <trkpt lat="43.523555" lon="10.663754">
        <ele>111.802265</ele>
        <time>2026-05-05T01:11:47.967Z</time>
      </trkpt>
      <trkpt lat="43.523495" lon="10.663994">
        <ele>112.019334</ele>
        <time>2026-05-05T01:11:54.966Z</time>
      </trkpt>
      <trkpt lat="43.523373" lon="10.664316">
        <ele>112.329985</ele>
        <time>2026-05-05T01:12:04.509Z</time>
      </trkpt>
      <trkpt lat="43.523360" lon="10.664492">
        <ele>112.481255</ele>
        <time>2026-05-05T01:12:09.149Z</time>
      </trkpt>
      <trkpt lat="43.523397" lon="10.664667">
        <ele>112.798875</ele>
        <time>2026-05-05T01:12:14.069Z</time>
      </trkpt>
      <trkpt lat="43.523525" lon="10.664996">
        <ele>113.771543</ele>
        <time>2026-05-05T01:12:24.798Z</time>
      </trkpt>
      <trkpt lat="43.523499" lon="10.665050">
        <ele>113.940409</ele>
        <time>2026-05-05T01:12:26.558Z</time>
      </trkpt>
      <trkpt lat="43.523430" lon="10.665670">
        <ele>115.574498</ele>
        <time>2026-05-05T01:12:47.641Z</time>
      </trkpt>
      <trkpt lat="43.523461" lon="10.666094">
        <ele>116.684670</ele>
        <time>2026-05-05T01:13:04.700Z</time>
      </trkpt>
      <trkpt lat="43.523612" lon="10.666657">
        <ele>118.248472</ele>
        <time>2026-05-05T01:13:29.140Z</time>
      </trkpt>
      <trkpt lat="43.523636" lon="10.666840">
        <ele>118.732943</ele>
        <time>2026-05-05T01:13:36.667Z</time>
      </trkpt>
      <trkpt lat="43.523610" lon="10.666947">
        <ele>119.033230</ele>
        <time>2026-05-05T01:13:41.349Z</time>
      </trkpt>
      <trkpt lat="43.523539" lon="10.667086">
        <ele>119.896209</ele>
        <time>2026-05-05T01:13:48.484Z</time>
      </trkpt>
      <trkpt lat="43.523422" lon="10.667210">
        <ele>120.929090</ele>
        <time>2026-05-05T01:13:57.150Z</time>
      </trkpt>
      <trkpt lat="43.522866" lon="10.667596">
        <ele>125.286325</ele>
        <time>2026-05-05T01:14:35.522Z</time>
      </trkpt>
      <trkpt lat="43.522591" lon="10.667993">
        <ele>128.073044</ele>
        <time>2026-05-05T01:15:02.238Z</time>
      </trkpt>
      <trkpt lat="43.522566" lon="10.668148">
        <ele>128.878995</ele>
        <time>2026-05-05T01:15:10.233Z</time>
      </trkpt>
      <trkpt lat="43.522601" lon="10.668444">
        <ele>130.401227</ele>
        <time>2026-05-05T01:15:26.117Z</time>
      </trkpt>
      <trkpt lat="43.522593" lon="10.668631">
        <ele>131.352020</ele>
        <time>2026-05-05T01:15:36.814Z</time>
      </trkpt>
      <trkpt lat="43.522531" lon="10.668798">
        <ele>132.557808</ele>
        <time>2026-05-05T01:15:47.851Z</time>
      </trkpt>
      <trkpt lat="43.521945" lon="10.669694">
        <ele>140.920245</ele>
        <time>2026-05-05T01:17:03.418Z</time>
      </trkpt>
      <trkpt lat="43.521831" lon="10.669721">
        <ele>142.025791</ele>
        <time>2026-05-05T01:17:13.525Z</time>
      </trkpt>
      <trkpt lat="43.521104" lon="10.669897">
        <ele>148.910249</ele>
        <time>2026-05-05T01:18:12.074Z</time>
      </trkpt>
      <trkpt lat="43.520961" lon="10.669959">
        <ele>149.467844</ele>
        <time>2026-05-05T01:18:22.429Z</time>
      </trkpt>
      <trkpt lat="43.520959" lon="10.670171">
        <ele>150.039717</ele>
        <time>2026-05-05T01:18:30.379Z</time>
      </trkpt>
      <trkpt lat="43.520863" lon="10.670667">
        <ele>151.424410</ele>
        <time>2026-05-05T01:18:47.097Z</time>
      </trkpt>
      <trkpt lat="43.520734" lon="10.671039">
        <ele>152.536639</ele>
        <time>2026-05-05T01:18:59.102Z</time>
      </trkpt>
      <trkpt lat="43.520544" lon="10.671333">
        <ele>153.598883</ele>
        <time>2026-05-05T01:19:07.736Z</time>
      </trkpt>
      <trkpt lat="43.520243" lon="10.671658">
        <ele>155.020885</ele>
        <time>2026-05-05T01:19:15.518Z</time>
      </trkpt>
      <trkpt lat="43.520180" lon="10.671731">
        <ele>155.326972</ele>
        <time>2026-05-05T01:19:17.055Z</time>
      </trkpt>
      <trkpt lat="43.519960" lon="10.671989">
        <ele>155.809947</ele>
        <time>2026-05-05T01:19:21.989Z</time>
      </trkpt>
      <trkpt lat="43.519857" lon="10.672247">
        <ele>156.087611</ele>
        <time>2026-05-05T01:19:25.596Z</time>
      </trkpt>
      <trkpt lat="43.519807" lon="10.672553">
        <ele>156.383335</ele>
        <time>2026-05-05T01:19:29.811Z</time>
      </trkpt>
      <trkpt lat="43.519757" lon="10.673506">
        <ele>157.284152</ele>
        <time>2026-05-05T01:19:47.245Z</time>
      </trkpt>
      <trkpt lat="43.519817" lon="10.673789">
        <ele>157.562128</ele>
        <time>2026-05-05T01:19:54.274Z</time>
      </trkpt>
      <trkpt lat="43.519905" lon="10.673962">
        <ele>157.761357</ele>
        <time>2026-05-05T01:20:00.105Z</time>
      </trkpt>
      <trkpt lat="43.519996" lon="10.674076">
        <ele>157.992361</ele>
        <time>2026-05-05T01:20:05.135Z</time>
      </trkpt>
      <trkpt lat="43.520717" lon="10.674616">
        <ele>159.898202</ele>
        <time>2026-05-05T01:20:38.713Z</time>
      </trkpt>
      <trkpt lat="43.521406" lon="10.675050">
        <ele>161.657703</ele>
        <time>2026-05-05T01:20:57.129Z</time>
      </trkpt>
      <trkpt lat="43.521523" lon="10.675149">
        <ele>161.976557</ele>
        <time>2026-05-05T01:20:59.420Z</time>
      </trkpt>
      <trkpt lat="43.521898" lon="10.675559">
        <ele>163.679537</ele>
        <time>2026-05-05T01:21:08.535Z</time>
      </trkpt>
      <trkpt lat="43.522332" lon="10.676200">
        <ele>165.965959</ele>
        <time>2026-05-05T01:21:30.549Z</time>
      </trkpt>
      <trkpt lat="43.522964" lon="10.676237">
        <ele>168.240346</ele>
        <time>2026-05-05T01:22:00.427Z</time>
      </trkpt>
      <trkpt lat="43.523201" lon="10.676156">
        <ele>169.212481</ele>
        <time>2026-05-05T01:22:14.579Z</time>
      </trkpt>
      <trkpt lat="43.523399" lon="10.676137">
        <ele>170.030766</ele>
        <time>2026-05-05T01:22:27.026Z</time>
      </trkpt>
      <trkpt lat="43.523809" lon="10.676253">
        <ele>171.756309</ele>
        <time>2026-05-05T01:22:52.162Z</time>
      </trkpt>
      <trkpt lat="43.523868" lon="10.676274">
        <ele>172.007523</ele>
        <time>2026-05-05T01:22:55.171Z</time>
      </trkpt>
      <trkpt lat="43.523961" lon="10.676306">
        <ele>172.402695</ele>
        <time>2026-05-05T01:22:59.501Z</time>
      </trkpt>
      <trkpt lat="43.524255" lon="10.676429">
        <ele>173.669335</ele>
        <time>2026-05-05T01:23:10.536Z</time>
      </trkpt>
      <trkpt lat="43.524373" lon="10.676519">
        <ele>174.225262</ele>
        <time>2026-05-05T01:23:13.959Z</time>
      </trkpt>
      <trkpt lat="43.524557" lon="10.676687">
        <ele>175.135029</ele>
        <time>2026-05-05T01:23:18.170Z</time>
      </trkpt>
      <trkpt lat="43.524588" lon="10.676744">
        <ele>175.348027</ele>
        <time>2026-05-05T01:23:19.099Z</time>
      </trkpt>
      <trkpt lat="43.524530" lon="10.677051">
        <ele>175.588405</ele>
        <time>2026-05-05T01:23:22.965Z</time>
      </trkpt>
      <trkpt lat="43.524528" lon="10.677190">
        <ele>175.277950</ele>
        <time>2026-05-05T01:23:24.623Z</time>
      </trkpt>
      <trkpt lat="43.524553" lon="10.677267">
        <ele>175.089554</ele>
        <time>2026-05-05T01:23:25.616Z</time>
      </trkpt>
      <trkpt lat="43.524681" lon="10.677409">
        <ele>174.583644</ele>
        <time>2026-05-05T01:23:28.203Z</time>
      </trkpt>
      <trkpt lat="43.524711" lon="10.677457">
        <ele>174.442134</ele>
        <time>2026-05-05T01:23:28.906Z</time>
      </trkpt>
      <trkpt lat="43.524745" lon="10.677621">
        <ele>174.061240</ele>
        <time>2026-05-05T01:23:30.762Z</time>
      </trkpt>
      <trkpt lat="43.524755" lon="10.677942">
        <ele>173.343773</ele>
        <time>2026-05-05T01:23:34.107Z</time>
      </trkpt>
      <trkpt lat="43.524747" lon="10.678206">
        <ele>172.753736</ele>
        <time>2026-05-05T01:23:36.755Z</time>
      </trkpt>
      <trkpt lat="43.524779" lon="10.678545">
        <ele>171.990348</ele>
        <time>2026-05-05T01:23:40.146Z</time>
      </trkpt>
      <trkpt lat="43.524840" lon="10.678762">
        <ele>171.470637</ele>
        <time>2026-05-05T01:23:42.464Z</time>
      </trkpt>
      <trkpt lat="43.524870" lon="10.679136">
        <ele>170.630387</ele>
        <time>2026-05-05T01:23:46.171Z</time>
      </trkpt>
      <trkpt lat="43.524825" lon="10.679983">
        <ele>168.355606</ele>
        <time>2026-05-05T01:23:54.477Z</time>
      </trkpt>
      <trkpt lat="43.524935" lon="10.680322">
        <ele>167.332325</ele>
        <time>2026-05-05T01:23:58.092Z</time>
      </trkpt>
      <trkpt lat="43.524959" lon="10.680991">
        <ele>165.486834</ele>
        <time>2026-05-05T01:24:04.613Z</time>
      </trkpt>
      <trkpt lat="43.524959" lon="10.681105">
        <ele>165.172740</ele>
        <time>2026-05-05T01:24:05.793Z</time>
      </trkpt>
      <trkpt lat="43.524950" lon="10.681809">
        <ele>163.494423</ele>
        <time>2026-05-05T01:24:13.789Z</time>
      </trkpt>
      <trkpt lat="43.524946" lon="10.682015">
        <ele>163.449067</ele>
        <time>2026-05-05T01:24:16.238Z</time>
      </trkpt>
      <trkpt lat="43.524953" lon="10.682275">
        <ele>163.391803</ele>
        <time>2026-05-05T01:24:19.375Z</time>
      </trkpt>
      <trkpt lat="43.524979" lon="10.682415">
        <ele>163.359995</ele>
        <time>2026-05-05T01:24:21.049Z</time>
      </trkpt>
      <trkpt lat="43.525021" lon="10.682496">
        <ele>163.338078</ele>
        <time>2026-05-05T01:24:22.265Z</time>
      </trkpt>
      <trkpt lat="43.525326" lon="10.682666">
        <ele>163.238222</ele>
        <time>2026-05-05T01:24:28.230Z</time>
      </trkpt>
      <trkpt lat="43.525454" lon="10.682784">
        <ele>163.191487</ele>
        <time>2026-05-05T01:24:31.330Z</time>
      </trkpt>
      <trkpt lat="43.525516" lon="10.682901">
        <ele>163.159592</ele>
        <time>2026-05-05T01:24:33.500Z</time>
      </trkpt>
      <trkpt lat="43.525674" lon="10.683264">
        <ele>163.066409</ele>
        <time>2026-05-05T01:24:40.742Z</time>
      </trkpt>
      <trkpt lat="43.525672" lon="10.683444">
        <ele>163.026788</ele>
        <time>2026-05-05T01:24:43.987Z</time>
      </trkpt>
      <trkpt lat="43.525852" lon="10.683523">
        <ele>162.976595</ele>
        <time>2026-05-05T01:24:48.691Z</time>
      </trkpt>
      <trkpt lat="43.526549" lon="10.683980">
        <ele>163.717214</ele>
        <time>2026-05-05T01:25:06.164Z</time>
      </trkpt>
      <trkpt lat="43.526675" lon="10.684096">
        <ele>163.862594</ele>
        <time>2026-05-05T01:25:10.165Z</time>
      </trkpt>
      <trkpt lat="43.527042" lon="10.684639">
        <ele>164.379110</ele>
        <time>2026-05-05T01:25:25.505Z</time>
      </trkpt>
      <trkpt lat="43.527255" lon="10.684876">
        <ele>164.641742</ele>
        <time>2026-05-05T01:25:32.330Z</time>
      </trkpt>
      <trkpt lat="43.528233" lon="10.685480">
        <ele>163.651836</ele>
        <time>2026-05-05T01:25:51.695Z</time>
      </trkpt>
      <trkpt lat="43.528545" lon="10.685672">
        <ele>163.299513</ele>
        <time>2026-05-05T01:25:57.007Z</time>
      </trkpt>
      <trkpt lat="43.528787" lon="10.685775">
        <ele>163.038338</ele>
        <time>2026-05-05T01:26:00.865Z</time>
      </trkpt>
      <trkpt lat="43.528965" lon="10.685799">
        <ele>162.853900</ele>
        <time>2026-05-05T01:26:03.559Z</time>
      </trkpt>
      <trkpt lat="43.529642" lon="10.685569">
        <ele>160.349365</ele>
        <time>2026-05-05T01:26:13.868Z</time>
      </trkpt>
      <trkpt lat="43.529949" lon="10.685563">
        <ele>159.233695</ele>
        <time>2026-05-05T01:26:18.407Z</time>
      </trkpt>
      <trkpt lat="43.530307" lon="10.685649">
        <ele>157.913234</ele>
        <time>2026-05-05T01:26:23.555Z</time>
      </trkpt>
      <trkpt lat="43.530412" lon="10.685759">
        <ele>157.434114</ele>
        <time>2026-05-05T01:26:25.364Z</time>
      </trkpt>
      <trkpt lat="43.530815" lon="10.686546">
        <ele>153.213841</ele>
        <time>2026-05-05T01:26:34.530Z</time>
      </trkpt>
      <trkpt lat="43.530337" lon="10.687991">
        <ele>144.041051</ele>
        <time>2026-05-05T01:26:59.679Z</time>
      </trkpt>
      <trkpt lat="43.530069" lon="10.688576">
        <ele>140.707582</ele>
        <time>2026-05-05T01:27:10.544Z</time>
      </trkpt>
      <trkpt lat="43.530096" lon="10.688769">
        <ele>139.961457</ele>
        <time>2026-05-05T01:27:13.722Z</time>
      </trkpt>
      <trkpt lat="43.530388" lon="10.689070">
        <ele>138.052867</ele>
        <time>2026-05-05T01:27:22.052Z</time>
      </trkpt>
      <trkpt lat="43.530642" lon="10.689633">
        <ele>135.535797</ele>
        <time>2026-05-05T01:27:33.745Z</time>
      </trkpt>
      <trkpt lat="43.530890" lon="10.690454">
        <ele>132.267070</ele>
        <time>2026-05-05T01:27:51.314Z</time>
      </trkpt>
      <trkpt lat="43.530951" lon="10.691537">
        <ele>129.244108</ele>
        <time>2026-05-05T01:28:13.474Z</time>
      </trkpt>
      <trkpt lat="43.530960" lon="10.691573">
        <ele>129.138135</ele>
        <time>2026-05-05T01:28:14.311Z</time>
      </trkpt>
      <trkpt lat="43.530960" lon="10.691573">
        <ele>129.138135</ele>
        <time>2026-05-05T01:28:14.335Z</time>
      </trkpt>
      <trkpt lat="43.530960" lon="10.691573">
        <ele>129.138135</ele>
        <time>2026-05-05T01:28:14.335Z</time>
      </trkpt>
      <trkpt lat="43.531082" lon="10.692257">
        <ele>127.177877</ele>
        <time>2026-05-05T01:28:36.192Z</time>
      </trkpt>
      <trkpt lat="43.531204" lon="10.692942">
        <ele>124.719458</ele>
        <time>2026-05-05T01:28:58.095Z</time>
      </trkpt>
      <trkpt lat="43.531204" lon="10.692942">
        <ele>124.719458</ele>
        <time>2026-05-05T01:28:58.285Z</time>
      </trkpt>
      <trkpt lat="43.531204" lon="10.692942">
        <ele>124.719458</ele>
        <time>2026-05-05T01:28:58.285Z</time>
      </trkpt>
      <trkpt lat="43.531258" lon="10.693894">
        <ele>119.090351</ele>
        <time>2026-05-05T01:29:27.967Z</time>
      </trkpt>
      <trkpt lat="43.531312" lon="10.694846">
        <ele>113.461250</ele>
        <time>2026-05-05T01:29:57.671Z</time>
      </trkpt>
      <trkpt lat="43.531606" lon="10.695432">
        <ele>109.345986</ele>
        <time>2026-05-05T01:30:09.217Z</time>
      </trkpt>
      <trkpt lat="43.531645" lon="10.695430">
        <ele>109.043984</ele>
        <time>2026-05-05T01:30:10.075Z</time>
      </trkpt>
      <trkpt lat="43.531921" lon="10.695416">
        <ele>106.906770</ele>
        <time>2026-05-05T01:30:16.181Z</time>
      </trkpt>
      <trkpt lat="43.532134" lon="10.695315">
        <ele>105.163836</ele>
        <time>2026-05-05T01:30:21.135Z</time>
      </trkpt>
      <trkpt lat="43.532477" lon="10.695282">
        <ele>102.503152</ele>
        <time>2026-05-05T01:30:28.747Z</time>
      </trkpt>
      <trkpt lat="43.532510" lon="10.695361">
        <ele>101.991646</ele>
        <time>2026-05-05T01:30:30.232Z</time>
      </trkpt>
      <trkpt lat="43.532544" lon="10.695440">
        <ele>101.476234</ele>
        <time>2026-05-05T01:30:31.721Z</time>
      </trkpt>
      <trkpt lat="43.532598" lon="10.696035">
        <ele>98.112151</ele>
        <time>2026-05-05T01:30:41.460Z</time>
      </trkpt>
      <trkpt lat="43.532626" lon="10.696104">
        <ele>97.668538</ele>
        <time>2026-05-05T01:30:42.781Z</time>
      </trkpt>
      <trkpt lat="43.532684" lon="10.696149">
        <ele>97.153587</ele>
        <time>2026-05-05T01:30:44.304Z</time>
      </trkpt>
      <trkpt lat="43.532861" lon="10.696207">
        <ele>96.084030</ele>
        <time>2026-05-05T01:30:48.425Z</time>
      </trkpt>
      <trkpt lat="43.533428" lon="10.696321">
        <ele>92.745458</ele>
        <time>2026-05-05T01:31:02.549Z</time>
      </trkpt>
      <trkpt lat="43.533454" lon="10.696294">
        <ele>92.555835</ele>
        <time>2026-05-05T01:31:03.389Z</time>
      </trkpt>
      <trkpt lat="43.533454" lon="10.696294">
        <ele>92.555835</ele>
        <time>2026-05-05T01:31:03.436Z</time>
      </trkpt>
      <trkpt lat="43.533454" lon="10.696294">
        <ele>92.555835</ele>
        <time>2026-05-05T01:31:03.436Z</time>
      </trkpt>
      <trkpt lat="43.533911" lon="10.695964">
        <ele>89.550297</ele>
        <time>2026-05-05T01:31:25.510Z</time>
      </trkpt>
      <trkpt lat="43.534368" lon="10.695635">
        <ele>86.490667</ele>
        <time>2026-05-05T01:31:47.592Z</time>
      </trkpt>
      <trkpt lat="43.534581" lon="10.696582">
        <ele>79.643324</ele>
        <time>2026-05-05T01:32:18.448Z</time>
      </trkpt>
      <trkpt lat="43.534795" lon="10.697530">
        <ele>72.786581</ele>
        <time>2026-05-05T01:32:49.416Z</time>
      </trkpt>
      <trkpt lat="43.535008" lon="10.698477">
        <ele>67.777843</ele>
        <time>2026-05-05T01:33:20.246Z</time>
      </trkpt>
      <trkpt lat="43.535222" lon="10.699424">
        <ele>64.463292</ele>
        <time>2026-05-05T01:33:51.023Z</time>
      </trkpt>
      <trkpt lat="43.535222" lon="10.699424">
        <ele>64.463292</ele>
        <time>2026-05-05T01:33:51.062Z</time>
      </trkpt>
      <trkpt lat="43.535222" lon="10.699424">
        <ele>64.463292</ele>
        <time>2026-05-05T01:33:51.062Z</time>
      </trkpt>
      <trkpt lat="43.535878" lon="10.699533">
        <ele>61.417772</ele>
        <time>2026-05-05T01:34:19.326Z</time>
      </trkpt>
      <trkpt lat="43.536534" lon="10.699642">
        <ele>59.728288</ele>
        <time>2026-05-05T01:34:47.588Z</time>
      </trkpt>
      <trkpt lat="43.537190" lon="10.699750">
        <ele>58.137735</ele>
        <time>2026-05-05T01:35:15.845Z</time>
      </trkpt>
      <trkpt lat="43.537190" lon="10.699750">
        <ele>58.137735</ele>
        <time>2026-05-05T01:35:15.876Z</time>
      </trkpt>
      <trkpt lat="43.537190" lon="10.699750">
        <ele>58.137735</ele>
        <time>2026-05-05T01:35:15.876Z</time>
      </trkpt>
      <trkpt lat="43.537425" lon="10.700765">
        <ele>56.190128</ele>
        <time>2026-05-05T01:35:48.921Z</time>
      </trkpt>
      <trkpt lat="43.537660" lon="10.701780">
        <ele>54.059027</ele>
        <time>2026-05-05T01:36:21.969Z</time>
      </trkpt>
      <trkpt lat="43.537895" lon="10.702796">
        <ele>51.926029</ele>
        <time>2026-05-05T01:36:55.031Z</time>
      </trkpt>
      <trkpt lat="43.538620" lon="10.703457">
        <ele>50.857024</ele>
        <time>2026-05-05T01:37:09.601Z</time>
      </trkpt>
      <trkpt lat="43.538653" lon="10.704007">
        <ele>50.366880</ele>
        <time>2026-05-05T01:37:16.900Z</time>
      </trkpt>
      <trkpt lat="43.538714" lon="10.704181">
        <ele>50.195223</ele>
        <time>2026-05-05T01:37:19.534Z</time>
      </trkpt>
      <trkpt lat="43.538827" lon="10.704329">
        <ele>50.004319</ele>
        <time>2026-05-05T01:37:22.498Z</time>
      </trkpt>
      <trkpt lat="43.539032" lon="10.704598">
        <ele>49.706567</ele>
        <time>2026-05-05T01:37:28.005Z</time>
      </trkpt>
      <trkpt lat="43.539073" lon="10.704723">
        <ele>49.689226</ele>
        <time>2026-05-05T01:37:29.976Z</time>
      </trkpt>
      <trkpt lat="43.539027" lon="10.705793">
        <ele>49.553751</ele>
        <time>2026-05-05T01:37:45.652Z</time>
      </trkpt>
      <trkpt lat="43.539065" lon="10.706967">
        <ele>49.405222</ele>
        <time>2026-05-05T01:38:02.461Z</time>
      </trkpt>
      <trkpt lat="43.539074" lon="10.707511">
        <ele>49.080491</ele>
        <time>2026-05-05T01:38:09.954Z</time>
      </trkpt>
      <trkpt lat="43.539053" lon="10.707557">
        <ele>49.046410</ele>
        <time>2026-05-05T01:38:10.706Z</time>
      </trkpt>
      <trkpt lat="43.538890" lon="10.707710">
        <ele>48.875900</ele>
        <time>2026-05-05T01:38:14.418Z</time>
      </trkpt>
      <trkpt lat="43.538892" lon="10.707868">
        <ele>48.776829</ele>
        <time>2026-05-05T01:38:16.550Z</time>
      </trkpt>
      <trkpt lat="43.539099" lon="10.708365">
        <ele>48.417473</ele>
        <time>2026-05-05T01:38:24.129Z</time>
      </trkpt>
      <trkpt lat="43.539361" lon="10.708898">
        <ele>48.013736</ele>
        <time>2026-05-05T01:38:32.387Z</time>
      </trkpt>
      <trkpt lat="43.539625" lon="10.709256">
        <ele>47.522119</ele>
        <time>2026-05-05T01:38:38.760Z</time>
      </trkpt>
      <trkpt lat="43.539726" lon="10.709394">
        <ele>47.260446</ele>
        <time>2026-05-05T01:38:41.172Z</time>
      </trkpt>
      <trkpt lat="43.539786" lon="10.709521">
        <ele>47.058169</ele>
        <time>2026-05-05T01:38:43.033Z</time>
      </trkpt>
      <trkpt lat="43.539810" lon="10.709891">
        <ele>46.562486</ele>
        <time>2026-05-05T01:38:47.530Z</time>
      </trkpt>
      <trkpt lat="43.540144" lon="10.711229">
        <ele>44.674231</ele>
        <time>2026-05-05T01:39:04.316Z</time>
      </trkpt>
      <trkpt lat="43.540186" lon="10.711307">
        <ele>44.544579</ele>
        <time>2026-05-05T01:39:05.456Z</time>
      </trkpt>
      <trkpt lat="43.540666" lon="10.711873">
        <ele>43.780091</ele>
        <time>2026-05-05T01:39:15.831Z</time>
      </trkpt>
      <trkpt lat="43.540755" lon="10.711918">
        <ele>43.665845</ele>
        <time>2026-05-05T01:39:17.403Z</time>
      </trkpt>
      <trkpt lat="43.541797" lon="10.711922">
        <ele>42.409964</ele>
        <time>2026-05-05T01:39:36.259Z</time>
      </trkpt>
      <trkpt lat="43.541839" lon="10.711848">
        <ele>42.382241</ele>
        <time>2026-05-05T01:39:37.619Z</time>
      </trkpt>
      <trkpt lat="43.541840" lon="10.711784">
        <ele>42.404343</ele>
        <time>2026-05-05T01:39:38.556Z</time>
      </trkpt>
      <trkpt lat="43.541767" lon="10.711355">
        <ele>42.556487</ele>
        <time>2026-05-05T01:39:45.278Z</time>
      </trkpt>
      <trkpt lat="43.541729" lon="10.710956">
        <ele>42.695431</ele>
        <time>2026-05-05T01:39:51.905Z</time>
      </trkpt>
      <trkpt lat="43.541789" lon="10.710803">
        <ele>42.755491</ele>
        <time>2026-05-05T01:39:55.083Z</time>
      </trkpt>
      <trkpt lat="43.541963" lon="10.710754">
        <ele>42.840077</ele>
        <time>2026-05-05T01:39:59.979Z</time>
      </trkpt>
      <trkpt lat="43.542159" lon="10.710783">
        <ele>42.933969</ele>
        <time>2026-05-05T01:40:05.709Z</time>
      </trkpt>
      <trkpt lat="43.542750" lon="10.710772">
        <ele>43.215492</ele>
        <time>2026-05-05T01:40:20.250Z</time>
      </trkpt>
      <trkpt lat="43.543038" lon="10.710622">
        <ele>43.007510</ele>
        <time>2026-05-05T01:40:26.281Z</time>
      </trkpt>
      <trkpt lat="43.543138" lon="10.710556">
        <ele>42.925197</ele>
        <time>2026-05-05T01:40:28.344Z</time>
      </trkpt>
      <trkpt lat="43.543366" lon="10.712260">
        <ele>41.992556</ele>
        <time>2026-05-05T01:40:48.784Z</time>
      </trkpt>
      <trkpt lat="43.543447" lon="10.712871">
        <ele>42.539272</ele>
        <time>2026-05-05T01:40:56.345Z</time>
      </trkpt>
      <trkpt lat="43.543652" lon="10.714326">
        <ele>44.800873</ele>
        <time>2026-05-05T01:41:27.924Z</time>
      </trkpt>
      <trkpt lat="43.543713" lon="10.714686">
        <ele>45.364972</ele>
        <time>2026-05-05T01:41:38.928Z</time>
      </trkpt>
      <trkpt lat="43.543784" lon="10.714827">
        <ele>45.626928</ele>
        <time>2026-05-05T01:41:44.266Z</time>
      </trkpt>
      <trkpt lat="43.543931" lon="10.714924">
        <ele>46.427919</ele>
        <time>2026-05-05T01:41:51.544Z</time>
      </trkpt>
      <trkpt lat="43.544872" lon="10.714944">
        <ele>51.476016</ele>
        <time>2026-05-05T01:42:36.763Z</time>
      </trkpt>
      <trkpt lat="43.544946" lon="10.714946">
        <ele>51.873026</ele>
        <time>2026-05-05T01:42:40.333Z</time>
      </trkpt>
      <trkpt lat="43.545742" lon="10.714950">
        <ele>56.210034</ele>
        <time>2026-05-05T01:43:17.442Z</time>
      </trkpt>
      <trkpt lat="43.545835" lon="10.715036">
        <ele>56.859785</ele>
        <time>2026-05-05T01:43:22.513Z</time>
      </trkpt>
      <trkpt lat="43.545855" lon="10.715189">
        <ele>57.513765</ele>
        <time>2026-05-05T01:43:27.486Z</time>
      </trkpt>
      <trkpt lat="43.545805" lon="10.715293">
        <ele>58.038731</ele>
        <time>2026-05-05T01:43:31.536Z</time>
      </trkpt>
      <trkpt lat="43.545755" lon="10.715335">
        <ele>58.378460</ele>
        <time>2026-05-05T01:43:34.123Z</time>
      </trkpt>
      <trkpt lat="43.545441" lon="10.715517">
        <ele>60.355052</ele>
        <time>2026-05-05T01:43:49.558Z</time>
      </trkpt>
      <trkpt lat="43.544848" lon="10.715860">
        <ele>64.086758</ele>
        <time>2026-05-05T01:44:20.725Z</time>
      </trkpt>
      <trkpt lat="43.544773" lon="10.715998">
        <ele>64.812324</ele>
        <time>2026-05-05T01:44:27.097Z</time>
      </trkpt>
      <trkpt lat="43.544781" lon="10.716112">
        <ele>65.294118</ele>
        <time>2026-05-05T01:44:31.459Z</time>
      </trkpt>
      <trkpt lat="43.544804" lon="10.716153">
        <ele>65.512208</ele>
        <time>2026-05-05T01:44:33.388Z</time>
      </trkpt>
      <trkpt lat="43.544901" lon="10.716213">
        <ele>66.152238</ele>
        <time>2026-05-05T01:44:39.456Z</time>
      </trkpt>
      <trkpt lat="43.545717" lon="10.716356">
        <ele>71.225015</ele>
        <time>2026-05-05T01:45:24.689Z</time>
      </trkpt>
      <trkpt lat="43.545874" lon="10.716464">
        <ele>72.306929</ele>
        <time>2026-05-05T01:45:33.521Z</time>
      </trkpt>
      <trkpt lat="43.545907" lon="10.716603">
        <ele>72.960746</ele>
        <time>2026-05-05T01:45:38.816Z</time>
      </trkpt>
      <trkpt lat="43.545839" lon="10.716758">
        <ele>73.770632</ele>
        <time>2026-05-05T01:45:44.819Z</time>
      </trkpt>
      <trkpt lat="43.545727" lon="10.716825">
        <ele>74.523481</ele>
        <time>2026-05-05T01:45:50.098Z</time>
      </trkpt>
      <trkpt lat="43.545375" lon="10.716923">
        <ele>76.738054</ele>
        <time>2026-05-05T01:46:05.726Z</time>
      </trkpt>
      <trkpt lat="43.545040" lon="10.717016">
        <ele>78.624153</ele>
        <time>2026-05-05T01:46:21.925Z</time>
      </trkpt>
      <trkpt lat="43.544543" lon="10.717171">
        <ele>81.417560</ele>
        <time>2026-05-05T01:46:44.210Z</time>
      </trkpt>
      <trkpt lat="43.544471" lon="10.717268">
        <ele>81.969263</ele>
        <time>2026-05-05T01:46:48.589Z</time>
      </trkpt>
      <trkpt lat="43.544465" lon="10.717349">
        <ele>82.292811</ele>
        <time>2026-05-05T01:46:51.233Z</time>
      </trkpt>
      <trkpt lat="43.544491" lon="10.717435">
        <ele>82.663086</ele>
        <time>2026-05-05T01:46:54.348Z</time>
      </trkpt>
      <trkpt lat="43.544574" lon="10.717486">
        <ele>83.161199</ele>
        <time>2026-05-05T01:46:58.509Z</time>
      </trkpt>
      <trkpt lat="43.544682" lon="10.717510">
        <ele>83.760910</ele>
        <time>2026-05-05T01:47:03.549Z</time>
      </trkpt>
      <trkpt lat="43.544840" lon="10.717544">
        <ele>84.637572</ele>
        <time>2026-05-05T01:47:11.120Z</time>
      </trkpt>
      <trkpt lat="43.545728" lon="10.717670">
        <ele>90.437657</ele>
        <time>2026-05-05T01:47:57.192Z</time>
      </trkpt>
      <trkpt lat="43.545774" lon="10.717676">
        <ele>90.772418</ele>
        <time>2026-05-05T01:47:58.908Z</time>
      </trkpt>
      <trkpt lat="43.546044" lon="10.717721">
        <ele>92.742819</ele>
        <time>2026-05-05T01:48:12.604Z</time>
      </trkpt>
      <trkpt lat="43.546159" lon="10.717775">
        <ele>93.622942</ele>
        <time>2026-05-05T01:48:19.341Z</time>
      </trkpt>
      <trkpt lat="43.546190" lon="10.717720">
        <ele>93.988818</ele>
        <time>2026-05-05T01:48:21.510Z</time>
      </trkpt>
      <trkpt lat="43.546279" lon="10.717840">
        <ele>94.890425</ele>
        <time>2026-05-05T01:48:30.148Z</time>
      </trkpt>
      <trkpt lat="43.546271" lon="10.717783">
        <ele>95.195314</ele>
        <time>2026-05-05T01:48:33.098Z</time>
      </trkpt>
      <trkpt lat="43.546279" lon="10.717840">
        <ele>95.500203</ele>
        <time>2026-05-05T01:48:36.055Z</time>
      </trkpt>
      <trkpt lat="43.546190" lon="10.717720">
        <ele>96.401810</ele>
        <time>2026-05-05T01:48:44.691Z</time>
      </trkpt>
      <trkpt lat="43.546159" lon="10.717775">
        <ele>96.767686</ele>
        <time>2026-05-05T01:48:48.356Z</time>
      </trkpt>
      <trkpt lat="43.546209" lon="10.717844">
        <ele>97.280057</ele>
        <time>2026-05-05T01:48:52.412Z</time>
      </trkpt>
      <trkpt lat="43.546283" lon="10.718043">
        <ele>98.454588</ele>
        <time>2026-05-05T01:49:02.737Z</time>
      </trkpt>
      <trkpt lat="43.546532" lon="10.718952">
        <ele>103.591465</ele>
        <time>2026-05-05T01:49:47.787Z</time>
      </trkpt>
      <trkpt lat="43.546582" lon="10.719209">
        <ele>105.001245</ele>
        <time>2026-05-05T01:49:59.688Z</time>
      </trkpt>
      <trkpt lat="43.546568" lon="10.719212">
        <ele>105.104804</ele>
        <time>2026-05-05T01:50:00.522Z</time>
      </trkpt>
      <trkpt lat="43.546540" lon="10.719294">
        <ele>105.585034</ele>
        <time>2026-05-05T01:50:04.690Z</time>
      </trkpt>
      <trkpt lat="43.545803" lon="10.719615">
        <ele>111.234162</ele>
        <time>2026-05-05T01:50:47.313Z</time>
      </trkpt>
      <trkpt lat="43.545782" lon="10.719625">
        <ele>111.396546</ele>
        <time>2026-05-05T01:50:48.377Z</time>
      </trkpt>
      <trkpt lat="43.545491" lon="10.719761">
        <ele>113.287267</ele>
        <time>2026-05-05T01:51:02.780Z</time>
      </trkpt>
      <trkpt lat="43.545384" lon="10.719852">
        <ele>113.771388</ele>
        <time>2026-05-05T01:51:08.086Z</time>
      </trkpt>
      <trkpt lat="43.545153" lon="10.720135">
        <ele>114.961233</ele>
        <time>2026-05-05T01:51:20.870Z</time>
      </trkpt>
      <trkpt lat="43.545046" lon="10.720321">
        <ele>115.624150</ele>
        <time>2026-05-05T01:51:27.847Z</time>
      </trkpt>
      <trkpt lat="43.545020" lon="10.720351">
        <ele>115.754695</ele>
        <time>2026-05-05T01:51:29.056Z</time>
      </trkpt>
      <trkpt lat="43.544986" lon="10.720396">
        <ele>115.936162</ele>
        <time>2026-05-05T01:51:30.842Z</time>
      </trkpt>
      <trkpt lat="43.544937" lon="10.720472">
        <ele>116.220120</ele>
        <time>2026-05-05T01:51:33.791Z</time>
      </trkpt>
      <trkpt lat="43.544895" lon="10.720526">
        <ele>116.441238</ele>
        <time>2026-05-05T01:51:35.809Z</time>
      </trkpt>
      <trkpt lat="43.544901" lon="10.720598">
        <ele>116.643565</ele>
        <time>2026-05-05T01:51:37.809Z</time>
      </trkpt>
      <trkpt lat="43.544929" lon="10.720630">
        <ele>116.783602</ele>
        <time>2026-05-05T01:51:39.174Z</time>
      </trkpt>
      <trkpt lat="43.544958" lon="10.720636">
        <ele>116.896545</ele>
        <time>2026-05-05T01:51:40.211Z</time>
      </trkpt>
      <trkpt lat="43.545096" lon="10.720676">
        <ele>117.439655</ele>
        <time>2026-05-05T01:51:45.373Z</time>
      </trkpt>
      <trkpt lat="43.545404" lon="10.720778">
        <ele>118.659614</ele>
        <time>2026-05-05T01:51:56.424Z</time>
      </trkpt>
      <trkpt lat="43.545525" lon="10.720824">
        <ele>119.143014</ele>
        <time>2026-05-05T01:52:00.765Z</time>
      </trkpt>
      <trkpt lat="43.545824" lon="10.721104">
        <ele>119.942012</ele>
        <time>2026-05-05T01:52:13.001Z</time>
      </trkpt>
      <trkpt lat="43.545685" lon="10.721232">
        <ele>120.052416</ele>
        <time>2026-05-05T01:52:18.418Z</time>
      </trkpt>
      <trkpt lat="43.545312" lon="10.721408">
        <ele>120.312844</ele>
        <time>2026-05-05T01:52:29.026Z</time>
      </trkpt>
      <trkpt lat="43.545273" lon="10.721426">
        <ele>120.340012</ele>
        <time>2026-05-05T01:52:29.994Z</time>
      </trkpt>
      <trkpt lat="43.545250" lon="10.721437">
        <ele>120.356094</ele>
        <time>2026-05-05T01:52:30.549Z</time>
      </trkpt>
      <trkpt lat="43.544801" lon="10.721668">
        <ele>120.672670</ele>
        <time>2026-05-05T01:52:38.956Z</time>
      </trkpt>
      <trkpt lat="43.544719" lon="10.721754">
        <ele>120.740718</ele>
        <time>2026-05-05T01:52:40.519Z</time>
      </trkpt>
      <trkpt lat="43.544497" lon="10.721996">
        <ele>120.927634</ele>
        <time>2026-05-05T01:52:45.095Z</time>
      </trkpt>
      <trkpt lat="43.544364" lon="10.722250">
        <ele>121.023299</ele>
        <time>2026-05-05T01:52:49.639Z</time>
      </trkpt>
      <trkpt lat="43.544314" lon="10.722340">
        <ele>121.035515</ele>
        <time>2026-05-05T01:52:51.444Z</time>
      </trkpt>
      <trkpt lat="43.544272" lon="10.722417">
        <ele>121.045897</ele>
        <time>2026-05-05T01:52:53.245Z</time>
      </trkpt>
      <trkpt lat="43.544088" lon="10.722878">
        <ele>121.102592</ele>
        <time>2026-05-05T01:53:01.321Z</time>
      </trkpt>
      <trkpt lat="43.544150" lon="10.722918">
        <ele>121.112765</ele>
        <time>2026-05-05T01:53:03.642Z</time>
      </trkpt>
      <trkpt lat="43.544088" lon="10.722878">
        <ele>121.122938</ele>
        <time>2026-05-05T01:53:05.725Z</time>
      </trkpt>
      <trkpt lat="43.544272" lon="10.722417">
        <ele>121.179633</ele>
        <time>2026-05-05T01:53:12.611Z</time>
      </trkpt>
      <trkpt lat="43.544314" lon="10.722340">
        <ele>121.190015</ele>
        <time>2026-05-05T01:53:13.766Z</time>
      </trkpt>
      <trkpt lat="43.544364" lon="10.722250">
        <ele>121.202231</ele>
        <time>2026-05-05T01:53:15.225Z</time>
      </trkpt>
      <trkpt lat="43.544497" lon="10.721996">
        <ele>121.235988</ele>
        <time>2026-05-05T01:53:19.460Z</time>
      </trkpt>
      <trkpt lat="43.544719" lon="10.721754">
        <ele>121.329500</ele>
        <time>2026-05-05T01:53:26.955Z</time>
      </trkpt>
      <trkpt lat="43.544801" lon="10.721668">
        <ele>121.591006</ele>
        <time>2026-05-05T01:53:30.152Z</time>
      </trkpt>
      <trkpt lat="43.545250" lon="10.721437">
        <ele>122.807606</ele>
        <time>2026-05-05T01:53:42.623Z</time>
      </trkpt>
      <trkpt lat="43.545273" lon="10.721426">
        <ele>122.869407</ele>
        <time>2026-05-05T01:53:43.188Z</time>
      </trkpt>
      <trkpt lat="43.545312" lon="10.721408">
        <ele>122.973814</ele>
        <time>2026-05-05T01:53:44.105Z</time>
      </trkpt>
      <trkpt lat="43.545395" lon="10.721368">
        <ele>123.197020</ele>
        <time>2026-05-05T01:53:46.093Z</time>
      </trkpt>
      <trkpt lat="43.545685" lon="10.721232">
        <ele>123.974644</ele>
        <time>2026-05-05T01:53:53.775Z</time>
      </trkpt>
      <trkpt lat="43.545824" lon="10.721104">
        <ele>124.398924</ele>
        <time>2026-05-05T01:53:58.655Z</time>
      </trkpt>
      <trkpt lat="43.546247" lon="10.721123">
        <ele>125.473404</ele>
        <time>2026-05-05T01:54:14.077Z</time>
      </trkpt>
      <trkpt lat="43.546331" lon="10.721123">
        <ele>125.686663</ele>
        <time>2026-05-05T01:54:17.980Z</time>
      </trkpt>
      <trkpt lat="43.546484" lon="10.721109">
        <ele>126.519439</ele>
        <time>2026-05-05T01:54:25.619Z</time>
      </trkpt>
      <trkpt lat="43.546561" lon="10.721098">
        <ele>127.087300</ele>
        <time>2026-05-05T01:54:29.734Z</time>
      </trkpt>
      <trkpt lat="43.546802" lon="10.721026">
        <ele>128.896153</ele>
        <time>2026-05-05T01:54:43.794Z</time>
      </trkpt>
      <trkpt lat="43.547028" lon="10.721004">
        <ele>130.558120</ele>
        <time>2026-05-05T01:54:57.278Z</time>
      </trkpt>
      <trkpt lat="43.547058" lon="10.721006">
        <ele>130.778445</ele>
        <time>2026-05-05T01:54:59.083Z</time>
      </trkpt>
      <trkpt lat="43.547071" lon="10.721006">
        <ele>130.873808</ele>
        <time>2026-05-05T01:54:59.917Z</time>
      </trkpt>
      <trkpt lat="43.547114" lon="10.721010">
        <ele>131.189955</ele>
        <time>2026-05-05T01:55:02.676Z</time>
      </trkpt>
      <trkpt lat="43.547369" lon="10.721014">
        <ele>133.060654</ele>
        <time>2026-05-05T01:55:18.673Z</time>
      </trkpt>
      <trkpt lat="43.547625" lon="10.720931">
        <ele>134.989722</ele>
        <time>2026-05-05T01:55:35.773Z</time>
      </trkpt>
      <trkpt lat="43.547672" lon="10.720905">
        <ele>135.361177</ele>
        <time>2026-05-05T01:55:39.000Z</time>
      </trkpt>
      <trkpt lat="43.547728" lon="10.720876">
        <ele>135.799954</ele>
        <time>2026-05-05T01:55:42.982Z</time>
      </trkpt>
      <trkpt lat="43.547864" lon="10.720831">
        <ele>136.825884</ele>
        <time>2026-05-05T01:55:51.882Z</time>
      </trkpt>
      <trkpt lat="43.547912" lon="10.720885">
        <ele>137.280211</ele>
        <time>2026-05-05T01:55:55.667Z</time>
      </trkpt>
      <trkpt lat="43.548178" lon="10.720943">
        <ele>139.102864</ele>
        <time>2026-05-05T01:56:12.019Z</time>
      </trkpt>
      <trkpt lat="43.548379" lon="10.720963">
        <ele>139.555778</ele>
        <time>2026-05-05T01:56:22.950Z</time>
      </trkpt>
      <trkpt lat="43.548519" lon="10.720979">
        <ele>139.871501</ele>
        <time>2026-05-05T01:56:29.404Z</time>
      </trkpt>
      <trkpt lat="43.548763" lon="10.721008">
        <ele>140.421913</ele>
        <time>2026-05-05T01:56:39.113Z</time>
      </trkpt>
      <trkpt lat="43.549058" lon="10.721006">
        <ele>141.084923</ele>
        <time>2026-05-05T01:56:48.717Z</time>
      </trkpt>
      <trkpt lat="43.549022" lon="10.720555">
        <ele>141.824011</ele>
        <time>2026-05-05T01:56:57.717Z</time>
      </trkpt>
      <trkpt lat="43.549014" lon="10.720328">
        <ele>142.194215</ele>
        <time>2026-05-05T01:57:01.141Z</time>
      </trkpt>
      <trkpt lat="43.549037" lon="10.720340">
        <ele>142.249479</ele>
        <time>2026-05-05T01:57:01.672Z</time>
      </trkpt>
      <trkpt lat="43.549337" lon="10.720447">
        <ele>142.945882</ele>
        <time>2026-05-05T01:57:06.804Z</time>
      </trkpt>
      <trkpt lat="43.549387" lon="10.720502">
        <ele>143.045077</ele>
        <time>2026-05-05T01:57:07.794Z</time>
      </trkpt>
      <trkpt lat="43.549391" lon="10.720840">
        <ele>141.527750</ele>
        <time>2026-05-05T01:57:11.443Z</time>
      </trkpt>
      <trkpt lat="43.549429" lon="10.721338">
        <ele>139.280106</ele>
        <time>2026-05-05T01:57:16.403Z</time>
      </trkpt>
      <trkpt lat="43.549498" lon="10.721354">
        <ele>138.846799</ele>
        <time>2026-05-05T01:57:17.321Z</time>
      </trkpt>
      <trkpt lat="43.549572" lon="10.721390">
        <ele>138.360867</ele>
        <time>2026-05-05T01:57:18.385Z</time>
      </trkpt>
      <trkpt lat="43.549647" lon="10.721221">
        <ele>137.471402</ele>
        <time>2026-05-05T01:57:20.307Z</time>
      </trkpt>
      <trkpt lat="43.549679" lon="10.720826">
        <ele>135.687397</ele>
        <time>2026-05-05T01:57:24.030Z</time>
      </trkpt>
      <trkpt lat="43.549692" lon="10.720558">
        <ele>134.481784</ele>
        <time>2026-05-05T01:57:26.451Z</time>
      </trkpt>
      <trkpt lat="43.549691" lon="10.720280">
        <ele>133.233962</ele>
        <time>2026-05-05T01:57:28.908Z</time>
      </trkpt>
      <trkpt lat="43.549602" lon="10.720057">
        <ele>132.091302</ele>
        <time>2026-05-05T01:57:31.125Z</time>
      </trkpt>
      <trkpt lat="43.549538" lon="10.719940">
        <ele>130.871252</ele>
        <time>2026-05-05T01:57:32.386Z</time>
      </trkpt>
      <trkpt lat="43.549438" lon="10.719753">
        <ele>128.668151</ele>
        <time>2026-05-05T01:57:34.339Z</time>
      </trkpt>
      <trkpt lat="43.549535" lon="10.719666">
        <ele>127.154872</ele>
        <time>2026-05-05T01:57:35.670Z</time>
      </trkpt>
      <trkpt lat="43.549646" lon="10.719647">
        <ele>125.691856</ele>
        <time>2026-05-05T01:57:36.941Z</time>
      </trkpt>
      <trkpt lat="43.550045" lon="10.719835">
        <ele>120.176989</ele>
        <time>2026-05-05T01:57:41.697Z</time>
      </trkpt>
      <trkpt lat="43.550120" lon="10.719803">
        <ele>119.150151</ele>
        <time>2026-05-05T01:57:42.591Z</time>
      </trkpt>
      <trkpt lat="43.550164" lon="10.719739">
        <ele>118.313887</ele>
        <time>2026-05-05T01:57:43.315Z</time>
      </trkpt>
      <trkpt lat="43.550181" lon="10.719698">
        <ele>117.866095</ele>
        <time>2026-05-05T01:57:43.706Z</time>
      </trkpt>
      <trkpt lat="43.550419" lon="10.719221">
        <ele>112.376167</ele>
        <time>2026-05-05T01:57:48.499Z</time>
      </trkpt>
      <trkpt lat="43.550583" lon="10.718919">
        <ele>108.798724</ele>
        <time>2026-05-05T01:57:51.657Z</time>
      </trkpt>
      <trkpt lat="43.550877" lon="10.718513">
        <ele>106.791492</ele>
        <time>2026-05-05T01:57:56.600Z</time>
      </trkpt>
      <trkpt lat="43.551231" lon="10.718148">
        <ele>104.937714</ele>
        <time>2026-05-05T01:58:02.370Z</time>
      </trkpt>
      <trkpt lat="43.551390" lon="10.718047">
        <ele>104.203453</ele>
        <time>2026-05-05T01:58:05.126Z</time>
      </trkpt>
      <trkpt lat="43.551558" lon="10.718011">
        <ele>103.490280</ele>
        <time>2026-05-05T01:58:08.301Z</time>
      </trkpt>
      <trkpt lat="43.551737" lon="10.717973">
        <ele>102.730576</ele>
        <time>2026-05-05T01:58:12.003Z</time>
      </trkpt>
      <trkpt lat="43.552181" lon="10.717893">
        <ele>100.859003</ele>
        <time>2026-05-05T01:58:22.040Z</time>
      </trkpt>
      <trkpt lat="43.552302" lon="10.717868">
        <ele>100.571916</ele>
        <time>2026-05-05T01:58:25.019Z</time>
      </trkpt>
      <trkpt lat="43.552452" lon="10.717868">
        <ele>100.219946</ele>
        <time>2026-05-05T01:58:28.912Z</time>
      </trkpt>
      <trkpt lat="43.552786" lon="10.717976">
        <ele>99.414994</ele>
        <time>2026-05-05T01:58:37.280Z</time>
      </trkpt>
      <trkpt lat="43.553456" lon="10.717951">
        <ele>97.842289</ele>
        <time>2026-05-05T01:58:47.453Z</time>
      </trkpt>
      <trkpt lat="43.553702" lon="10.717894">
        <ele>97.256977</ele>
        <time>2026-05-05T01:58:50.822Z</time>
      </trkpt>
      <trkpt lat="43.554709" lon="10.717626">
        <ele>92.394586</ele>
        <time>2026-05-05T01:59:03.779Z</time>
      </trkpt>
      <trkpt lat="43.554771" lon="10.717682">
        <ele>91.983013</ele>
        <time>2026-05-05T01:59:05.430Z</time>
      </trkpt>
      <trkpt lat="43.555014" lon="10.717733">
        <ele>90.617830</ele>
        <time>2026-05-05T01:59:11.039Z</time>
      </trkpt>
      <trkpt lat="43.555255" lon="10.717847">
        <ele>89.202810</ele>
        <time>2026-05-05T01:59:16.973Z</time>
      </trkpt>
      <trkpt lat="43.556049" lon="10.718288">
        <ele>86.092643</ele>
        <time>2026-05-05T01:59:38.942Z</time>
      </trkpt>
      <trkpt lat="43.556314" lon="10.718435">
        <ele>85.687110</ele>
        <time>2026-05-05T01:59:47.541Z</time>
      </trkpt>
      <trkpt lat="43.556435" lon="10.718518">
        <ele>85.495247</ele>
        <time>2026-05-05T01:59:51.644Z</time>
      </trkpt>
      <trkpt lat="43.556718" lon="10.718545">
        <ele>85.092462</ele>
        <time>2026-05-05T02:00:00.193Z</time>
      </trkpt>
      <trkpt lat="43.557754" lon="10.718470">
        <ele>83.258259</ele>
        <time>2026-05-05T02:00:31.457Z</time>
      </trkpt>
      <trkpt lat="43.558015" lon="10.718488">
        <ele>82.610224</ele>
        <time>2026-05-05T02:00:38.875Z</time>
      </trkpt>
      <trkpt lat="43.558594" lon="10.718618">
        <ele>81.155539</ele>
        <time>2026-05-05T02:00:54.910Z</time>
      </trkpt>
      <trkpt lat="43.558700" lon="10.718674">
        <ele>80.874075</ele>
        <time>2026-05-05T02:00:57.901Z</time>
      </trkpt>
      <trkpt lat="43.558808" lon="10.719009">
        <ele>80.215184</ele>
        <time>2026-05-05T02:01:04.840Z</time>
      </trkpt>
      <trkpt lat="43.558835" lon="10.719265">
        <ele>79.750298</ele>
        <time>2026-05-05T02:01:09.595Z</time>
      </trkpt>
      <trkpt lat="43.558895" lon="10.719378">
        <ele>79.163680</ele>
        <time>2026-05-05T02:01:12.150Z</time>
      </trkpt>
      <trkpt lat="43.559867" lon="10.719589">
        <ele>71.067444</ele>
        <time>2026-05-05T02:01:34.486Z</time>
      </trkpt>
      <trkpt lat="43.560173" lon="10.719732">
        <ele>68.409135</ele>
        <time>2026-05-05T02:01:41.432Z</time>
      </trkpt>
      <trkpt lat="43.561163" lon="10.720311">
        <ele>59.414333</ele>
        <time>2026-05-05T02:02:03.946Z</time>
      </trkpt>
      <trkpt lat="43.561621" lon="10.720797">
        <ele>54.527772</ele>
        <time>2026-05-05T02:02:16.527Z</time>
      </trkpt>
      <trkpt lat="43.561885" lon="10.720598">
        <ele>51.983478</ele>
        <time>2026-05-05T02:02:20.863Z</time>
      </trkpt>
      <trkpt lat="43.562182" lon="10.720249">
        <ele>49.412848</ele>
        <time>2026-05-05T02:02:26.802Z</time>
      </trkpt>
      <trkpt lat="43.563954" lon="10.721227">
        <ele>45.929337</ele>
        <time>2026-05-05T02:03:02.386Z</time>
      </trkpt>
      <trkpt lat="43.565845" lon="10.722271">
        <ele>44.132767</ele>
        <time>2026-05-05T02:03:41.674Z</time>
      </trkpt>
      <trkpt lat="43.566599" lon="10.722687">
        <ele>43.515460</ele>
        <time>2026-05-05T02:03:57.494Z</time>
      </trkpt>
      <trkpt lat="43.568317" lon="10.723310">
        <ele>42.482866</ele>
        <time>2026-05-05T02:04:32.761Z</time>
      </trkpt>
      <trkpt lat="43.568741" lon="10.723464">
        <ele>42.261073</ele>
        <time>2026-05-05T02:04:41.644Z</time>
      </trkpt>
      <trkpt lat="43.568977" lon="10.723461">
        <ele>42.170701</ele>
        <time>2026-05-05T02:04:46.473Z</time>
      </trkpt>
      <trkpt lat="43.570123" lon="10.722989">
        <ele>41.842825</ele>
        <time>2026-05-05T02:05:11.311Z</time>
      </trkpt>
      <trkpt lat="43.571157" lon="10.722691">
        <ele>41.595455</ele>
        <time>2026-05-05T02:05:32.959Z</time>
      </trkpt>
      <trkpt lat="43.571443" lon="10.722357">
        <ele>41.520074</ele>
        <time>2026-05-05T02:05:40.649Z</time>
      </trkpt>
      <trkpt lat="43.571642" lon="10.722014">
        <ele>41.456015</ele>
        <time>2026-05-05T02:05:47.243Z</time>
      </trkpt>
      <trkpt lat="43.571279" lon="10.720019">
        <ele>41.256126</ele>
        <time>2026-05-05T02:06:19.235Z</time>
      </trkpt>
      <trkpt lat="43.571118" lon="10.719130">
        <ele>41.191428</ele>
        <time>2026-05-05T02:06:33.246Z</time>
      </trkpt>
      <trkpt lat="43.571120" lon="10.719033">
        <ele>41.184577</ele>
        <time>2026-05-05T02:06:34.711Z</time>
      </trkpt>
      <trkpt lat="43.571132" lon="10.718481">
        <ele>41.018373</ele>
        <time>2026-05-05T02:06:42.872Z</time>
      </trkpt>
      <trkpt lat="43.573172" lon="10.718053">
        <ele>40.065155</ele>
        <time>2026-05-05T02:07:19.241Z</time>
      </trkpt>
      <trkpt lat="43.573444" lon="10.717998">
        <ele>39.982528</ele>
        <time>2026-05-05T02:07:24.228Z</time>
      </trkpt>
      <trkpt lat="43.573649" lon="10.717957">
        <ele>39.920268</ele>
        <time>2026-05-05T02:07:28.108Z</time>
      </trkpt>
      <trkpt lat="43.574325" lon="10.717746">
        <ele>39.711953</ele>
        <time>2026-05-05T02:07:41.512Z</time>
      </trkpt>
      <trkpt lat="43.574887" lon="10.717517">
        <ele>39.602601</ele>
        <time>2026-05-05T02:07:52.696Z</time>
      </trkpt>
      <trkpt lat="43.576166" lon="10.717112">
        <ele>39.369476</ele>
        <time>2026-05-05T02:08:16.824Z</time>
      </trkpt>
      <trkpt lat="43.577539" lon="10.716951">
        <ele>38.952193</ele>
        <time>2026-05-05T02:08:41.977Z</time>
      </trkpt>
      <trkpt lat="43.579048" lon="10.716774">
        <ele>38.657203</ele>
        <time>2026-05-05T02:09:10.194Z</time>
      </trkpt>
      <trkpt lat="43.580380" lon="10.716590">
        <ele>38.488870</ele>
        <time>2026-05-05T02:09:35.563Z</time>
      </trkpt>
      <trkpt lat="43.580428" lon="10.713915">
        <ele>38.209724</ele>
        <time>2026-05-05T02:10:12.216Z</time>
      </trkpt>
      <trkpt lat="43.580984" lon="10.713807">
        <ele>38.089587</ele>
        <time>2026-05-05T02:10:29.625Z</time>
      </trkpt>
      <trkpt lat="43.582573" lon="10.713499">
        <ele>37.454470</ele>
        <time>2026-05-05T02:11:18.651Z</time>
      </trkpt>
      <trkpt lat="43.584995" lon="10.713022">
        <ele>36.253322</ele>
        <time>2026-05-05T02:12:33.013Z</time>
      </trkpt>
      <trkpt lat="43.585182" lon="10.712934">
        <ele>36.111152</ele>
        <time>2026-05-05T02:12:39.223Z</time>
      </trkpt>
      <trkpt lat="43.585756" lon="10.712345">
        <ele>35.596494</ele>
        <time>2026-05-05T02:13:00.999Z</time>
      </trkpt>
      <trkpt lat="43.586152" lon="10.711956">
        <ele>35.246754</ele>
        <time>2026-05-05T02:13:14.986Z</time>
      </trkpt>
      <trkpt lat="43.586343" lon="10.711816">
        <ele>35.091138</ele>
        <time>2026-05-05T02:13:21.225Z</time>
      </trkpt>
      <trkpt lat="43.586557" lon="10.711834">
        <ele>34.987809</ele>
        <time>2026-05-05T02:13:27.526Z</time>
      </trkpt>
      <trkpt lat="43.586669" lon="10.711904">
        <ele>35.002173</ele>
        <time>2026-05-05T02:13:31.188Z</time>
      </trkpt>
      <trkpt lat="43.586801" lon="10.712059">
        <ele>35.022419</ele>
        <time>2026-05-05T02:13:36.405Z</time>
      </trkpt>
      <trkpt lat="43.586943" lon="10.712347">
        <ele>35.051903</ele>
        <time>2026-05-05T02:13:44.013Z</time>
      </trkpt>
      <trkpt lat="43.587114" lon="10.712704">
        <ele>35.088123</ele>
        <time>2026-05-05T02:13:53.394Z</time>
      </trkpt>
      <trkpt lat="43.587241" lon="10.713014">
        <ele>35.118263</ele>
        <time>2026-05-05T02:14:01.691Z</time>
      </trkpt>
      <trkpt lat="43.587275" lon="10.713247">
        <ele>35.138377</ele>
        <time>2026-05-05T02:14:07.861Z</time>
      </trkpt>
      <trkpt lat="43.587179" lon="10.713478">
        <ele>35.160915</ele>
        <time>2026-05-05T02:14:13.142Z</time>
      </trkpt>
      <trkpt lat="43.586894" lon="10.713912">
        <ele>35.340860</ele>
        <time>2026-05-05T02:14:25.831Z</time>
      </trkpt>
      <trkpt lat="43.587166" lon="10.714722">
        <ele>35.917611</ele>
        <time>2026-05-05T02:14:50.371Z</time>
      </trkpt>
      <trkpt lat="43.587124" lon="10.714924">
        <ele>36.053371</ele>
        <time>2026-05-05T02:14:55.710Z</time>
      </trkpt>
      <trkpt lat="43.587070" lon="10.714999">
        <ele>36.121685</ele>
        <time>2026-05-05T02:14:58.398Z</time>
      </trkpt>
      <trkpt lat="43.586927" lon="10.715092">
        <ele>36.262661</ele>
        <time>2026-05-05T02:15:03.990Z</time>
      </trkpt>
      <trkpt lat="43.586874" lon="10.715161">
        <ele>36.327631</ele>
        <time>2026-05-05T02:15:06.549Z</time>
      </trkpt>
      <trkpt lat="43.586774" lon="10.715522">
        <ele>36.577307</ele>
        <time>2026-05-05T02:15:16.358Z</time>
      </trkpt>
      <trkpt lat="43.586868" lon="10.715704">
        <ele>36.721707</ele>
        <time>2026-05-05T02:15:19.952Z</time>
      </trkpt>
      <trkpt lat="43.587068" lon="10.716466">
        <ele>36.948851</ele>
        <time>2026-05-05T02:15:32.025Z</time>
      </trkpt>
      <trkpt lat="43.587162" lon="10.716710">
        <ele>37.009862</ele>
        <time>2026-05-05T02:15:36.050Z</time>
      </trkpt>
      <trkpt lat="43.587478" lon="10.717075">
        <ele>37.135435</ele>
        <time>2026-05-05T02:15:44.900Z</time>
      </trkpt>
      <trkpt lat="43.587506" lon="10.717123">
        <ele>37.149041</ele>
        <time>2026-05-05T02:15:45.882Z</time>
      </trkpt>
      <trkpt lat="43.587541" lon="10.717188">
        <ele>37.166921</ele>
        <time>2026-05-05T02:15:47.186Z</time>
      </trkpt>
      <trkpt lat="43.587628" lon="10.717447">
        <ele>37.229947</ele>
        <time>2026-05-05T02:15:51.790Z</time>
      </trkpt>
      <trkpt lat="43.587917" lon="10.718376">
        <ele>37.520629</ele>
        <time>2026-05-05T02:16:08.160Z</time>
      </trkpt>
      <trkpt lat="43.588037" lon="10.719392">
        <ele>37.887302</ele>
        <time>2026-05-05T02:16:24.804Z</time>
      </trkpt>
      <trkpt lat="43.588175" lon="10.719600">
        <ele>37.987774</ele>
        <time>2026-05-05T02:16:29.425Z</time>
      </trkpt>
      <trkpt lat="43.589031" lon="10.720146">
        <ele>38.584575</ele>
        <time>2026-05-05T02:16:51.358Z</time>
      </trkpt>
      <trkpt lat="43.589054" lon="10.720141">
        <ele>38.602834</ele>
        <time>2026-05-05T02:16:51.893Z</time>
      </trkpt>
      <trkpt lat="43.589492" lon="10.720028">
        <ele>38.952263</ele>
        <time>2026-05-05T02:17:02.329Z</time>
      </trkpt>
      <trkpt lat="43.590473" lon="10.719775">
        <ele>39.694822</ele>
        <time>2026-05-05T02:17:26.045Z</time>
      </trkpt>
      <trkpt lat="43.591253" lon="10.719367">
        <ele>40.077993</ele>
        <time>2026-05-05T02:17:44.593Z</time>
      </trkpt>
      <trkpt lat="43.591324" lon="10.719325">
        <ele>40.113477</ele>
        <time>2026-05-05T02:17:46.230Z</time>
      </trkpt>
      <trkpt lat="43.592133" lon="10.718857">
        <ele>40.448770</ele>
        <time>2026-05-05T02:18:04.223Z</time>
      </trkpt>
      <trkpt lat="43.592235" lon="10.718791">
        <ele>40.433170</ele>
        <time>2026-05-05T02:18:06.379Z</time>
      </trkpt>
      <trkpt lat="43.592422" lon="10.718689">
        <ele>40.405326</ele>
        <time>2026-05-05T02:18:10.167Z</time>
      </trkpt>
      <trkpt lat="43.592537" lon="10.718625">
        <ele>40.388155</ele>
        <time>2026-05-05T02:18:12.475Z</time>
      </trkpt>
      <trkpt lat="43.592959" lon="10.718390">
        <ele>40.325140</ele>
        <time>2026-05-05T02:18:20.993Z</time>
      </trkpt>
      <trkpt lat="43.592987" lon="10.718373">
        <ele>40.320904</ele>
        <time>2026-05-05T02:18:21.571Z</time>
      </trkpt>
      <trkpt lat="43.593417" lon="10.718142">
        <ele>40.257007</ele>
        <time>2026-05-05T02:18:30.240Z</time>
      </trkpt>
      <trkpt lat="43.593488" lon="10.718104">
        <ele>40.246462</ele>
        <time>2026-05-05T02:18:31.668Z</time>
      </trkpt>
      <trkpt lat="43.593721" lon="10.718042">
        <ele>40.209742</ele>
        <time>2026-05-05T02:18:36.051Z</time>
      </trkpt>
      <trkpt lat="43.594403" lon="10.718080">
        <ele>39.907175</ele>
        <time>2026-05-05T02:18:48.122Z</time>
      </trkpt>
      <trkpt lat="43.594685" lon="10.718035">
        <ele>39.781337</ele>
        <time>2026-05-05T02:18:53.030Z</time>
      </trkpt>
      <trkpt lat="43.594848" lon="10.717932">
        <ele>39.701874</ele>
        <time>2026-05-05T02:18:56.184Z</time>
      </trkpt>
      <trkpt lat="43.595233" lon="10.717551">
        <ele>39.491902</ele>
        <time>2026-05-05T02:19:04.778Z</time>
      </trkpt>
      <trkpt lat="43.595565" lon="10.717210">
        <ele>39.469038</ele>
        <time>2026-05-05T02:19:12.483Z</time>
      </trkpt>
      <trkpt lat="43.596009" lon="10.716759">
        <ele>39.582772</ele>
        <time>2026-05-05T02:19:23.026Z</time>
      </trkpt>
      <trkpt lat="43.596131" lon="10.716635">
        <ele>39.614030</ele>
        <time>2026-05-05T02:19:26.133Z</time>
      </trkpt>
      <trkpt lat="43.596724" lon="10.715875">
        <ele>39.780972</ele>
        <time>2026-05-05T02:19:44.332Z</time>
      </trkpt>
      <trkpt lat="43.596884" lon="10.715721">
        <ele>39.778330</ele>
        <time>2026-05-05T02:19:48.375Z</time>
      </trkpt>
      <trkpt lat="43.597208" lon="10.715503">
        <ele>39.753175</ele>
        <time>2026-05-05T02:19:55.725Z</time>
      </trkpt>
      <trkpt lat="43.597281" lon="10.715456">
        <ele>39.747553</ele>
        <time>2026-05-05T02:19:57.319Z</time>
      </trkpt>
      <trkpt lat="43.597298" lon="10.715443">
        <ele>39.746197</ele>
        <time>2026-05-05T02:19:57.719Z</time>
      </trkpt>
      <trkpt lat="43.597473" lon="10.715303">
        <ele>39.732081</ele>
        <time>2026-05-05T02:20:01.700Z</time>
      </trkpt>
      <trkpt lat="43.597735" lon="10.714979">
        <ele>39.707533</ele>
        <time>2026-05-05T02:20:08.394Z</time>
      </trkpt>
      <trkpt lat="43.598035" lon="10.714575">
        <ele>39.678285</ele>
        <time>2026-05-05T02:20:16.093Z</time>
      </trkpt>
      <trkpt lat="43.598217" lon="10.714247">
        <ele>39.595728</ele>
        <time>2026-05-05T02:20:21.304Z</time>
      </trkpt>
      <trkpt lat="43.599284" lon="10.712245">
        <ele>38.286630</ele>
        <time>2026-05-05T02:20:52.063Z</time>
      </trkpt>
      <trkpt lat="43.599992" lon="10.710941">
        <ele>38.164418</ele>
        <time>2026-05-05T02:21:13.768Z</time>
      </trkpt>
      <trkpt lat="43.601108" lon="10.709538">
        <ele>38.400353</ele>
        <time>2026-05-05T02:21:46.951Z</time>
      </trkpt>
      <trkpt lat="43.601579" lon="10.708962">
        <ele>38.586583</ele>
        <time>2026-05-05T02:21:59.808Z</time>
      </trkpt>
      <trkpt lat="43.601817" lon="10.708671">
        <ele>38.592204</ele>
        <time>2026-05-05T02:22:05.826Z</time>
      </trkpt>
      <trkpt lat="43.601905" lon="10.708552">
        <ele>38.544847</ele>
        <time>2026-05-05T02:22:08.082Z</time>
      </trkpt>
      <trkpt lat="43.602326" lon="10.708012">
        <ele>38.323919</ele>
        <time>2026-05-05T02:22:18.217Z</time>
      </trkpt>
      <trkpt lat="43.602665" lon="10.707566">
        <ele>38.143890</ele>
        <time>2026-05-05T02:22:26.354Z</time>
      </trkpt>
      <trkpt lat="43.602920" lon="10.707247">
        <ele>38.011595</ele>
        <time>2026-05-05T02:22:32.518Z</time>
      </trkpt>
      <trkpt lat="43.603041" lon="10.707136">
        <ele>37.955741</ele>
        <time>2026-05-05T02:22:35.165Z</time>
      </trkpt>
      <trkpt lat="43.603256" lon="10.706982">
        <ele>38.027728</ele>
        <time>2026-05-05T02:22:39.784Z</time>
      </trkpt>
      <trkpt lat="43.603382" lon="10.706898">
        <ele>38.074864</ele>
        <time>2026-05-05T02:22:42.808Z</time>
      </trkpt>
      <trkpt lat="43.603470" lon="10.706832">
        <ele>38.108601</ele>
        <time>2026-05-05T02:22:44.936Z</time>
      </trkpt>
      <trkpt lat="43.603552" lon="10.706771">
        <ele>38.139980</ele>
        <time>2026-05-05T02:22:46.919Z</time>
      </trkpt>
      <trkpt lat="43.603656" lon="10.706685">
        <ele>38.180818</ele>
        <time>2026-05-05T02:22:49.247Z</time>
      </trkpt>
      <trkpt lat="43.603982" lon="10.706301">
        <ele>38.325172</ele>
        <time>2026-05-05T02:22:57.776Z</time>
      </trkpt>
      <trkpt lat="43.604097" lon="10.706082">
        <ele>38.391167</ele>
        <time>2026-05-05T02:23:01.997Z</time>
      </trkpt>
      <trkpt lat="43.604102" lon="10.705834">
        <ele>38.451691</ele>
        <time>2026-05-05T02:23:06.001Z</time>
      </trkpt>
      <trkpt lat="43.603994" lon="10.705405">
        <ele>38.571618</ele>
        <time>2026-05-05T02:23:13.703Z</time>
      </trkpt>
      <trkpt lat="43.603882" lon="10.704927">
        <ele>38.883230</ele>
        <time>2026-05-05T02:23:22.637Z</time>
      </trkpt>
      <trkpt lat="43.603896" lon="10.704531">
        <ele>39.129140</ele>
        <time>2026-05-05T02:23:29.901Z</time>
      </trkpt>
      <trkpt lat="43.603997" lon="10.704033">
        <ele>39.449908</ele>
        <time>2026-05-05T02:23:38.464Z</time>
      </trkpt>
      <trkpt lat="43.604041" lon="10.703886">
        <ele>39.548566</ele>
        <time>2026-05-05T02:23:41.301Z</time>
      </trkpt>
      <trkpt lat="43.604114" lon="10.703717">
        <ele>39.670620</ele>
        <time>2026-05-05T02:23:44.953Z</time>
      </trkpt>
      <trkpt lat="43.604191" lon="10.703619">
        <ele>39.760312</ele>
        <time>2026-05-05T02:23:47.622Z</time>
      </trkpt>
      <trkpt lat="43.604274" lon="10.703548">
        <ele>39.843939</ele>
        <time>2026-05-05T02:23:50.057Z</time>
      </trkpt>
      <trkpt lat="43.604500" lon="10.703366">
        <ele>40.068028</ele>
        <time>2026-05-05T02:23:56.229Z</time>
      </trkpt>
      <trkpt lat="43.604605" lon="10.703131">
        <ele>40.058814</ele>
        <time>2026-05-05T02:24:00.498Z</time>
      </trkpt>
      <trkpt lat="43.604677" lon="10.702869">
        <ele>40.011871</ele>
        <time>2026-05-05T02:24:04.491Z</time>
      </trkpt>
      <trkpt lat="43.604690" lon="10.702813">
        <ele>40.002020</ele>
        <time>2026-05-05T02:24:05.285Z</time>
      </trkpt>
      <trkpt lat="43.604778" lon="10.702458">
        <ele>39.939165</ele>
        <time>2026-05-05T02:24:10.166Z</time>
      </trkpt>
      <trkpt lat="43.604927" lon="10.701724">
        <ele>39.811470</ele>
        <time>2026-05-05T02:24:19.481Z</time>
      </trkpt>
      <trkpt lat="43.604946" lon="10.701636">
        <ele>39.796087</ele>
        <time>2026-05-05T02:24:20.629Z</time>
      </trkpt>
      <trkpt lat="43.605045" lon="10.701273">
        <ele>39.731110</ele>
        <time>2026-05-05T02:24:25.556Z</time>
      </trkpt>
      <trkpt lat="43.605246" lon="10.700807">
        <ele>40.072624</ele>
        <time>2026-05-05T02:24:32.881Z</time>
      </trkpt>
      <trkpt lat="43.605352" lon="10.700560">
        <ele>40.533557</ele>
        <time>2026-05-05T02:24:37.343Z</time>
      </trkpt>
      <trkpt lat="43.605515" lon="10.700679">
        <ele>40.942319</ele>
        <time>2026-05-05T02:24:41.999Z</time>
      </trkpt>
      <trkpt lat="43.605175" lon="10.701932">
        <ele>43.090434</ele>
        <time>2026-05-05T02:25:10.706Z</time>
      </trkpt>
      <trkpt lat="43.605086" lon="10.702378">
        <ele>44.598179</ele>
        <time>2026-05-05T02:25:25.145Z</time>
      </trkpt>
      <trkpt lat="43.605073" lon="10.702443">
        <ele>45.210261</ele>
        <time>2026-05-05T02:25:27.531Z</time>
      </trkpt>
      <trkpt lat="43.605011" lon="10.702739">
        <ele>48.007143</ele>
        <time>2026-05-05T02:25:39.715Z</time>
      </trkpt>
      <trkpt lat="43.604951" lon="10.702903">
        <ele>49.674952</ele>
        <time>2026-05-05T02:25:48.126Z</time>
      </trkpt>
      <trkpt lat="43.605078" lon="10.702938">
        <ele>51.298299</ele>
        <time>2026-05-05T02:25:57.241Z</time>
      </trkpt>
      <trkpt lat="43.605245" lon="10.703031">
        <ele>53.555452</ele>
        <time>2026-05-05T02:26:11.340Z</time>
      </trkpt>
      <trkpt lat="43.605600" lon="10.703144">
        <ele>58.122087</ele>
        <time>2026-05-05T02:26:44.571Z</time>
      </trkpt>
      <trkpt lat="43.605866" lon="10.703260">
        <ele>61.618713</ele>
        <time>2026-05-05T02:27:13.690Z</time>
      </trkpt>
      <trkpt lat="43.606034" lon="10.703285">
        <ele>63.736800</ele>
        <time>2026-05-05T02:27:33.418Z</time>
      </trkpt>
      <trkpt lat="43.606101" lon="10.703262">
        <ele>64.602209</ele>
        <time>2026-05-05T02:27:41.828Z</time>
      </trkpt>
      <trkpt lat="43.606172" lon="10.703096">
        <ele>66.372099</ele>
        <time>2026-05-05T02:27:58.637Z</time>
      </trkpt>
      <trkpt lat="43.606199" lon="10.703080">
        <ele>66.793915</ele>
        <time>2026-05-05T02:28:02.229Z</time>
      </trkpt>
      <trkpt lat="43.606283" lon="10.703146">
        <ele>68.181415</ele>
        <time>2026-05-05T02:28:13.529Z</time>
      </trkpt>
      <trkpt lat="43.606472" lon="10.703080">
        <ele>70.980276</ele>
        <time>2026-05-05T02:28:35.891Z</time>
      </trkpt>
      <trkpt lat="43.606524" lon="10.703089">
        <ele>71.732676</ele>
        <time>2026-05-05T02:28:41.669Z</time>
      </trkpt>
      <trkpt lat="43.606870" lon="10.703407">
        <ele>77.699636</ele>
        <time>2026-05-05T02:29:25.848Z</time>
      </trkpt>
      <trkpt lat="43.606929" lon="10.703600">
        <ele>79.877484</ele>
        <time>2026-05-05T02:29:40.539Z</time>
      </trkpt>
      <trkpt lat="43.606939" lon="10.703829">
        <ele>82.262421</ele>
        <time>2026-05-05T02:29:57.339Z</time>
      </trkpt>
      <trkpt lat="43.606911" lon="10.704274">
        <ele>86.905934</ele>
        <time>2026-05-05T02:30:26.215Z</time>
      </trkpt>
      <trkpt lat="43.606892" lon="10.704322">
        <ele>87.474620</ele>
        <time>2026-05-05T02:30:29.418Z</time>
      </trkpt>
      <trkpt lat="43.606889" lon="10.704345">
        <ele>87.717569</ele>
        <time>2026-05-05T02:30:30.670Z</time>
      </trkpt>
      <trkpt lat="43.606922" lon="10.704327">
        <ele>88.226962</ele>
        <time>2026-05-05T02:30:33.380Z</time>
      </trkpt>
      <trkpt lat="43.607330" lon="10.704295">
        <ele>93.380806</ele>
        <time>2026-05-05T02:31:02.209Z</time>
      </trkpt>
      <trkpt lat="43.607591" lon="10.704487">
        <ele>96.153707</ele>
        <time>2026-05-05T02:31:21.598Z</time>
      </trkpt>
      <trkpt lat="43.607685" lon="10.704583">
        <ele>97.249954</ele>
        <time>2026-05-05T02:31:29.377Z</time>
      </trkpt>
      <trkpt lat="43.607782" lon="10.704675">
        <ele>98.353345</ele>
        <time>2026-05-05T02:31:37.176Z</time>
      </trkpt>
      <trkpt lat="43.608150" lon="10.704876">
        <ele>102.064095</ele>
        <time>2026-05-05T02:32:04.237Z</time>
      </trkpt>
      <trkpt lat="43.608632" lon="10.705032">
        <ele>106.706195</ele>
        <time>2026-05-05T02:32:36.477Z</time>
      </trkpt>
      <trkpt lat="43.608743" lon="10.705110">
        <ele>107.874008</ele>
        <time>2026-05-05T02:32:44.670Z</time>
      </trkpt>
      <trkpt lat="43.609093" lon="10.705744">
        <ele>113.309574</ele>
        <time>2026-05-05T02:33:22.411Z</time>
      </trkpt>
      <trkpt lat="43.609263" lon="10.705904">
        <ele>115.248557</ele>
        <time>2026-05-05T02:33:35.631Z</time>
      </trkpt>
      <trkpt lat="43.609704" lon="10.705978">
        <ele>119.435682</ele>
        <time>2026-05-05T02:34:05.333Z</time>
      </trkpt>
      <trkpt lat="43.610044" lon="10.706212">
        <ele>123.016130</ele>
        <time>2026-05-05T02:34:34.286Z</time>
      </trkpt>
      <trkpt lat="43.610479" lon="10.706298">
        <ele>126.911604</ele>
        <time>2026-05-05T02:35:04.025Z</time>
      </trkpt>
      <trkpt lat="43.610697" lon="10.706221">
        <ele>128.631093</ele>
        <time>2026-05-05T02:35:18.636Z</time>
      </trkpt>
      <trkpt lat="43.610942" lon="10.706008">
        <ele>130.843330</ele>
        <time>2026-05-05T02:35:36.827Z</time>
      </trkpt>
      <trkpt lat="43.610999" lon="10.705971">
        <ele>131.324612</ele>
        <time>2026-05-05T02:35:40.593Z</time>
      </trkpt>
      <trkpt lat="43.611166" lon="10.705877">
        <ele>132.702673</ele>
        <time>2026-05-05T02:35:51.314Z</time>
      </trkpt>
      <trkpt lat="43.611356" lon="10.705862">
        <ele>134.156953</ele>
        <time>2026-05-05T02:36:02.534Z</time>
      </trkpt>
      <trkpt lat="43.611736" lon="10.705964">
        <ele>137.115103</ele>
        <time>2026-05-05T02:36:24.391Z</time>
      </trkpt>
      <trkpt lat="43.612055" lon="10.706110">
        <ele>139.641288</ele>
        <time>2026-05-05T02:36:40.569Z</time>
      </trkpt>
      <trkpt lat="43.612444" lon="10.706333">
        <ele>141.222697</ele>
        <time>2026-05-05T02:36:59.581Z</time>
      </trkpt>
      <trkpt lat="43.612546" lon="10.706423">
        <ele>141.677162</ele>
        <time>2026-05-05T02:37:05.388Z</time>
      </trkpt>
      <trkpt lat="43.612805" lon="10.706899">
        <ele>143.295857</ele>
        <time>2026-05-05T02:37:24.770Z</time>
      </trkpt>
      <trkpt lat="43.613016" lon="10.706789">
        <ele>144.142665</ele>
        <time>2026-05-05T02:37:33.903Z</time>
      </trkpt>
      <trkpt lat="43.613758" lon="10.706632">
        <ele>146.503652</ele>
        <time>2026-05-05T02:37:55.562Z</time>
      </trkpt>
      <trkpt lat="43.613923" lon="10.706459">
        <ele>146.695064</ele>
        <time>2026-05-05T02:38:00.144Z</time>
      </trkpt>
      <trkpt lat="43.614107" lon="10.706173">
        <ele>146.951018</ele>
        <time>2026-05-05T02:38:07.126Z</time>
      </trkpt>
      <trkpt lat="43.614182" lon="10.706027">
        <ele>147.070777</ele>
        <time>2026-05-05T02:38:10.859Z</time>
      </trkpt>
      <trkpt lat="43.614219" lon="10.705847">
        <ele>147.195952</ele>
        <time>2026-05-05T02:38:14.764Z</time>
      </trkpt>
      <trkpt lat="43.614235" lon="10.705547">
        <ele>147.397190</ele>
        <time>2026-05-05T02:38:20.914Z</time>
      </trkpt>
      <trkpt lat="43.614274" lon="10.705472">
        <ele>147.458963</ele>
        <time>2026-05-05T02:38:22.820Z</time>
      </trkpt>
      <trkpt lat="43.614331" lon="10.705449">
        <ele>147.513833</ele>
        <time>2026-05-05T02:38:24.477Z</time>
      </trkpt>
      <trkpt lat="43.614689" lon="10.705613">
        <ele>147.862345</ele>
        <time>2026-05-05T02:38:34.902Z</time>
      </trkpt>
      <trkpt lat="43.614948" lon="10.705682">
        <ele>147.685784</ele>
        <time>2026-05-05T02:38:41.531Z</time>
      </trkpt>
      <trkpt lat="43.615704" lon="10.705561">
        <ele>145.098320</ele>
        <time>2026-05-05T02:38:55.344Z</time>
      </trkpt>
      <trkpt lat="43.615843" lon="10.705483">
        <ele>144.588234</ele>
        <time>2026-05-05T02:38:57.651Z</time>
      </trkpt>
      <trkpt lat="43.616114" lon="10.705153">
        <ele>143.359959</ele>
        <time>2026-05-05T02:39:02.970Z</time>
      </trkpt>
      <trkpt lat="43.616227" lon="10.704939">
        <ele>142.708003</ele>
        <time>2026-05-05T02:39:05.756Z</time>
      </trkpt>
      <trkpt lat="43.616410" lon="10.704705">
        <ele>141.873218</ele>
        <time>2026-05-05T02:39:09.372Z</time>
      </trkpt>
      <trkpt lat="43.616564" lon="10.704580">
        <ele>141.459160</ele>
        <time>2026-05-05T02:39:11.967Z</time>
      </trkpt>
      <trkpt lat="43.616807" lon="10.704466">
        <ele>140.864264</ele>
        <time>2026-05-05T02:39:15.738Z</time>
      </trkpt>
      <trkpt lat="43.617057" lon="10.704303">
        <ele>140.223427</ele>
        <time>2026-05-05T02:39:19.950Z</time>
      </trkpt>
      <trkpt lat="43.617112" lon="10.704233">
        <ele>140.050063</ele>
        <time>2026-05-05T02:39:21.120Z</time>
      </trkpt>
      <trkpt lat="43.617318" lon="10.703780">
        <ele>139.152302</ele>
        <time>2026-05-05T02:39:27.691Z</time>
      </trkpt>
      <trkpt lat="43.617553" lon="10.703187">
        <ele>138.017789</ele>
        <time>2026-05-05T02:39:39.539Z</time>
      </trkpt>
      <trkpt lat="43.617547" lon="10.703107">
        <ele>137.882815</ele>
        <time>2026-05-05T02:39:41.445Z</time>
      </trkpt>
      <trkpt lat="43.617515" lon="10.703052">
        <ele>137.764401</ele>
        <time>2026-05-05T02:39:43.185Z</time>
      </trkpt>
      <trkpt lat="43.617446" lon="10.703024">
        <ele>137.952997</ele>
        <time>2026-05-05T02:39:45.759Z</time>
      </trkpt>
      <trkpt lat="43.617351" lon="10.702934">
        <ele>138.393480</ele>
        <time>2026-05-05T02:39:50.224Z</time>
      </trkpt>
      <trkpt lat="43.617262" lon="10.702732">
        <ele>139.048079</ele>
        <time>2026-05-05T02:39:57.302Z</time>
      </trkpt>
      <trkpt lat="43.617262" lon="10.702638">
        <ele>139.308294</ele>
        <time>2026-05-05T02:40:00.223Z</time>
      </trkpt>
      <trkpt lat="43.617391" lon="10.702299">
        <ele>140.368466</ele>
        <time>2026-05-05T02:40:12.715Z</time>
      </trkpt>
      <trkpt lat="43.617415" lon="10.702070">
        <ele>141.009001</ele>
        <time>2026-05-05T02:40:20.280Z</time>
      </trkpt>
      <trkpt lat="43.617764" lon="10.701412">
        <ele>143.267028</ele>
        <time>2026-05-05T02:40:46.957Z</time>
      </trkpt>
      <trkpt lat="43.617842" lon="10.701214">
        <ele>143.891028</ele>
        <time>2026-05-05T02:40:54.467Z</time>
      </trkpt>
      <trkpt lat="43.617908" lon="10.700923">
        <ele>144.583919</ele>
        <time>2026-05-05T02:41:03.960Z</time>
      </trkpt>
      <trkpt lat="43.617953" lon="10.700438">
        <ele>144.310707</ele>
        <time>2026-05-05T02:41:17.075Z</time>
      </trkpt>
      <trkpt lat="43.618101" lon="10.700395">
        <ele>144.193981</ele>
        <time>2026-05-05T02:41:23.640Z</time>
      </trkpt>
      <trkpt lat="43.618164" lon="10.700410">
        <ele>144.144640</ele>
        <time>2026-05-05T02:41:26.368Z</time>
      </trkpt>
      <trkpt lat="43.618836" lon="10.701329">
        <ele>143.414797</ele>
        <time>2026-05-05T02:41:53.915Z</time>
      </trkpt>
      <trkpt lat="43.619059" lon="10.701495">
        <ele>143.195958</ele>
        <time>2026-05-05T02:42:00.038Z</time>
      </trkpt>
      <trkpt lat="43.619197" lon="10.701500">
        <ele>141.738063</ele>
        <time>2026-05-05T02:42:03.200Z</time>
      </trkpt>
      <trkpt lat="43.619770" lon="10.701412">
        <ele>135.649424</ele>
        <time>2026-05-05T02:42:15.667Z</time>
      </trkpt>
      <trkpt lat="43.620249" lon="10.701254">
        <ele>130.448562</ele>
        <time>2026-05-05T02:42:25.831Z</time>
      </trkpt>
      <trkpt lat="43.620828" lon="10.700946">
        <ele>123.934975</ele>
        <time>2026-05-05T02:42:38.569Z</time>
      </trkpt>
      <trkpt lat="43.621415" lon="10.700162">
        <ele>116.327840</ele>
        <time>2026-05-05T02:42:55.734Z</time>
      </trkpt>
      <trkpt lat="43.621526" lon="10.700048">
        <ele>115.039186</ele>
        <time>2026-05-05T02:42:58.753Z</time>
      </trkpt>
      <trkpt lat="43.621677" lon="10.700001">
        <ele>113.597096</ele>
        <time>2026-05-05T02:43:02.199Z</time>
      </trkpt>
      <trkpt lat="43.621969" lon="10.699987">
        <ele>110.874987</ele>
        <time>2026-05-05T02:43:08.814Z</time>
      </trkpt>
      <trkpt lat="43.622597" lon="10.699717">
        <ele>106.003493</ele>
        <time>2026-05-05T02:43:24.162Z</time>
      </trkpt>
      <trkpt lat="43.622982" lon="10.699601">
        <ele>104.026972</ele>
        <time>2026-05-05T02:43:33.565Z</time>
      </trkpt>
      <trkpt lat="43.623073" lon="10.699521">
        <ele>103.485934</ele>
        <time>2026-05-05T02:43:36.158Z</time>
      </trkpt>
      <trkpt lat="43.623479" lon="10.698936">
        <ele>100.543311</ele>
        <time>2026-05-05T02:43:50.284Z</time>
      </trkpt>
      <trkpt lat="43.623519" lon="10.698776">
        <ele>99.928689</ele>
        <time>2026-05-05T02:43:53.270Z</time>
      </trkpt>
      <trkpt lat="43.623469" lon="10.698324">
        <ele>98.391869</ele>
        <time>2026-05-05T02:44:01.483Z</time>
      </trkpt>
      <trkpt lat="43.623531" lon="10.697836">
        <ele>97.838071</ele>
        <time>2026-05-05T02:44:10.626Z</time>
      </trkpt>
      <trkpt lat="43.623557" lon="10.697406">
        <ele>97.355766</ele>
        <time>2026-05-05T02:44:18.969Z</time>
      </trkpt>
      <trkpt lat="43.623564" lon="10.697286">
        <ele>97.221202</ele>
        <time>2026-05-05T02:44:21.363Z</time>
      </trkpt>
      <trkpt lat="43.623604" lon="10.697071">
        <ele>96.973076</ele>
        <time>2026-05-05T02:44:25.910Z</time>
      </trkpt>
      <trkpt lat="43.623736" lon="10.696646">
        <ele>96.456156</ele>
        <time>2026-05-05T02:44:35.932Z</time>
      </trkpt>
      <trkpt lat="43.623735" lon="10.695868">
        <ele>95.684645</ele>
        <time>2026-05-05T02:44:55.428Z</time>
      </trkpt>
      <trkpt lat="43.623796" lon="10.695745">
        <ele>95.715072</ele>
        <time>2026-05-05T02:44:59.238Z</time>
      </trkpt>
      <trkpt lat="43.624061" lon="10.695626">
        <ele>95.793628</ele>
        <time>2026-05-05T02:45:08.868Z</time>
      </trkpt>
      <trkpt lat="43.624262" lon="10.695133">
        <ele>95.909097</ele>
        <time>2026-05-05T02:45:22.637Z</time>
      </trkpt>
      <trkpt lat="43.624401" lon="10.694860">
        <ele>95.977210</ele>
        <time>2026-05-05T02:45:27.134Z</time>
      </trkpt>
      <trkpt lat="43.624436" lon="10.694739">
        <ele>96.003801</ele>
        <time>2026-05-05T02:45:28.831Z</time>
      </trkpt>
      <trkpt lat="43.624457" lon="10.694412">
        <ele>96.070795</ele>
        <time>2026-05-05T02:45:32.955Z</time>
      </trkpt>
      <trkpt lat="43.624310" lon="10.692929">
        <ele>98.559095</ele>
        <time>2026-05-05T02:45:57.185Z</time>
      </trkpt>
      <trkpt lat="43.624003" lon="10.691700">
        <ele>101.724624</ele>
        <time>2026-05-05T02:46:36.912Z</time>
      </trkpt>
      <trkpt lat="43.624006" lon="10.691581">
        <ele>102.014542</ele>
        <time>2026-05-05T02:46:41.431Z</time>
      </trkpt>
      <trkpt lat="43.624041" lon="10.691480">
        <ele>102.327576</ele>
        <time>2026-05-05T02:46:45.815Z</time>
      </trkpt>
      <trkpt lat="43.624273" lon="10.691187">
        <ele>104.087198</ele>
        <time>2026-05-05T02:47:03.287Z</time>
      </trkpt>
      <trkpt lat="43.624617" lon="10.690841">
        <ele>106.469191</ele>
        <time>2026-05-05T02:47:26.262Z</time>
      </trkpt>
      <trkpt lat="43.625022" lon="10.690346">
        <ele>109.496255</ele>
        <time>2026-05-05T02:47:52.870Z</time>
      </trkpt>
      <trkpt lat="43.625077" lon="10.690235">
        <ele>110.041321</ele>
        <time>2026-05-05T02:47:57.234Z</time>
      </trkpt>
      <trkpt lat="43.625142" lon="10.689981">
        <ele>111.132980</ele>
        <time>2026-05-05T02:48:05.581Z</time>
      </trkpt>
      <trkpt lat="43.625211" lon="10.689198">
        <ele>112.586549</ele>
        <time>2026-05-05T02:48:27.768Z</time>
      </trkpt>
      <trkpt lat="43.625172" lon="10.688172">
        <ele>113.183404</ele>
        <time>2026-05-05T02:48:48.337Z</time>
      </trkpt>
      <trkpt lat="43.625204" lon="10.687636">
        <ele>113.495839</ele>
        <time>2026-05-05T02:48:54.790Z</time>
      </trkpt>
      <trkpt lat="43.625186" lon="10.687303">
        <ele>113.689827</ele>
        <time>2026-05-05T02:48:58.466Z</time>
      </trkpt>
      <trkpt lat="43.624919" lon="10.686612">
        <ele>112.082441</ele>
        <time>2026-05-05T02:49:06.573Z</time>
      </trkpt>
      <trkpt lat="43.624869" lon="10.686395">
        <ele>111.543502</ele>
        <time>2026-05-05T02:49:08.834Z</time>
      </trkpt>
      <trkpt lat="43.624777" lon="10.684736">
        <ele>107.871463</ele>
        <time>2026-05-05T02:49:25.585Z</time>
      </trkpt>
      <trkpt lat="43.624657" lon="10.683996">
        <ele>107.967412</ele>
        <time>2026-05-05T02:49:34.654Z</time>
      </trkpt>
      <trkpt lat="43.624609" lon="10.683806">
        <ele>107.992873</ele>
        <time>2026-05-05T02:49:37.723Z</time>
      </trkpt>
      <trkpt lat="43.624416" lon="10.683284">
        <ele>108.067035</ele>
        <time>2026-05-05T02:49:48.799Z</time>
      </trkpt>
      <trkpt lat="43.624403" lon="10.683087">
        <ele>108.092064</ele>
        <time>2026-05-05T02:49:53.246Z</time>
      </trkpt>
      <trkpt lat="43.624463" lon="10.682941">
        <ele>108.113306</ele>
        <time>2026-05-05T02:49:57.138Z</time>
      </trkpt>
      <trkpt lat="43.624549" lon="10.683206">
        <ele>108.150050</ele>
        <time>2026-05-05T02:50:03.274Z</time>
      </trkpt>
      <trkpt lat="43.624706" lon="10.683307">
        <ele>108.199711</ele>
        <time>2026-05-05T02:50:08.126Z</time>
      </trkpt>
      <trkpt lat="43.625366" lon="10.683398">
        <ele>108.598053</ele>
        <time>2026-05-05T02:50:25.110Z</time>
      </trkpt>
      <trkpt lat="43.625753" lon="10.683250">
        <ele>108.839213</ele>
        <time>2026-05-05T02:50:33.657Z</time>
      </trkpt>
      <trkpt lat="43.625999" lon="10.683226">
        <ele>108.987320</ele>
        <time>2026-05-05T02:50:41.440Z</time>
      </trkpt>
      <trkpt lat="43.626285" lon="10.682886">
        <ele>109.213923</ele>
        <time>2026-05-05T02:50:53.144Z</time>
      </trkpt>
      <trkpt lat="43.626454" lon="10.682657">
        <ele>109.296312</ele>
        <time>2026-05-05T02:51:00.286Z</time>
      </trkpt>
      <trkpt lat="43.626590" lon="10.682385">
        <ele>109.357040</ele>
        <time>2026-05-05T02:51:07.650Z</time>
      </trkpt>
      <trkpt lat="43.626832" lon="10.681899">
        <ele>109.465402</ele>
        <time>2026-05-05T02:51:21.148Z</time>
      </trkpt>
      <trkpt lat="43.627261" lon="10.681864">
        <ele>109.574464</ele>
        <time>2026-05-05T02:51:35.886Z</time>
      </trkpt>
      <trkpt lat="43.628007" lon="10.682302">
        <ele>109.523134</ele>
        <time>2026-05-05T02:52:05.824Z</time>
      </trkpt>
      <trkpt lat="43.628399" lon="10.682381">
        <ele>109.260451</ele>
        <time>2026-05-05T02:52:18.232Z</time>
      </trkpt>
      <trkpt lat="43.628636" lon="10.682491">
        <ele>109.094667</ele>
        <time>2026-05-05T02:52:25.791Z</time>
      </trkpt>
      <trkpt lat="43.629519" lon="10.683464">
        <ele>107.272650</ele>
        <time>2026-05-05T02:52:58.316Z</time>
      </trkpt>
      <trkpt lat="43.629731" lon="10.683582">
        <ele>106.168008</ele>
        <time>2026-05-05T02:53:04.128Z</time>
      </trkpt>
      <trkpt lat="43.629929" lon="10.683609">
        <ele>105.206407</ele>
        <time>2026-05-05T02:53:09.027Z</time>
      </trkpt>
      <trkpt lat="43.630182" lon="10.683561">
        <ele>103.972161</ele>
        <time>2026-05-05T02:53:15.109Z</time>
      </trkpt>
      <trkpt lat="43.630387" lon="10.683447">
        <ele>102.904131</ele>
        <time>2026-05-05T02:53:20.221Z</time>
      </trkpt>
      <trkpt lat="43.630753" lon="10.683384">
        <ele>101.121546</ele>
        <time>2026-05-05T02:53:28.694Z</time>
      </trkpt>
      <trkpt lat="43.631005" lon="10.683287">
        <ele>99.857223</ele>
        <time>2026-05-05T02:53:34.638Z</time>
      </trkpt>
      <trkpt lat="43.631378" lon="10.683046">
        <ele>98.390788</ele>
        <time>2026-05-05T02:53:43.982Z</time>
      </trkpt>
      <trkpt lat="43.632132" lon="10.682643">
        <ele>95.529456</ele>
        <time>2026-05-05T02:54:03.691Z</time>
      </trkpt>
      <trkpt lat="43.632391" lon="10.682396">
        <ele>94.415620</ele>
        <time>2026-05-05T02:54:12.901Z</time>
      </trkpt>
      <trkpt lat="43.632582" lon="10.682096">
        <ele>93.436836</ele>
        <time>2026-05-05T02:54:23.013Z</time>
      </trkpt>
      <trkpt lat="43.632854" lon="10.681844">
        <ele>93.070613</ele>
        <time>2026-05-05T02:54:35.953Z</time>
      </trkpt>
      <trkpt lat="43.633394" lon="10.681728">
        <ele>92.459495</ele>
        <time>2026-05-05T02:54:57.969Z</time>
      </trkpt>
      <trkpt lat="43.633511" lon="10.681677">
        <ele>92.322301</ele>
        <time>2026-05-05T02:55:01.957Z</time>
      </trkpt>
      <trkpt lat="43.633654" lon="10.681476">
        <ele>92.094184</ele>
        <time>2026-05-05T02:55:07.945Z</time>
      </trkpt>
      <trkpt lat="43.633726" lon="10.681112">
        <ele>91.788772</ele>
        <time>2026-05-05T02:55:15.187Z</time>
      </trkpt>
      <trkpt lat="43.633800" lon="10.680921">
        <ele>91.613429</ele>
        <time>2026-05-05T02:55:19.070Z</time>
      </trkpt>
      <trkpt lat="43.633924" lon="10.680698">
        <ele>91.140480</ele>
        <time>2026-05-05T02:55:23.953Z</time>
      </trkpt>
      <trkpt lat="43.634012" lon="10.680578">
        <ele>90.439727</ele>
        <time>2026-05-05T02:55:26.868Z</time>
      </trkpt>
      <trkpt lat="43.634122" lon="10.680484">
        <ele>89.706682</ele>
        <time>2026-05-05T02:55:29.883Z</time>
      </trkpt>
      <trkpt lat="43.634402" lon="10.680326">
        <ele>87.992502</ele>
        <time>2026-05-05T02:55:36.732Z</time>
      </trkpt>
      <trkpt lat="43.634771" lon="10.680173">
        <ele>85.809008</ele>
        <time>2026-05-05T02:55:45.307Z</time>
      </trkpt>
      <trkpt lat="43.635499" lon="10.679961">
        <ele>81.592333</ele>
        <time>2026-05-05T02:56:02.533Z</time>
      </trkpt>
      <trkpt lat="43.635835" lon="10.679816">
        <ele>80.840212</ele>
        <time>2026-05-05T02:56:11.932Z</time>
      </trkpt>
      <trkpt lat="43.636223" lon="10.679757">
        <ele>80.289561</ele>
        <time>2026-05-05T02:56:24.618Z</time>
      </trkpt>
      <trkpt lat="43.637186" lon="10.679526">
        <ele>78.910749</ele>
        <time>2026-05-05T02:56:56.667Z</time>
      </trkpt>
      <trkpt lat="43.637318" lon="10.679462">
        <ele>78.710176</ele>
        <time>2026-05-05T02:57:00.530Z</time>
      </trkpt>
      <trkpt lat="43.637490" lon="10.679189">
        <ele>77.467979</ele>
        <time>2026-05-05T02:57:07.376Z</time>
      </trkpt>
      <trkpt lat="43.637540" lon="10.678980">
        <ele>76.712539</ele>
        <time>2026-05-05T02:57:11.380Z</time>
      </trkpt>
      <trkpt lat="43.637781" lon="10.678609">
        <ele>75.001639</ele>
        <time>2026-05-05T02:57:20.080Z</time>
      </trkpt>
      <trkpt lat="43.637847" lon="10.678459">
        <ele>74.399182</ele>
        <time>2026-05-05T02:57:23.073Z</time>
      </trkpt>
      <trkpt lat="43.637847" lon="10.678304">
        <ele>73.867240</ele>
        <time>2026-05-05T02:57:25.681Z</time>
      </trkpt>
      <trkpt lat="43.637878" lon="10.678186">
        <ele>73.436422</ele>
        <time>2026-05-05T02:57:27.767Z</time>
      </trkpt>
      <trkpt lat="43.637932" lon="10.678116">
        <ele>73.085305</ele>
        <time>2026-05-05T02:57:29.457Z</time>
      </trkpt>
      <trkpt lat="43.638002" lon="10.678073">
        <ele>72.722038</ele>
        <time>2026-05-05T02:57:31.206Z</time>
      </trkpt>
      <trkpt lat="43.638138" lon="10.678078">
        <ele>72.076894</ele>
        <time>2026-05-05T02:57:34.336Z</time>
      </trkpt>
      <trkpt lat="43.638204" lon="10.678052">
        <ele>71.751449</ele>
        <time>2026-05-05T02:57:35.929Z</time>
      </trkpt>
      <trkpt lat="43.638253" lon="10.677981">
        <ele>71.414756</ele>
        <time>2026-05-05T02:57:37.584Z</time>
      </trkpt>
      <trkpt lat="43.638351" lon="10.677923">
        <ele>70.909203</ele>
        <time>2026-05-05T02:57:40.090Z</time>
      </trkpt>
      <trkpt lat="43.638879" lon="10.678009">
        <ele>68.093629</ele>
        <time>2026-05-05T02:57:52.708Z</time>
      </trkpt>
      <trkpt lat="43.639115" lon="10.677820">
        <ele>66.588246</ele>
        <time>2026-05-05T02:57:59.205Z</time>
      </trkpt>
      <trkpt lat="43.639209" lon="10.677708">
        <ele>65.903248</ele>
        <time>2026-05-05T02:58:02.151Z</time>
      </trkpt>
      <trkpt lat="43.639388" lon="10.677622">
        <ele>64.857367</ele>
        <time>2026-05-05T02:58:06.610Z</time>
      </trkpt>
      <trkpt lat="43.639520" lon="10.677510">
        <ele>64.002505</ele>
        <time>2026-05-05T02:58:10.261Z</time>
      </trkpt>
      <trkpt lat="43.639543" lon="10.677435">
        <ele>63.677174</ele>
        <time>2026-05-05T02:58:11.649Z</time>
      </trkpt>
      <trkpt lat="43.639546" lon="10.677069">
        <ele>62.215293</ele>
        <time>2026-05-05T02:58:17.864Z</time>
      </trkpt>
      <trkpt lat="43.639524" lon="10.676297">
        <ele>60.053392</ele>
        <time>2026-05-05T02:58:31.115Z</time>
      </trkpt>
      <trkpt lat="43.639557" lon="10.676171">
        <ele>59.955906</ele>
        <time>2026-05-05T02:58:33.462Z</time>
      </trkpt>
      <trkpt lat="43.639628" lon="10.676023">
        <ele>59.826723</ele>
        <time>2026-05-05T02:58:36.595Z</time>
      </trkpt>
      <trkpt lat="43.639804" lon="10.675761">
        <ele>59.566652</ele>
        <time>2026-05-05T02:58:43.163Z</time>
      </trkpt>
      <trkpt lat="43.639876" lon="10.675712">
        <ele>59.485969</ele>
        <time>2026-05-05T02:58:45.318Z</time>
      </trkpt>
      <trkpt lat="43.639990" lon="10.675420">
        <ele>59.244592</ele>
        <time>2026-05-05T02:58:52.365Z</time>
      </trkpt>
      <trkpt lat="43.640069" lon="10.675297">
        <ele>59.124948</ele>
        <time>2026-05-05T02:58:56.193Z</time>
      </trkpt>
      <trkpt lat="43.640322" lon="10.674991">
        <ele>58.786943</ele>
        <time>2026-05-05T02:59:09.443Z</time>
      </trkpt>
      <trkpt lat="43.640375" lon="10.674822">
        <ele>58.652945</ele>
        <time>2026-05-05T02:59:15.543Z</time>
      </trkpt>
      <trkpt lat="43.640581" lon="10.674620">
        <ele>58.589537</ele>
        <time>2026-05-05T02:59:28.077Z</time>
      </trkpt>
      <trkpt lat="43.640664" lon="10.674485">
        <ele>58.932993</ele>
        <time>2026-05-05T02:59:34.820Z</time>
      </trkpt>
      <trkpt lat="43.640978" lon="10.674567">
        <ele>59.789149</ele>
        <time>2026-05-05T02:59:51.547Z</time>
      </trkpt>
      <trkpt lat="43.641084" lon="10.674616">
        <ele>60.088612</ele>
        <time>2026-05-05T02:59:57.452Z</time>
      </trkpt>
      <trkpt lat="43.641153" lon="10.674648">
        <ele>60.283610</ele>
        <time>2026-05-05T03:00:01.120Z</time>
      </trkpt>
      <trkpt lat="43.641253" lon="10.674642">
        <ele>60.551781</ele>
        <time>2026-05-05T03:00:06.439Z</time>
      </trkpt>
      <trkpt lat="43.641343" lon="10.674591">
        <ele>60.812395</ele>
        <time>2026-05-05T03:00:11.344Z</time>
      </trkpt>
      <trkpt lat="43.641518" lon="10.674653">
        <ele>61.296417</ele>
        <time>2026-05-05T03:00:20.527Z</time>
      </trkpt>
      <trkpt lat="43.641792" lon="10.674540">
        <ele>62.062510</ele>
        <time>2026-05-05T03:00:33.590Z</time>
      </trkpt>
      <trkpt lat="43.642069" lon="10.674610">
        <ele>62.816953</ele>
        <time>2026-05-05T03:00:44.959Z</time>
      </trkpt>
      <trkpt lat="43.642312" lon="10.674527">
        <ele>63.185004</ele>
        <time>2026-05-05T03:00:54.213Z</time>
      </trkpt>
      <trkpt lat="43.642481" lon="10.674502">
        <ele>63.007432</ele>
        <time>2026-05-05T03:00:59.734Z</time>
      </trkpt>
      <trkpt lat="43.643268" lon="10.674530">
        <ele>62.184940</ele>
        <time>2026-05-05T03:01:22.121Z</time>
      </trkpt>
      <trkpt lat="43.643451" lon="10.674478">
        <ele>61.989751</ele>
        <time>2026-05-05T03:01:27.273Z</time>
      </trkpt>
      <trkpt lat="43.643673" lon="10.674330">
        <ele>61.732236</ele>
        <time>2026-05-05T03:01:34.033Z</time>
      </trkpt>
      <trkpt lat="43.643943" lon="10.674147">
        <ele>61.418051</ele>
        <time>2026-05-05T03:01:42.329Z</time>
      </trkpt>
      <trkpt lat="43.644188" lon="10.674135">
        <ele>61.096076</ele>
        <time>2026-05-05T03:01:49.148Z</time>
      </trkpt>
      <trkpt lat="43.644435" lon="10.674071">
        <ele>60.757972</ele>
        <time>2026-05-05T03:01:56.127Z</time>
      </trkpt>
      <trkpt lat="43.644718" lon="10.673848">
        <ele>60.319675</ele>
        <time>2026-05-05T03:02:05.285Z</time>
      </trkpt>
      <trkpt lat="43.645308" lon="10.673535">
        <ele>59.469409</ele>
        <time>2026-05-05T03:02:23.892Z</time>
      </trkpt>
      <trkpt lat="43.645650" lon="10.673057">
        <ele>58.767314</ele>
        <time>2026-05-05T03:02:38.132Z</time>
      </trkpt>
      <trkpt lat="43.645905" lon="10.672837">
        <ele>58.239205</ele>
        <time>2026-05-05T03:02:46.778Z</time>
      </trkpt>
      <trkpt lat="43.646108" lon="10.672553">
        <ele>57.731737</ele>
        <time>2026-05-05T03:02:54.884Z</time>
      </trkpt>
      <trkpt lat="43.646170" lon="10.672419">
        <ele>57.529547</ele>
        <time>2026-05-05T03:02:58.115Z</time>
      </trkpt>
      <trkpt lat="43.646434" lon="10.672161">
        <ele>56.961509</ele>
        <time>2026-05-05T03:03:07.281Z</time>
      </trkpt>
      <trkpt lat="43.646911" lon="10.671764">
        <ele>55.983293</ele>
        <time>2026-05-05T03:03:22.461Z</time>
      </trkpt>
      <trkpt lat="43.647020" lon="10.671797">
        <ele>55.763373</ele>
        <time>2026-05-05T03:03:25.391Z</time>
      </trkpt>
      <trkpt lat="43.647315" lon="10.671728">
        <ele>54.710172</ele>
        <time>2026-05-05T03:03:33.197Z</time>
      </trkpt>
      <trkpt lat="43.647377" lon="10.671700">
        <ele>54.480567</ele>
        <time>2026-05-05T03:03:34.894Z</time>
      </trkpt>
      <trkpt lat="43.647451" lon="10.671603">
        <ele>54.121540</ele>
        <time>2026-05-05T03:03:37.513Z</time>
      </trkpt>
      <trkpt lat="43.647547" lon="10.671270">
        <ele>53.208499</ele>
        <time>2026-05-05T03:03:44.166Z</time>
      </trkpt>
      <trkpt lat="43.647602" lon="10.671174">
        <ele>52.896608</ele>
        <time>2026-05-05T03:03:46.430Z</time>
      </trkpt>
      <trkpt lat="43.647618" lon="10.671051">
        <ele>52.578286</ele>
        <time>2026-05-05T03:03:48.738Z</time>
      </trkpt>
      <trkpt lat="43.647567" lon="10.670590">
        <ele>51.390406</ele>
        <time>2026-05-05T03:03:57.297Z</time>
      </trkpt>
      <trkpt lat="43.647571" lon="10.670434">
        <ele>50.992801</ele>
        <time>2026-05-05T03:04:00.103Z</time>
      </trkpt>
      <trkpt lat="43.647858" lon="10.670273">
        <ele>49.902469</ele>
        <time>2026-05-05T03:04:07.686Z</time>
      </trkpt>
      <trkpt lat="43.647954" lon="10.670160">
        <ele>49.456151</ele>
        <time>2026-05-05T03:04:10.769Z</time>
      </trkpt>
      <trkpt lat="43.648043" lon="10.670139">
        <ele>49.101744</ele>
        <time>2026-05-05T03:04:12.969Z</time>
      </trkpt>
      <trkpt lat="43.648145" lon="10.670197">
        <ele>48.668797</ele>
        <time>2026-05-05T03:04:15.666Z</time>
      </trkpt>
      <trkpt lat="43.648242" lon="10.670203">
        <ele>48.287662</ele>
        <time>2026-05-05T03:04:18.065Z</time>
      </trkpt>
      <trkpt lat="43.648455" lon="10.670112">
        <ele>47.412534</ele>
        <time>2026-05-05T03:04:23.621Z</time>
      </trkpt>
      <trkpt lat="43.648796" lon="10.670043">
        <ele>46.059737</ele>
        <time>2026-05-05T03:04:32.271Z</time>
      </trkpt>
      <trkpt lat="43.648868" lon="10.669985">
        <ele>45.732609</ele>
        <time>2026-05-05T03:04:34.364Z</time>
      </trkpt>
      <trkpt lat="43.649056" lon="10.669834">
        <ele>44.879076</ele>
        <time>2026-05-05T03:04:39.867Z</time>
      </trkpt>
      <trkpt lat="43.649134" lon="10.669678">
        <ele>44.340500</ele>
        <time>2026-05-05T03:04:43.324Z</time>
      </trkpt>
      <trkpt lat="43.649208" lon="10.669598">
        <ele>43.971714</ele>
        <time>2026-05-05T03:04:45.694Z</time>
      </trkpt>
      <trkpt lat="43.649619" lon="10.669431">
        <ele>42.298109</ele>
        <time>2026-05-05T03:04:56.503Z</time>
      </trkpt>
      <trkpt lat="43.649774" lon="10.669410">
        <ele>41.724473</ele>
        <time>2026-05-05T03:05:00.433Z</time>
      </trkpt>
      <trkpt lat="43.650003" lon="10.669458">
        <ele>40.871369</ele>
        <time>2026-05-05T03:05:06.277Z</time>
      </trkpt>
      <trkpt lat="43.650050" lon="10.669415">
        <ele>40.663764</ele>
        <time>2026-05-05T03:05:07.693Z</time>
      </trkpt>
      <trkpt lat="43.650311" lon="10.669532">
        <ele>39.653138</ele>
        <time>2026-05-05T03:05:14.641Z</time>
      </trkpt>
      <trkpt lat="43.650423" lon="10.669533">
        <ele>39.240609</ele>
        <time>2026-05-05T03:05:17.492Z</time>
      </trkpt>
      <trkpt lat="43.650861" lon="10.669356">
        <ele>37.559808</ele>
        <time>2026-05-05T03:05:29.098Z</time>
      </trkpt>
      <trkpt lat="43.651067" lon="10.669473">
        <ele>36.739494</ele>
        <time>2026-05-05T03:05:34.741Z</time>
      </trkpt>
      <trkpt lat="43.651273" lon="10.669452">
        <ele>35.978689</ele>
        <time>2026-05-05T03:05:39.954Z</time>
      </trkpt>
      <trkpt lat="43.651669" lon="10.669333">
        <ele>34.177953</ele>
        <time>2026-05-05T03:05:50.089Z</time>
      </trkpt>
      <trkpt lat="43.652096" lon="10.669150">
        <ele>32.143646</ele>
        <time>2026-05-05T03:06:01.121Z</time>
      </trkpt>
      <trkpt lat="43.652241" lon="10.669088">
        <ele>31.452979</ele>
        <time>2026-05-05T03:06:04.841Z</time>
      </trkpt>
      <trkpt lat="43.652769" lon="10.668805">
        <ele>28.876009</ele>
        <time>2026-05-05T03:06:18.494Z</time>
      </trkpt>
      <trkpt lat="43.653000" lon="10.668731">
        <ele>27.796994</ele>
        <time>2026-05-05T03:06:24.166Z</time>
      </trkpt>
      <trkpt lat="43.653489" lon="10.668605">
        <ele>25.791879</ele>
        <time>2026-05-05T03:06:35.969Z</time>
      </trkpt>
      <trkpt lat="43.654801" lon="10.668603">
        <ele>20.564579</ele>
        <time>2026-05-05T03:07:08.701Z</time>
      </trkpt>
      <trkpt lat="43.654959" lon="10.668945">
        <ele>20.270566</ele>
        <time>2026-05-05T03:07:13.420Z</time>
      </trkpt>
      <trkpt lat="43.654998" lon="10.669189">
        <ele>20.151576</ele>
        <time>2026-05-05T03:07:16.491Z</time>
      </trkpt>
      <trkpt lat="43.654895" lon="10.669979">
        <ele>19.769332</ele>
        <time>2026-05-05T03:07:27.336Z</time>
      </trkpt>
      <trkpt lat="43.654779" lon="10.670621">
        <ele>19.454233</ele>
        <time>2026-05-05T03:07:37.345Z</time>
      </trkpt>
      <trkpt lat="43.654707" lon="10.670877">
        <ele>19.323444</ele>
        <time>2026-05-05T03:07:41.440Z</time>
      </trkpt>
      <trkpt lat="43.654546" lon="10.671250">
        <ele>19.113345</ele>
        <time>2026-05-05T03:07:47.624Z</time>
      </trkpt>
      <trkpt lat="43.654542" lon="10.671318">
        <ele>19.080115</ele>
        <time>2026-05-05T03:07:48.530Z</time>
      </trkpt>
      <trkpt lat="43.654563" lon="10.671370">
        <ele>19.051110</ele>
        <time>2026-05-05T03:07:49.313Z</time>
      </trkpt>
      <trkpt lat="43.654689" lon="10.671470">
        <ele>18.953299</ele>
        <time>2026-05-05T03:07:51.935Z</time>
      </trkpt>
      <trkpt lat="43.654861" lon="10.671561">
        <ele>18.829318</ele>
        <time>2026-05-05T03:07:55.190Z</time>
      </trkpt>
      <trkpt lat="43.654984" lon="10.671555">
        <ele>18.746465</ele>
        <time>2026-05-05T03:07:57.324Z</time>
      </trkpt>
      <trkpt lat="43.655034" lon="10.671507">
        <ele>18.705483</ele>
        <time>2026-05-05T03:07:58.365Z</time>
      </trkpt>
      <trkpt lat="43.655072" lon="10.671393">
        <ele>18.644349</ele>
        <time>2026-05-05T03:07:59.909Z</time>
      </trkpt>
      <trkpt lat="43.655107" lon="10.671114">
        <ele>18.506433</ele>
        <time>2026-05-05T03:08:03.372Z</time>
      </trkpt>
      <trkpt lat="43.655145" lon="10.671026">
        <ele>18.456519</ele>
        <time>2026-05-05T03:08:04.606Z</time>
      </trkpt>
      <trkpt lat="43.655198" lon="10.670987">
        <ele>18.416099</ele>
        <time>2026-05-05T03:08:05.628Z</time>
      </trkpt>
      <trkpt lat="43.655309" lon="10.670988">
        <ele>18.341374</ele>
        <time>2026-05-05T03:08:07.479Z</time>
      </trkpt>
      <trkpt lat="43.655633" lon="10.669201">
        <ele>17.188800</ele>
        <time>2026-05-05T03:08:29.907Z</time>
      </trkpt>
      <trkpt lat="43.655727" lon="10.668610">
        <ele>16.769742</ele>
        <time>2026-05-05T03:08:37.311Z</time>
      </trkpt>
      <trkpt lat="43.655750" lon="10.667597">
        <ele>16.100167</ele>
        <time>2026-05-05T03:08:49.908Z</time>
      </trkpt>
      <trkpt lat="43.655692" lon="10.667082">
        <ele>15.784110</ele>
        <time>2026-05-05T03:08:56.399Z</time>
      </trkpt>
      <trkpt lat="43.655528" lon="10.666199">
        <ele>15.231295</ele>
        <time>2026-05-05T03:09:07.731Z</time>
      </trkpt>
      <trkpt lat="43.655464" lon="10.665582">
        <ele>14.853319</ele>
        <time>2026-05-05T03:09:15.484Z</time>
      </trkpt>
      <trkpt lat="43.655470" lon="10.665231">
        <ele>14.701126</ele>
        <time>2026-05-05T03:09:19.864Z</time>
      </trkpt>
      <trkpt lat="43.655479" lon="10.665189">
        <ele>14.683540</ele>
        <time>2026-05-05T03:09:20.407Z</time>
      </trkpt>
      <trkpt lat="43.655513" lon="10.665033">
        <ele>14.618132</ele>
        <time>2026-05-05T03:09:22.450Z</time>
      </trkpt>
      <trkpt lat="43.656283" lon="10.662786">
        <ele>13.764484</ele>
        <time>2026-05-05T03:09:54.543Z</time>
      </trkpt>
      <trkpt lat="43.656688" lon="10.661145">
        <ele>13.566291</ele>
        <time>2026-05-05T03:10:18.880Z</time>
      </trkpt>
      <trkpt lat="43.657002" lon="10.659775">
        <ele>13.475004</ele>
        <time>2026-05-05T03:10:38.140Z</time>
      </trkpt>
      <trkpt lat="43.657237" lon="10.658731">
        <ele>13.417187</ele>
        <time>2026-05-05T03:10:53.640Z</time>
      </trkpt>
      <trkpt lat="43.657387" lon="10.657927">
        <ele>13.511805</ele>
        <time>2026-05-05T03:11:04.678Z</time>
      </trkpt>
      <trkpt lat="43.657395" lon="10.657877">
        <ele>13.520433</ele>
        <time>2026-05-05T03:11:05.429Z</time>
      </trkpt>
      <trkpt lat="43.657423" lon="10.657738">
        <ele>13.544745</ele>
        <time>2026-05-05T03:11:07.478Z</time>
      </trkpt>
      <trkpt lat="43.657441" lon="10.657652">
        <ele>13.559830</ele>
        <time>2026-05-05T03:11:08.764Z</time>
      </trkpt>
      <trkpt lat="43.657500" lon="10.657425">
        <ele>13.600473</ele>
        <time>2026-05-05T03:11:12.406Z</time>
      </trkpt>
      <trkpt lat="43.657617" lon="10.657011">
        <ele>13.675364</ele>
        <time>2026-05-05T03:11:19.536Z</time>
      </trkpt>
      <trkpt lat="43.657579" lon="10.656910">
        <ele>13.694546</ele>
        <time>2026-05-05T03:11:21.337Z</time>
      </trkpt>
      <trkpt lat="43.657509" lon="10.656861">
        <ele>13.712820</ele>
        <time>2026-05-05T03:11:23.027Z</time>
      </trkpt>
      <trkpt lat="43.657177" lon="10.656876">
        <ele>13.790184</ele>
        <time>2026-05-05T03:11:29.844Z</time>
      </trkpt>
      <trkpt lat="43.657019" lon="10.656847">
        <ele>13.832313</ele>
        <time>2026-05-05T03:11:32.819Z</time>
      </trkpt>
      <trkpt lat="43.655925" lon="10.656518">
        <ele>14.735281</ele>
        <time>2026-05-05T03:11:58.304Z</time>
      </trkpt>
      <trkpt lat="43.655724" lon="10.656318">
        <ele>14.935028</ele>
        <time>2026-05-05T03:12:04.587Z</time>
      </trkpt>
      <trkpt lat="43.655156" lon="10.655430">
        <ele>15.612559</ele>
        <time>2026-05-05T03:12:25.927Z</time>
      </trkpt>
      <trkpt lat="43.655007" lon="10.655208">
        <ele>15.782155</ele>
        <time>2026-05-05T03:12:31.015Z</time>
      </trkpt>
      <trkpt lat="43.654884" lon="10.655020">
        <ele>15.924115</ele>
        <time>2026-05-05T03:12:35.181Z</time>
      </trkpt>
      <trkpt lat="43.654632" lon="10.654639">
        <ele>16.213231</ele>
        <time>2026-05-05T03:12:43.402Z</time>
      </trkpt>
      <trkpt lat="43.654594" lon="10.654533">
        <ele>16.279487</ele>
        <time>2026-05-05T03:12:45.308Z</time>
      </trkpt>
      <trkpt lat="43.654643" lon="10.654254">
        <ele>16.440285</ele>
        <time>2026-05-05T03:12:49.724Z</time>
      </trkpt>
      <trkpt lat="43.654757" lon="10.653854">
        <ele>16.679406</ele>
        <time>2026-05-05T03:12:56.309Z</time>
      </trkpt>
      <trkpt lat="43.655313" lon="10.651549">
        <ele>17.863881</ele>
        <time>2026-05-05T03:13:37.075Z</time>
      </trkpt>
      <trkpt lat="43.655331" lon="10.651472">
        <ele>17.869124</ele>
        <time>2026-05-05T03:13:38.468Z</time>
      </trkpt>
      <trkpt lat="43.654304" lon="10.650993">
        <ele>17.522063</ele>
        <time>2026-05-05T03:14:00.558Z</time>
      </trkpt>
      <trkpt lat="43.654148" lon="10.650925">
        <ele>17.469687</ele>
        <time>2026-05-05T03:14:03.505Z</time>
      </trkpt>
      <trkpt lat="43.653579" lon="10.650678">
        <ele>17.212686</ele>
        <time>2026-05-05T03:14:14.119Z</time>
      </trkpt>
      <trkpt lat="43.653473" lon="10.650524">
        <ele>17.035936</ele>
        <time>2026-05-05T03:14:16.807Z</time>
      </trkpt>
      <trkpt lat="43.653407" lon="10.650453">
        <ele>16.939813</ele>
        <time>2026-05-05T03:14:18.257Z</time>
      </trkpt>
      <trkpt lat="43.653321" lon="10.650363">
        <ele>16.815835</ele>
        <time>2026-05-05T03:14:20.105Z</time>
      </trkpt>
      <trkpt lat="43.653323" lon="10.649927">
        <ele>16.453270</ele>
        <time>2026-05-05T03:14:27.080Z</time>
      </trkpt>
      <trkpt lat="43.653290" lon="10.649536">
        <ele>16.125927</ele>
        <time>2026-05-05T03:14:33.425Z</time>
      </trkpt>
      <trkpt lat="43.653382" lon="10.649025">
        <ele>15.688044</ele>
        <time>2026-05-05T03:14:41.929Z</time>
      </trkpt>
      <trkpt lat="43.653674" lon="10.648205">
        <ele>15.129510</ele>
        <time>2026-05-05T03:14:57.281Z</time>
      </trkpt>
      <trkpt lat="43.653673" lon="10.647909">
        <ele>15.043852</ele>
        <time>2026-05-05T03:15:02.253Z</time>
      </trkpt>
      <trkpt lat="43.653726" lon="10.647780">
        <ele>15.000923</ele>
        <time>2026-05-05T03:15:04.121Z</time>
      </trkpt>
      <trkpt lat="43.654046" lon="10.646938">
        <ele>14.725695</ele>
        <time>2026-05-05T03:15:16.470Z</time>
      </trkpt>
      <trkpt lat="43.654173" lon="10.646584">
        <ele>14.611353</ele>
        <time>2026-05-05T03:15:22.002Z</time>
      </trkpt>
      <trkpt lat="43.654312" lon="10.645943">
        <ele>14.555605</ele>
        <time>2026-05-05T03:15:31.939Z</time>
      </trkpt>
      <trkpt lat="43.654335" lon="10.645591">
        <ele>14.594450</ele>
        <time>2026-05-05T03:15:37.034Z</time>
      </trkpt>
      <trkpt lat="43.654279" lon="10.645154">
        <ele>14.643229</ele>
        <time>2026-05-05T03:15:43.426Z</time>
      </trkpt>
      <trkpt lat="43.654322" lon="10.644978">
        <ele>14.663646</ele>
        <time>2026-05-05T03:15:46.151Z</time>
      </trkpt>
      <trkpt lat="43.654371" lon="10.644851">
        <ele>14.679465</ele>
        <time>2026-05-05T03:15:48.246Z</time>
      </trkpt>
      <trkpt lat="43.654340" lon="10.644675">
        <ele>14.699374</ele>
        <time>2026-05-05T03:15:50.879Z</time>
      </trkpt>
      <trkpt lat="43.654353" lon="10.644274">
        <ele>14.743492</ele>
        <time>2026-05-05T03:15:56.700Z</time>
      </trkpt>
      <trkpt lat="43.654292" lon="10.643683">
        <ele>14.802267</ele>
        <time>2026-05-05T03:16:05.153Z</time>
      </trkpt>
      <trkpt lat="43.653830" lon="10.639423">
        <ele>14.933870</ele>
        <time>2026-05-05T03:17:06.191Z</time>
      </trkpt>
      <trkpt lat="43.653748" lon="10.638553">
        <ele>14.835852</ele>
        <time>2026-05-05T03:17:17.810Z</time>
      </trkpt>
      <trkpt lat="43.653756" lon="10.637816">
        <ele>14.658679</ele>
        <time>2026-05-05T03:17:27.440Z</time>
      </trkpt>
      <trkpt lat="43.653917" lon="10.635976">
        <ele>14.299121</ele>
        <time>2026-05-05T03:17:52.021Z</time>
      </trkpt>
      <trkpt lat="43.653947" lon="10.635839">
        <ele>14.290164</ele>
        <time>2026-05-05T03:17:53.960Z</time>
      </trkpt>
      <trkpt lat="43.654059" lon="10.635617">
        <ele>14.273227</ele>
        <time>2026-05-05T03:17:57.687Z</time>
      </trkpt>
      <trkpt lat="43.654116" lon="10.635550">
        <ele>14.266756</ele>
        <time>2026-05-05T03:17:59.118Z</time>
      </trkpt>
      <trkpt lat="43.654171" lon="10.635380">
        <ele>14.255102</ele>
        <time>2026-05-05T03:18:01.695Z</time>
      </trkpt>
      <trkpt lat="43.654150" lon="10.635195">
        <ele>14.243383</ele>
        <time>2026-05-05T03:18:04.273Z</time>
      </trkpt>
      <trkpt lat="43.654096" lon="10.635095">
        <ele>14.235575</ele>
        <time>2026-05-05T03:18:05.976Z</time>
      </trkpt>
      <trkpt lat="43.654040" lon="10.634833">
        <ele>14.218479</ele>
        <time>2026-05-05T03:18:09.783Z</time>
      </trkpt>
      <trkpt lat="43.654036" lon="10.634651">
        <ele>14.207084</ele>
        <time>2026-05-05T03:18:12.304Z</time>
      </trkpt>
      <trkpt lat="43.654246" lon="10.632250">
        <ele>14.165247</ele>
        <time>2026-05-05T03:18:45.612Z</time>
      </trkpt>
      <trkpt lat="43.654286" lon="10.631815">
        <ele>14.163258</ele>
        <time>2026-05-05T03:18:51.648Z</time>
      </trkpt>
      <trkpt lat="43.654335" lon="10.631486">
        <ele>14.162528</ele>
        <time>2026-05-05T03:18:56.435Z</time>
      </trkpt>
      <trkpt lat="43.654390" lon="10.631410">
        <ele>14.162528</ele>
        <time>2026-05-05T03:18:58.017Z</time>
      </trkpt>
      <trkpt lat="43.654492" lon="10.631362">
        <ele>14.162528</ele>
        <time>2026-05-05T03:19:00.249Z</time>
      </trkpt>
      <trkpt lat="43.654666" lon="10.631375">
        <ele>14.162528</ele>
        <time>2026-05-05T03:19:03.900Z</time>
      </trkpt>
      <trkpt lat="43.654604" lon="10.631337">
        <ele>14.162528</ele>
        <time>2026-05-05T03:19:05.287Z</time>
      </trkpt>
      <trkpt lat="43.654628" lon="10.631289">
        <ele>14.162528</ele>
        <time>2026-05-05T03:19:06.186Z</time>
      </trkpt>
      <trkpt lat="43.654679" lon="10.631313">
        <ele>14.162528</ele>
        <time>2026-05-05T03:19:07.350Z</time>
      </trkpt>
      <trkpt lat="43.654984" lon="10.631432">
        <ele>14.162528</ele>
        <time>2026-05-05T03:19:14.210Z</time>
      </trkpt>
      <trkpt lat="43.655125" lon="10.631413">
        <ele>14.162528</ele>
        <time>2026-05-05T03:19:17.381Z</time>
      </trkpt>
      <trkpt lat="43.655438" lon="10.631528">
        <ele>14.162528</ele>
        <time>2026-05-05T03:19:25.156Z</time>
      </trkpt>
      <trkpt lat="43.655590" lon="10.631469">
        <ele>14.162528</ele>
        <time>2026-05-05T03:19:29.103Z</time>
      </trkpt>
      <trkpt lat="43.655659" lon="10.631488">
        <ele>14.162528</ele>
        <time>2026-05-05T03:19:30.847Z</time>
      </trkpt>
      <trkpt lat="43.655747" lon="10.631021">
        <ele>14.162528</ele>
        <time>2026-05-05T03:19:39.472Z</time>
      </trkpt>
      <trkpt lat="43.655783" lon="10.630798">
        <ele>14.162528</ele>
        <time>2026-05-05T03:19:43.411Z</time>
      </trkpt>
      <trkpt lat="43.655877" lon="10.630097">
        <ele>14.162528</ele>
        <time>2026-05-05T03:19:55.170Z</time>
      </trkpt>
    </trkseg>
  </trk>
</gpx>